<?xml version="1.0" encoding="UTF-8" standalone="no" ?>
<gpx xmlns="http://www.topografix.com/GPX/1/1" xmlns:xsi="http://www.w3.org/2001/XMLSchema-instance" xsi:schemaLocation="http://www.topografix.com/GPX/1/1 http://www.topografix.com/GPX/1/1/gpx.xsd" version="1.1" creator="VisuGPX - https://www.visugpx.com">
  <metadata>
    <name>PoiTour coté Ouest</name>
    <desc><![CDATA[1 ere partie du PoiTour]]></desc>
  </metadata>
  <trk>
    <name><![CDATA[track]]></name>
    <trkseg>
      <trkpt lat="45.70401" lon="5.89967">
        <ele>242.8</ele>
        <time>2011-04-21T21:46:13Z</time>
      </trkpt>
      <trkpt lat="45.70403" lon="5.89967">
        <ele>242.6</ele>
        <time>2011-04-21T21:46:13Z</time>
      </trkpt>
      <trkpt lat="45.70403" lon="5.8997">
        <ele>242.5</ele>
        <time>2011-04-21T21:46:13Z</time>
      </trkpt>
      <trkpt lat="45.70403" lon="5.89974">
        <ele>242.5</ele>
        <time>2011-04-21T21:46:13Z</time>
      </trkpt>
      <trkpt lat="45.70403" lon="5.89977">
        <ele>242.6</ele>
        <time>2011-04-21T21:46:13Z</time>
      </trkpt>
      <trkpt lat="45.70403" lon="5.8998">
        <ele>242.7</ele>
        <time>2011-04-21T21:46:13Z</time>
      </trkpt>
      <trkpt lat="45.70402" lon="5.89983">
        <ele>242.7</ele>
        <time>2011-04-21T21:46:13Z</time>
      </trkpt>
      <trkpt lat="45.70402" lon="5.89987">
        <ele>242.8</ele>
        <time>2011-04-21T21:46:13Z</time>
      </trkpt>
      <trkpt lat="45.70402" lon="5.8999">
        <ele>242.9</ele>
        <time>2011-04-21T21:46:13Z</time>
      </trkpt>
      <trkpt lat="45.70402" lon="5.89993">
        <ele>242.9</ele>
        <time>2011-04-21T21:46:13Z</time>
      </trkpt>
      <trkpt lat="45.70402" lon="5.89996">
        <ele>243</ele>
        <time>2011-04-21T21:46:13Z</time>
      </trkpt>
      <trkpt lat="45.70402" lon="5.89999">
        <ele>243</ele>
        <time>2011-04-21T21:46:13Z</time>
      </trkpt>
      <trkpt lat="45.70402" lon="5.90003">
        <ele>243.2</ele>
        <time>2011-04-21T21:46:13Z</time>
      </trkpt>
      <trkpt lat="45.70402" lon="5.90006">
        <ele>243.4</ele>
        <time>2011-04-21T21:46:13Z</time>
      </trkpt>
      <trkpt lat="45.70404" lon="5.90009">
        <ele>243.5</ele>
        <time>2011-04-21T21:46:13Z</time>
      </trkpt>
      <trkpt lat="45.70404" lon="5.90012">
        <ele>243.6</ele>
        <time>2011-04-21T21:46:13Z</time>
      </trkpt>
      <trkpt lat="45.70406" lon="5.90012">
        <ele>243.6</ele>
        <time>2011-04-21T21:46:13Z</time>
      </trkpt>
      <trkpt lat="45.70406" lon="5.90016">
        <ele>243.8</ele>
        <time>2011-04-21T21:46:13Z</time>
      </trkpt>
      <trkpt lat="45.70408" lon="5.90016">
        <ele>243.8</ele>
        <time>2011-04-21T21:46:13Z</time>
      </trkpt>
      <trkpt lat="45.70423" lon="5.90049">
        <ele>244.9</ele>
        <time>2011-04-21T21:46:13Z</time>
      </trkpt>
      <trkpt lat="45.7045" lon="5.90102">
        <ele>244.9</ele>
        <time>2011-04-21T21:46:13Z</time>
      </trkpt>
      <trkpt lat="45.7047" lon="5.90129">
        <ele>245</ele>
        <time>2011-04-21T21:46:13Z</time>
      </trkpt>
      <trkpt lat="45.70474" lon="5.90133">
        <ele>245</ele>
        <time>2011-04-21T21:46:13Z</time>
      </trkpt>
      <trkpt lat="45.70476" lon="5.90136">
        <ele>245</ele>
        <time>2011-04-21T21:46:13Z</time>
      </trkpt>
      <trkpt lat="45.70479" lon="5.90139">
        <ele>245</ele>
        <time>2011-04-21T21:46:13Z</time>
      </trkpt>
      <trkpt lat="45.70478" lon="5.90142">
        <ele>245</ele>
        <time>2011-04-21T21:46:13Z</time>
      </trkpt>
      <trkpt lat="45.70481" lon="5.90143">
        <ele>245</ele>
        <time>2011-04-21T21:46:13Z</time>
      </trkpt>
      <trkpt lat="45.70481" lon="5.90146">
        <ele>245.1</ele>
        <time>2011-04-21T21:46:13Z</time>
      </trkpt>
      <trkpt lat="45.70481" lon="5.90149">
        <ele>245.1</ele>
        <time>2011-04-21T21:46:13Z</time>
      </trkpt>
      <trkpt lat="45.7048" lon="5.90152">
        <ele>245.1</ele>
        <time>2011-04-21T21:46:13Z</time>
      </trkpt>
      <trkpt lat="45.7048" lon="5.90155">
        <ele>245.2</ele>
        <time>2011-04-21T21:46:13Z</time>
      </trkpt>
      <trkpt lat="45.7048" lon="5.90159">
        <ele>245.2</ele>
        <time>2011-04-21T21:46:13Z</time>
      </trkpt>
      <trkpt lat="45.70482" lon="5.90162">
        <ele>245.3</ele>
        <time>2011-04-21T21:46:13Z</time>
      </trkpt>
      <trkpt lat="45.70485" lon="5.90165">
        <ele>245.4</ele>
        <time>2011-04-21T21:46:13Z</time>
      </trkpt>
      <trkpt lat="45.70484" lon="5.90169">
        <ele>245.5</ele>
        <time>2011-04-21T21:46:13Z</time>
      </trkpt>
      <trkpt lat="45.7051" lon="5.90212">
        <ele>245.9</ele>
        <time>2011-04-21T21:46:13Z</time>
      </trkpt>
      <trkpt lat="45.70522" lon="5.90271">
        <ele>246.6</ele>
        <time>2011-04-21T21:46:13Z</time>
      </trkpt>
      <trkpt lat="45.70528" lon="5.90297">
        <ele>247</ele>
        <time>2011-04-21T21:46:13Z</time>
      </trkpt>
      <trkpt lat="45.70546" lon="5.90298">
        <ele>246.8</ele>
        <time>2011-04-21T21:46:13Z</time>
      </trkpt>
      <trkpt lat="45.70548" lon="5.90298">
        <ele>246.8</ele>
        <time>2011-04-21T21:46:13Z</time>
      </trkpt>
      <trkpt lat="45.70548" lon="5.90301">
        <ele>246.9</ele>
        <time>2011-04-21T21:46:13Z</time>
      </trkpt>
      <trkpt lat="45.7055" lon="5.90308">
        <ele>247</ele>
        <time>2011-04-21T21:46:13Z</time>
      </trkpt>
      <trkpt lat="45.70552" lon="5.90311">
        <ele>247</ele>
        <time>2011-04-21T21:46:13Z</time>
      </trkpt>
      <trkpt lat="45.70554" lon="5.90314">
        <ele>247</ele>
        <time>2011-04-21T21:46:13Z</time>
      </trkpt>
      <trkpt lat="45.70554" lon="5.90321">
        <ele>247</ele>
        <time>2011-04-21T21:46:13Z</time>
      </trkpt>
      <trkpt lat="45.70556" lon="5.90321">
        <ele>247</ele>
        <time>2011-04-21T21:46:13Z</time>
      </trkpt>
      <trkpt lat="45.70558" lon="5.90321">
        <ele>246.9</ele>
        <time>2011-04-21T21:46:13Z</time>
      </trkpt>
      <trkpt lat="45.7056" lon="5.90325">
        <ele>246.9</ele>
        <time>2011-04-21T21:46:13Z</time>
      </trkpt>
      <trkpt lat="45.70563" lon="5.90328">
        <ele>246.8</ele>
        <time>2011-04-21T21:46:13Z</time>
      </trkpt>
      <trkpt lat="45.70563" lon="5.90331">
        <ele>246.8</ele>
        <time>2011-04-21T21:46:13Z</time>
      </trkpt>
      <trkpt lat="45.70565" lon="5.90334">
        <ele>246.7</ele>
        <time>2011-04-21T21:46:13Z</time>
      </trkpt>
      <trkpt lat="45.70565" lon="5.90338">
        <ele>246.7</ele>
        <time>2011-04-21T21:46:13Z</time>
      </trkpt>
      <trkpt lat="45.70564" lon="5.90341">
        <ele>246.7</ele>
        <time>2011-04-21T21:46:13Z</time>
      </trkpt>
      <trkpt lat="45.70567" lon="5.90341">
        <ele>246.6</ele>
        <time>2011-04-21T21:46:13Z</time>
      </trkpt>
      <trkpt lat="45.70567" lon="5.90344">
        <ele>246.6</ele>
        <time>2011-04-21T21:46:13Z</time>
      </trkpt>
      <trkpt lat="45.70567" lon="5.90347">
        <ele>246.6</ele>
        <time>2011-04-21T21:46:13Z</time>
      </trkpt>
      <trkpt lat="45.70566" lon="5.90351">
        <ele>246.6</ele>
        <time>2011-04-21T21:46:13Z</time>
      </trkpt>
      <trkpt lat="45.70596" lon="5.9041">
        <ele>246.5</ele>
        <time>2011-04-21T21:46:13Z</time>
      </trkpt>
      <trkpt lat="45.70631" lon="5.90512">
        <ele>248.1</ele>
        <time>2011-04-21T21:46:13Z</time>
      </trkpt>
      <trkpt lat="45.7064" lon="5.90519">
        <ele>248.4</ele>
        <time>2011-04-21T21:46:13Z</time>
      </trkpt>
      <trkpt lat="45.70662" lon="5.90521">
        <ele>248.9</ele>
        <time>2011-04-21T21:46:13Z</time>
      </trkpt>
      <trkpt lat="45.70674" lon="5.90521">
        <ele>252.4</ele>
        <time>2011-04-21T21:46:13Z</time>
      </trkpt>
      <trkpt lat="45.70673" lon="5.90525">
        <ele>251.9</ele>
        <time>2011-04-21T21:46:13Z</time>
      </trkpt>
      <trkpt lat="45.70673" lon="5.90528">
        <ele>251.4</ele>
        <time>2011-04-21T21:46:13Z</time>
      </trkpt>
      <trkpt lat="45.70673" lon="5.90531">
        <ele>251.1</ele>
        <time>2011-04-21T21:46:13Z</time>
      </trkpt>
      <trkpt lat="45.70673" lon="5.90534">
        <ele>250.9</ele>
        <time>2011-04-21T21:46:13Z</time>
      </trkpt>
      <trkpt lat="45.70675" lon="5.90534">
        <ele>251.9</ele>
        <time>2011-04-21T21:46:13Z</time>
      </trkpt>
      <trkpt lat="45.70678" lon="5.90538">
        <ele>252.7</ele>
        <time>2011-04-21T21:46:13Z</time>
      </trkpt>
      <trkpt lat="45.70677" lon="5.90541">
        <ele>252.4</ele>
        <time>2011-04-21T21:46:13Z</time>
      </trkpt>
      <trkpt lat="45.7068" lon="5.90541">
        <ele>253.4</ele>
        <time>2011-04-21T21:46:13Z</time>
      </trkpt>
      <trkpt lat="45.7068" lon="5.90544">
        <ele>253.1</ele>
        <time>2011-04-21T21:46:13Z</time>
      </trkpt>
      <trkpt lat="45.70679" lon="5.90548">
        <ele>252.8</ele>
        <time>2011-04-21T21:46:13Z</time>
      </trkpt>
      <trkpt lat="45.70679" lon="5.90551">
        <ele>252.4</ele>
        <time>2011-04-21T21:46:13Z</time>
      </trkpt>
      <trkpt lat="45.70679" lon="5.90554">
        <ele>252.1</ele>
        <time>2011-04-21T21:46:13Z</time>
      </trkpt>
      <trkpt lat="45.70679" lon="5.90557">
        <ele>251.8</ele>
        <time>2011-04-21T21:46:13Z</time>
      </trkpt>
      <trkpt lat="45.70679" lon="5.9056">
        <ele>251.6</ele>
        <time>2011-04-21T21:46:13Z</time>
      </trkpt>
      <trkpt lat="45.70679" lon="5.90564">
        <ele>251.4</ele>
        <time>2011-04-21T21:46:13Z</time>
      </trkpt>
      <trkpt lat="45.70679" lon="5.90567">
        <ele>251.1</ele>
        <time>2011-04-21T21:46:13Z</time>
      </trkpt>
      <trkpt lat="45.70679" lon="5.9057">
        <ele>250.9</ele>
        <time>2011-04-21T21:46:13Z</time>
      </trkpt>
      <trkpt lat="45.70679" lon="5.90573">
        <ele>250.7</ele>
        <time>2011-04-21T21:46:13Z</time>
      </trkpt>
      <trkpt lat="45.70681" lon="5.90573">
        <ele>251.3</ele>
        <time>2011-04-21T21:46:13Z</time>
      </trkpt>
      <trkpt lat="45.70681" lon="5.90577">
        <ele>251.1</ele>
        <time>2011-04-21T21:46:13Z</time>
      </trkpt>
      <trkpt lat="45.70683" lon="5.9058">
        <ele>251.4</ele>
        <time>2011-04-21T21:46:13Z</time>
      </trkpt>
      <trkpt lat="45.70683" lon="5.90583">
        <ele>251.1</ele>
        <time>2011-04-21T21:46:13Z</time>
      </trkpt>
      <trkpt lat="45.70683" lon="5.90586">
        <ele>251.1</ele>
        <time>2011-04-21T21:46:13Z</time>
      </trkpt>
      <trkpt lat="45.70685" lon="5.9059">
        <ele>251.5</ele>
        <time>2011-04-21T21:46:13Z</time>
      </trkpt>
      <trkpt lat="45.70685" lon="5.90593">
        <ele>251.5</ele>
        <time>2011-04-21T21:46:13Z</time>
      </trkpt>
      <trkpt lat="45.70685" lon="5.90596">
        <ele>251.4</ele>
        <time>2011-04-21T21:46:13Z</time>
      </trkpt>
      <trkpt lat="45.70687" lon="5.90603">
        <ele>251.6</ele>
        <time>2011-04-21T21:46:13Z</time>
      </trkpt>
      <trkpt lat="45.70689" lon="5.90603">
        <ele>251.9</ele>
        <time>2011-04-21T21:46:13Z</time>
      </trkpt>
      <trkpt lat="45.70689" lon="5.90606">
        <ele>251.8</ele>
        <time>2011-04-21T21:46:13Z</time>
      </trkpt>
      <trkpt lat="45.70691" lon="5.90606">
        <ele>252</ele>
        <time>2011-04-21T21:46:13Z</time>
      </trkpt>
      <trkpt lat="45.70693" lon="5.9061">
        <ele>252</ele>
        <time>2011-04-21T21:46:13Z</time>
      </trkpt>
      <trkpt lat="45.70693" lon="5.90613">
        <ele>251.7</ele>
        <time>2011-04-21T21:46:13Z</time>
      </trkpt>
      <trkpt lat="45.70695" lon="5.90613">
        <ele>252.2</ele>
        <time>2011-04-21T21:46:13Z</time>
      </trkpt>
      <trkpt lat="45.70698" lon="5.90613">
        <ele>253.1</ele>
        <time>2011-04-21T21:46:13Z</time>
      </trkpt>
      <trkpt lat="45.707" lon="5.90613">
        <ele>254.1</ele>
        <time>2011-04-21T21:46:13Z</time>
      </trkpt>
      <trkpt lat="45.707" lon="5.90616">
        <ele>253.6</ele>
        <time>2011-04-21T21:46:13Z</time>
      </trkpt>
      <trkpt lat="45.70702" lon="5.90617">
        <ele>254.6</ele>
        <time>2011-04-21T21:46:13Z</time>
      </trkpt>
      <trkpt lat="45.70704" lon="5.90617">
        <ele>255.5</ele>
        <time>2011-04-21T21:46:13Z</time>
      </trkpt>
      <trkpt lat="45.70707" lon="5.90617">
        <ele>256.5</ele>
        <time>2011-04-21T21:46:13Z</time>
      </trkpt>
      <trkpt lat="45.70706" lon="5.9062">
        <ele>256</ele>
        <time>2011-04-21T21:46:13Z</time>
      </trkpt>
      <trkpt lat="45.70706" lon="5.90623">
        <ele>255.6</ele>
        <time>2011-04-21T21:46:13Z</time>
      </trkpt>
      <trkpt lat="45.70706" lon="5.90626">
        <ele>255.1</ele>
        <time>2011-04-21T21:46:13Z</time>
      </trkpt>
      <trkpt lat="45.70719" lon="5.90659">
        <ele>256.1</ele>
        <time>2011-04-21T21:46:13Z</time>
      </trkpt>
      <trkpt lat="45.70752" lon="5.90662">
        <ele>271.5</ele>
        <time>2011-04-21T21:46:13Z</time>
      </trkpt>
      <trkpt lat="45.70795" lon="5.9068">
        <ele>285.8</ele>
        <time>2011-04-21T21:46:13Z</time>
      </trkpt>
      <trkpt lat="45.70829" lon="5.90667">
        <ele>297.4</ele>
        <time>2011-04-21T21:46:13Z</time>
      </trkpt>
      <trkpt lat="45.70872" lon="5.90666">
        <ele>307.3</ele>
        <time>2011-04-21T21:46:13Z</time>
      </trkpt>
      <trkpt lat="45.70919" lon="5.90669">
        <ele>317.4</ele>
        <time>2011-04-21T21:46:13Z</time>
      </trkpt>
      <trkpt lat="45.70952" lon="5.90671">
        <ele>324.6</ele>
        <time>2011-04-21T21:46:13Z</time>
      </trkpt>
      <trkpt lat="45.7104" lon="5.90748">
        <ele>338.8</ele>
        <time>2011-04-21T21:46:13Z</time>
      </trkpt>
      <trkpt lat="45.71113" lon="5.90788">
        <ele>352.2</ele>
        <time>2011-04-21T21:46:13Z</time>
      </trkpt>
      <trkpt lat="45.71163" lon="5.90833">
        <ele>359.2</ele>
        <time>2011-04-21T21:46:13Z</time>
      </trkpt>
      <trkpt lat="45.71194" lon="5.90861">
        <ele>363.1</ele>
        <time>2011-04-21T21:46:13Z</time>
      </trkpt>
      <trkpt lat="45.71236" lon="5.90879">
        <ele>369.1</ele>
        <time>2011-04-21T21:46:13Z</time>
      </trkpt>
      <trkpt lat="45.71243" lon="5.9088">
        <ele>370.8</ele>
        <time>2011-04-21T21:46:13Z</time>
      </trkpt>
      <trkpt lat="45.71245" lon="5.9088">
        <ele>371.3</ele>
        <time>2011-04-21T21:46:13Z</time>
      </trkpt>
      <trkpt lat="45.7125" lon="5.9088">
        <ele>372.4</ele>
        <time>2011-04-21T21:46:13Z</time>
      </trkpt>
      <trkpt lat="45.71254" lon="5.90881">
        <ele>373.6</ele>
        <time>2011-04-21T21:46:13Z</time>
      </trkpt>
      <trkpt lat="45.71261" lon="5.90881">
        <ele>375.5</ele>
        <time>2011-04-21T21:46:13Z</time>
      </trkpt>
      <trkpt lat="45.71263" lon="5.90881">
        <ele>376.1</ele>
        <time>2011-04-21T21:46:13Z</time>
      </trkpt>
      <trkpt lat="45.71268" lon="5.90881">
        <ele>377.3</ele>
        <time>2011-04-21T21:46:13Z</time>
      </trkpt>
      <trkpt lat="45.7127" lon="5.90882">
        <ele>377.9</ele>
        <time>2011-04-21T21:46:13Z</time>
      </trkpt>
      <trkpt lat="45.71274" lon="5.90882">
        <ele>379.1</ele>
        <time>2011-04-21T21:46:13Z</time>
      </trkpt>
      <trkpt lat="45.71277" lon="5.90882">
        <ele>379.7</ele>
        <time>2011-04-21T21:46:13Z</time>
      </trkpt>
      <trkpt lat="45.71283" lon="5.90882">
        <ele>381.4</ele>
        <time>2011-04-21T21:46:13Z</time>
      </trkpt>
      <trkpt lat="45.71286" lon="5.90883">
        <ele>381.9</ele>
        <time>2011-04-21T21:46:13Z</time>
      </trkpt>
      <trkpt lat="45.71286" lon="5.90886">
        <ele>381.1</ele>
        <time>2011-04-21T21:46:13Z</time>
      </trkpt>
      <trkpt lat="45.7129" lon="5.90892">
        <ele>380.5</ele>
        <time>2011-04-21T21:46:13Z</time>
      </trkpt>
      <trkpt lat="45.71294" lon="5.90893">
        <ele>381.7</ele>
        <time>2011-04-21T21:46:13Z</time>
      </trkpt>
      <trkpt lat="45.71299" lon="5.90893">
        <ele>382.9</ele>
        <time>2011-04-21T21:46:13Z</time>
      </trkpt>
      <trkpt lat="45.71301" lon="5.90893">
        <ele>383.5</ele>
        <time>2011-04-21T21:46:13Z</time>
      </trkpt>
      <trkpt lat="45.71303" lon="5.90893">
        <ele>384.1</ele>
        <time>2011-04-21T21:46:13Z</time>
      </trkpt>
      <trkpt lat="45.7131" lon="5.90894">
        <ele>385.6</ele>
        <time>2011-04-21T21:46:13Z</time>
      </trkpt>
      <trkpt lat="45.71312" lon="5.90894">
        <ele>386.1</ele>
        <time>2011-04-21T21:46:13Z</time>
      </trkpt>
      <trkpt lat="45.71315" lon="5.90894">
        <ele>386.6</ele>
        <time>2011-04-21T21:46:13Z</time>
      </trkpt>
      <trkpt lat="45.71317" lon="5.90897">
        <ele>386.2</ele>
        <time>2011-04-21T21:46:13Z</time>
      </trkpt>
      <trkpt lat="45.71319" lon="5.90898">
        <ele>386.7</ele>
        <time>2011-04-21T21:46:13Z</time>
      </trkpt>
      <trkpt lat="45.71301" lon="5.90842">
        <ele>393.8</ele>
        <time>2011-04-21T21:46:13Z</time>
      </trkpt>
      <trkpt lat="45.71365" lon="5.90859">
        <ele>403.9</ele>
        <time>2011-04-21T21:46:13Z</time>
      </trkpt>
      <trkpt lat="45.7142" lon="5.90914">
        <ele>405.1</ele>
        <time>2011-04-21T21:46:13Z</time>
      </trkpt>
      <trkpt lat="45.71479" lon="5.90966">
        <ele>405.4</ele>
        <time>2011-04-21T21:46:13Z</time>
      </trkpt>
      <trkpt lat="45.71616" lon="5.91058">
        <ele>402.1</ele>
        <time>2011-04-21T21:46:13Z</time>
      </trkpt>
      <trkpt lat="45.71703" lon="5.91086">
        <ele>403.8</ele>
        <time>2011-04-21T21:46:13Z</time>
      </trkpt>
      <trkpt lat="45.71787" lon="5.91105">
        <ele>405.7</ele>
        <time>2011-04-21T21:46:13Z</time>
      </trkpt>
      <trkpt lat="45.7181" lon="5.91113">
        <ele>405</ele>
        <time>2011-04-21T21:46:13Z</time>
      </trkpt>
      <trkpt lat="45.71847" lon="5.91083">
        <ele>414.6</ele>
        <time>2011-04-21T21:46:13Z</time>
      </trkpt>
      <trkpt lat="45.71849" lon="5.91083">
        <ele>414.8</ele>
        <time>2011-04-21T21:46:13Z</time>
      </trkpt>
      <trkpt lat="45.71854" lon="5.91077">
        <ele>417</ele>
        <time>2011-04-21T21:46:13Z</time>
      </trkpt>
      <trkpt lat="45.71858" lon="5.91074">
        <ele>418.4</ele>
        <time>2011-04-21T21:46:13Z</time>
      </trkpt>
      <trkpt lat="45.7186" lon="5.91074">
        <ele>418.6</ele>
        <time>2011-04-21T21:46:13Z</time>
      </trkpt>
      <trkpt lat="45.71863" lon="5.91071">
        <ele>419.7</ele>
        <time>2011-04-21T21:46:13Z</time>
      </trkpt>
      <trkpt lat="45.71867" lon="5.91068">
        <ele>420.8</ele>
        <time>2011-04-21T21:46:13Z</time>
      </trkpt>
      <trkpt lat="45.7187" lon="5.91068">
        <ele>420.9</ele>
        <time>2011-04-21T21:46:13Z</time>
      </trkpt>
      <trkpt lat="45.7187" lon="5.91065">
        <ele>421.8</ele>
        <time>2011-04-21T21:46:13Z</time>
      </trkpt>
      <trkpt lat="45.71872" lon="5.91065">
        <ele>421.9</ele>
        <time>2011-04-21T21:46:13Z</time>
      </trkpt>
      <trkpt lat="45.71872" lon="5.91062">
        <ele>422.7</ele>
        <time>2011-04-21T21:46:13Z</time>
      </trkpt>
      <trkpt lat="45.71874" lon="5.91062">
        <ele>422.8</ele>
        <time>2011-04-21T21:46:13Z</time>
      </trkpt>
      <trkpt lat="45.71877" lon="5.91062">
        <ele>422.9</ele>
        <time>2011-04-21T21:46:13Z</time>
      </trkpt>
      <trkpt lat="45.71879" lon="5.91062">
        <ele>423</ele>
        <time>2011-04-21T21:46:13Z</time>
      </trkpt>
      <trkpt lat="45.71918" lon="5.91046">
        <ele>429.2</ele>
        <time>2011-04-21T21:46:13Z</time>
      </trkpt>
      <trkpt lat="45.71948" lon="5.91012">
        <ele>437.2</ele>
        <time>2011-04-21T21:46:13Z</time>
      </trkpt>
      <trkpt lat="45.71948" lon="5.91009">
        <ele>437.8</ele>
        <time>2011-04-21T21:46:13Z</time>
      </trkpt>
      <trkpt lat="45.7195" lon="5.91006">
        <ele>438.6</ele>
        <time>2011-04-21T21:46:13Z</time>
      </trkpt>
      <trkpt lat="45.71953" lon="5.91006">
        <ele>438.8</ele>
        <time>2011-04-21T21:46:13Z</time>
      </trkpt>
      <trkpt lat="45.71953" lon="5.91003">
        <ele>439.4</ele>
        <time>2011-04-21T21:46:13Z</time>
      </trkpt>
      <trkpt lat="45.71955" lon="5.91003">
        <ele>439.6</ele>
        <time>2011-04-21T21:46:13Z</time>
      </trkpt>
      <trkpt lat="45.71955" lon="5.91">
        <ele>440.2</ele>
        <time>2011-04-21T21:46:13Z</time>
      </trkpt>
      <trkpt lat="45.71954" lon="5.90961">
        <ele>449.5</ele>
        <time>2011-04-21T21:46:13Z</time>
      </trkpt>
      <trkpt lat="45.71934" lon="5.90947">
        <ele>453.2</ele>
        <time>2011-04-21T21:46:13Z</time>
      </trkpt>
      <trkpt lat="45.71917" lon="5.9094">
        <ele>455.8</ele>
        <time>2011-04-21T21:46:13Z</time>
      </trkpt>
      <trkpt lat="45.71917" lon="5.90936">
        <ele>456.9</ele>
        <time>2011-04-21T21:46:13Z</time>
      </trkpt>
      <trkpt lat="45.71914" lon="5.90936">
        <ele>457.2</ele>
        <time>2011-04-21T21:46:13Z</time>
      </trkpt>
      <trkpt lat="45.71901" lon="5.90932">
        <ele>459.8</ele>
        <time>2011-04-21T21:46:13Z</time>
      </trkpt>
      <trkpt lat="45.71899" lon="5.90932">
        <ele>460.1</ele>
        <time>2011-04-21T21:46:13Z</time>
      </trkpt>
      <trkpt lat="45.71897" lon="5.90932">
        <ele>460.3</ele>
        <time>2011-04-21T21:46:13Z</time>
      </trkpt>
      <trkpt lat="45.71894" lon="5.90932">
        <ele>460.6</ele>
        <time>2011-04-21T21:46:13Z</time>
      </trkpt>
      <trkpt lat="45.71892" lon="5.90932">
        <ele>460.8</ele>
        <time>2011-04-21T21:46:13Z</time>
      </trkpt>
      <trkpt lat="45.7187" lon="5.90914">
        <ele>467.1</ele>
        <time>2011-04-21T21:46:13Z</time>
      </trkpt>
      <trkpt lat="45.71868" lon="5.90914">
        <ele>467.1</ele>
        <time>2011-04-21T21:46:13Z</time>
      </trkpt>
      <trkpt lat="45.71866" lon="5.90914">
        <ele>467.1</ele>
        <time>2011-04-21T21:46:13Z</time>
      </trkpt>
      <trkpt lat="45.71863" lon="5.90914">
        <ele>467.1</ele>
        <time>2011-04-21T21:46:13Z</time>
      </trkpt>
      <trkpt lat="45.71861" lon="5.90913">
        <ele>467</ele>
        <time>2011-04-21T21:46:13Z</time>
      </trkpt>
      <trkpt lat="45.71859" lon="5.90913">
        <ele>467.1</ele>
        <time>2011-04-21T21:46:13Z</time>
      </trkpt>
      <trkpt lat="45.71854" lon="5.90913">
        <ele>467.2</ele>
        <time>2011-04-21T21:46:13Z</time>
      </trkpt>
      <trkpt lat="45.71852" lon="5.90913">
        <ele>467.3</ele>
        <time>2011-04-21T21:46:13Z</time>
      </trkpt>
      <trkpt lat="45.7185" lon="5.90913">
        <ele>467.3</ele>
        <time>2011-04-21T21:46:13Z</time>
      </trkpt>
      <trkpt lat="45.71848" lon="5.90913">
        <ele>467.4</ele>
        <time>2011-04-21T21:46:13Z</time>
      </trkpt>
      <trkpt lat="45.71845" lon="5.90912">
        <ele>467.5</ele>
        <time>2011-04-21T21:46:13Z</time>
      </trkpt>
      <trkpt lat="45.71843" lon="5.90912">
        <ele>467.5</ele>
        <time>2011-04-21T21:46:13Z</time>
      </trkpt>
      <trkpt lat="45.71841" lon="5.90912">
        <ele>467.6</ele>
        <time>2011-04-21T21:46:13Z</time>
      </trkpt>
      <trkpt lat="45.71839" lon="5.90912">
        <ele>467.6</ele>
        <time>2011-04-21T21:46:13Z</time>
      </trkpt>
      <trkpt lat="45.71836" lon="5.90912">
        <ele>467.7</ele>
        <time>2011-04-21T21:46:13Z</time>
      </trkpt>
      <trkpt lat="45.71834" lon="5.90912">
        <ele>467.8</ele>
        <time>2011-04-21T21:46:13Z</time>
      </trkpt>
      <trkpt lat="45.71832" lon="5.90912">
        <ele>467.8</ele>
        <time>2011-04-21T21:46:13Z</time>
      </trkpt>
      <trkpt lat="45.7183" lon="5.90911">
        <ele>467.8</ele>
        <time>2011-04-21T21:46:13Z</time>
      </trkpt>
      <trkpt lat="45.71827" lon="5.90911">
        <ele>467.7</ele>
        <time>2011-04-21T21:46:13Z</time>
      </trkpt>
      <trkpt lat="45.71776" lon="5.90914">
        <ele>464.6</ele>
        <time>2011-04-21T21:46:13Z</time>
      </trkpt>
      <trkpt lat="45.71773" lon="5.90914">
        <ele>464.5</ele>
        <time>2011-04-21T21:46:13Z</time>
      </trkpt>
      <trkpt lat="45.71771" lon="5.90914">
        <ele>464.4</ele>
        <time>2011-04-21T21:46:13Z</time>
      </trkpt>
      <trkpt lat="45.71769" lon="5.90914">
        <ele>464.2</ele>
        <time>2011-04-21T21:46:13Z</time>
      </trkpt>
      <trkpt lat="45.71767" lon="5.90914">
        <ele>464.1</ele>
        <time>2011-04-21T21:46:13Z</time>
      </trkpt>
      <trkpt lat="45.71764" lon="5.90914">
        <ele>464</ele>
        <time>2011-04-21T21:46:13Z</time>
      </trkpt>
      <trkpt lat="45.71762" lon="5.90913">
        <ele>463.9</ele>
        <time>2011-04-21T21:46:13Z</time>
      </trkpt>
      <trkpt lat="45.7176" lon="5.90913">
        <ele>463.8</ele>
        <time>2011-04-21T21:46:13Z</time>
      </trkpt>
      <trkpt lat="45.71758" lon="5.90913">
        <ele>463.7</ele>
        <time>2011-04-21T21:46:13Z</time>
      </trkpt>
      <trkpt lat="45.71755" lon="5.90913">
        <ele>463.6</ele>
        <time>2011-04-21T21:46:13Z</time>
      </trkpt>
      <trkpt lat="45.71753" lon="5.90913">
        <ele>463.4</ele>
        <time>2011-04-21T21:46:13Z</time>
      </trkpt>
      <trkpt lat="45.71751" lon="5.90913">
        <ele>463.3</ele>
        <time>2011-04-21T21:46:13Z</time>
      </trkpt>
      <trkpt lat="45.71749" lon="5.90913">
        <ele>463.2</ele>
        <time>2011-04-21T21:46:13Z</time>
      </trkpt>
      <trkpt lat="45.71746" lon="5.90912">
        <ele>463</ele>
        <time>2011-04-21T21:46:13Z</time>
      </trkpt>
      <trkpt lat="45.71746" lon="5.90909">
        <ele>464</ele>
        <time>2011-04-21T21:46:13Z</time>
      </trkpt>
      <trkpt lat="45.71744" lon="5.90909">
        <ele>463.8</ele>
        <time>2011-04-21T21:46:13Z</time>
      </trkpt>
      <trkpt lat="45.71742" lon="5.90909">
        <ele>463.5</ele>
        <time>2011-04-21T21:46:13Z</time>
      </trkpt>
      <trkpt lat="45.7174" lon="5.90909">
        <ele>463.3</ele>
        <time>2011-04-21T21:46:13Z</time>
      </trkpt>
      <trkpt lat="45.71735" lon="5.90909">
        <ele>462.9</ele>
        <time>2011-04-21T21:46:13Z</time>
      </trkpt>
      <trkpt lat="45.71735" lon="5.90905">
        <ele>463.9</ele>
        <time>2011-04-21T21:46:13Z</time>
      </trkpt>
      <trkpt lat="45.71731" lon="5.90905">
        <ele>463.4</ele>
        <time>2011-04-21T21:46:13Z</time>
      </trkpt>
      <trkpt lat="45.71729" lon="5.90905">
        <ele>463.2</ele>
        <time>2011-04-21T21:46:13Z</time>
      </trkpt>
      <trkpt lat="45.71729" lon="5.90902">
        <ele>464.1</ele>
        <time>2011-04-21T21:46:13Z</time>
      </trkpt>
      <trkpt lat="45.71726" lon="5.90902">
        <ele>463.9</ele>
        <time>2011-04-21T21:46:13Z</time>
      </trkpt>
      <trkpt lat="45.71724" lon="5.90901">
        <ele>463.7</ele>
        <time>2011-04-21T21:46:13Z</time>
      </trkpt>
      <trkpt lat="45.7172" lon="5.90901">
        <ele>463.3</ele>
        <time>2011-04-21T21:46:13Z</time>
      </trkpt>
      <trkpt lat="45.71717" lon="5.90901">
        <ele>463.1</ele>
        <time>2011-04-21T21:46:13Z</time>
      </trkpt>
      <trkpt lat="45.71715" lon="5.90901">
        <ele>463</ele>
        <time>2011-04-21T21:46:13Z</time>
      </trkpt>
      <trkpt lat="45.71713" lon="5.90901">
        <ele>462.8</ele>
        <time>2011-04-21T21:46:13Z</time>
      </trkpt>
      <trkpt lat="45.71708" lon="5.909">
        <ele>462.5</ele>
        <time>2011-04-21T21:46:13Z</time>
      </trkpt>
      <trkpt lat="45.71706" lon="5.909">
        <ele>462.4</ele>
        <time>2011-04-21T21:46:13Z</time>
      </trkpt>
      <trkpt lat="45.71704" lon="5.909">
        <ele>462.2</ele>
        <time>2011-04-21T21:46:13Z</time>
      </trkpt>
      <trkpt lat="45.71702" lon="5.90897">
        <ele>463.1</ele>
        <time>2011-04-21T21:46:13Z</time>
      </trkpt>
      <trkpt lat="45.71662" lon="5.90859">
        <ele>469.9</ele>
        <time>2011-04-21T21:46:13Z</time>
      </trkpt>
      <trkpt lat="45.71632" lon="5.90838">
        <ele>468.7</ele>
        <time>2011-04-21T21:46:13Z</time>
      </trkpt>
      <trkpt lat="45.71613" lon="5.90798">
        <ele>470.8</ele>
        <time>2011-04-21T21:46:13Z</time>
      </trkpt>
      <trkpt lat="45.7161" lon="5.90794">
        <ele>470.9</ele>
        <time>2011-04-21T21:46:13Z</time>
      </trkpt>
      <trkpt lat="45.71596" lon="5.90761">
        <ele>472.2</ele>
        <time>2011-04-21T21:46:13Z</time>
      </trkpt>
      <trkpt lat="45.71594" lon="5.90758">
        <ele>472</ele>
        <time>2011-04-21T21:46:13Z</time>
      </trkpt>
      <trkpt lat="45.71594" lon="5.90755">
        <ele>472.4</ele>
        <time>2011-04-21T21:46:13Z</time>
      </trkpt>
      <trkpt lat="45.71592" lon="5.90751">
        <ele>472.2</ele>
        <time>2011-04-21T21:46:13Z</time>
      </trkpt>
      <trkpt lat="45.71585" lon="5.90732">
        <ele>471.9</ele>
        <time>2011-04-21T21:46:13Z</time>
      </trkpt>
      <trkpt lat="45.71586" lon="5.90728">
        <ele>472.1</ele>
        <time>2011-04-21T21:46:13Z</time>
      </trkpt>
      <trkpt lat="45.71583" lon="5.90725">
        <ele>471.8</ele>
        <time>2011-04-21T21:46:13Z</time>
      </trkpt>
      <trkpt lat="45.71581" lon="5.90725">
        <ele>471.3</ele>
        <time>2011-04-21T21:46:13Z</time>
      </trkpt>
      <trkpt lat="45.71581" lon="5.90722">
        <ele>471.5</ele>
        <time>2011-04-21T21:46:13Z</time>
      </trkpt>
      <trkpt lat="45.71581" lon="5.90719">
        <ele>471.3</ele>
        <time>2011-04-21T21:46:13Z</time>
      </trkpt>
      <trkpt lat="45.71581" lon="5.90715">
        <ele>471.1</ele>
        <time>2011-04-21T21:46:13Z</time>
      </trkpt>
      <trkpt lat="45.71582" lon="5.90712">
        <ele>470.9</ele>
        <time>2011-04-21T21:46:13Z</time>
      </trkpt>
      <trkpt lat="45.71582" lon="5.90709">
        <ele>470.7</ele>
        <time>2011-04-21T21:46:13Z</time>
      </trkpt>
      <trkpt lat="45.71582" lon="5.90706">
        <ele>470.6</ele>
        <time>2011-04-21T21:46:13Z</time>
      </trkpt>
      <trkpt lat="45.71582" lon="5.90699">
        <ele>470.2</ele>
        <time>2011-04-21T21:46:13Z</time>
      </trkpt>
      <trkpt lat="45.71582" lon="5.90696">
        <ele>470</ele>
        <time>2011-04-21T21:46:13Z</time>
      </trkpt>
      <trkpt lat="45.71582" lon="5.90693">
        <ele>470.2</ele>
        <time>2011-04-21T21:46:13Z</time>
      </trkpt>
      <trkpt lat="45.71584" lon="5.90642">
        <ele>480.7</ele>
        <time>2011-04-21T21:46:13Z</time>
      </trkpt>
      <trkpt lat="45.71608" lon="5.90582">
        <ele>480.2</ele>
        <time>2011-04-21T21:46:13Z</time>
      </trkpt>
      <trkpt lat="45.71632" lon="5.90548">
        <ele>480.3</ele>
        <time>2011-04-21T21:46:13Z</time>
      </trkpt>
      <trkpt lat="45.71667" lon="5.90512">
        <ele>484.2</ele>
        <time>2011-04-21T21:46:13Z</time>
      </trkpt>
      <trkpt lat="45.71715" lon="5.90496">
        <ele>487.4</ele>
        <time>2011-04-21T21:46:13Z</time>
      </trkpt>
      <trkpt lat="45.71759" lon="5.90499">
        <ele>490</ele>
        <time>2011-04-21T21:46:13Z</time>
      </trkpt>
      <trkpt lat="45.71806" lon="5.90515">
        <ele>489.1</ele>
        <time>2011-04-21T21:46:13Z</time>
      </trkpt>
      <trkpt lat="45.71809" lon="5.90515">
        <ele>489</ele>
        <time>2011-04-21T21:46:13Z</time>
      </trkpt>
      <trkpt lat="45.71842" lon="5.90539">
        <ele>492.1</ele>
        <time>2011-04-21T21:46:13Z</time>
      </trkpt>
      <trkpt lat="45.71844" lon="5.90539">
        <ele>492.2</ele>
        <time>2011-04-21T21:46:13Z</time>
      </trkpt>
      <trkpt lat="45.71846" lon="5.9054">
        <ele>492.2</ele>
        <time>2011-04-21T21:46:13Z</time>
      </trkpt>
      <trkpt lat="45.71848" lon="5.9054">
        <ele>492.2</ele>
        <time>2011-04-21T21:46:13Z</time>
      </trkpt>
      <trkpt lat="45.7185" lon="5.90543">
        <ele>492.7</ele>
        <time>2011-04-21T21:46:13Z</time>
      </trkpt>
      <trkpt lat="45.71853" lon="5.90543">
        <ele>492.7</ele>
        <time>2011-04-21T21:46:13Z</time>
      </trkpt>
      <trkpt lat="45.71855" lon="5.90543">
        <ele>492.7</ele>
        <time>2011-04-21T21:46:13Z</time>
      </trkpt>
      <trkpt lat="45.71857" lon="5.90547">
        <ele>493.1</ele>
        <time>2011-04-21T21:46:13Z</time>
      </trkpt>
      <trkpt lat="45.71859" lon="5.90547">
        <ele>493.1</ele>
        <time>2011-04-21T21:46:13Z</time>
      </trkpt>
      <trkpt lat="45.71862" lon="5.90547">
        <ele>493.1</ele>
        <time>2011-04-21T21:46:13Z</time>
      </trkpt>
      <trkpt lat="45.71861" lon="5.9055">
        <ele>493.4</ele>
        <time>2011-04-21T21:46:13Z</time>
      </trkpt>
      <trkpt lat="45.71864" lon="5.9055">
        <ele>493.4</ele>
        <time>2011-04-21T21:46:13Z</time>
      </trkpt>
      <trkpt lat="45.71868" lon="5.90554">
        <ele>493.6</ele>
        <time>2011-04-21T21:46:13Z</time>
      </trkpt>
      <trkpt lat="45.7187" lon="5.90557">
        <ele>494.1</ele>
        <time>2011-04-21T21:46:13Z</time>
      </trkpt>
      <trkpt lat="45.71872" lon="5.90561">
        <ele>495</ele>
        <time>2011-04-21T21:46:13Z</time>
      </trkpt>
      <trkpt lat="45.71872" lon="5.90564">
        <ele>495.9</ele>
        <time>2011-04-21T21:46:13Z</time>
      </trkpt>
      <trkpt lat="45.71874" lon="5.90564">
        <ele>495.9</ele>
        <time>2011-04-21T21:46:13Z</time>
      </trkpt>
      <trkpt lat="45.71877" lon="5.90564">
        <ele>495.9</ele>
        <time>2011-04-21T21:46:13Z</time>
      </trkpt>
      <trkpt lat="45.71879" lon="5.90564">
        <ele>496</ele>
        <time>2011-04-21T21:46:13Z</time>
      </trkpt>
      <trkpt lat="45.71924" lon="5.90564">
        <ele>496.6</ele>
        <time>2011-04-21T21:46:13Z</time>
      </trkpt>
      <trkpt lat="45.71982" lon="5.90581">
        <ele>499.6</ele>
        <time>2011-04-21T21:46:13Z</time>
      </trkpt>
      <trkpt lat="45.72022" lon="5.90602">
        <ele>502.4</ele>
        <time>2011-04-21T21:46:13Z</time>
      </trkpt>
      <trkpt lat="45.72024" lon="5.90603">
        <ele>502.5</ele>
        <time>2011-04-21T21:46:13Z</time>
      </trkpt>
      <trkpt lat="45.7205" lon="5.90646">
        <ele>501.4</ele>
        <time>2011-04-21T21:46:13Z</time>
      </trkpt>
      <trkpt lat="45.72047" lon="5.90717">
        <ele>499.7</ele>
        <time>2011-04-21T21:46:13Z</time>
      </trkpt>
      <trkpt lat="45.72044" lon="5.90771">
        <ele>497.6</ele>
        <time>2011-04-21T21:46:13Z</time>
      </trkpt>
      <trkpt lat="45.72043" lon="5.9079">
        <ele>496.2</ele>
        <time>2011-04-21T21:46:13Z</time>
      </trkpt>
      <trkpt lat="45.7205" lon="5.90784">
        <ele>496.9</ele>
        <time>2011-04-21T21:46:13Z</time>
      </trkpt>
      <trkpt lat="45.72054" lon="5.90781">
        <ele>497.1</ele>
        <time>2011-04-21T21:46:13Z</time>
      </trkpt>
      <trkpt lat="45.72057" lon="5.90782">
        <ele>497.4</ele>
        <time>2011-04-21T21:46:13Z</time>
      </trkpt>
      <trkpt lat="45.72059" lon="5.90782">
        <ele>497.9</ele>
        <time>2011-04-21T21:46:13Z</time>
      </trkpt>
      <trkpt lat="45.72061" lon="5.90779">
        <ele>498.3</ele>
        <time>2011-04-21T21:46:13Z</time>
      </trkpt>
      <trkpt lat="45.72061" lon="5.90775">
        <ele>498.2</ele>
        <time>2011-04-21T21:46:13Z</time>
      </trkpt>
      <trkpt lat="45.72064" lon="5.90776">
        <ele>498.7</ele>
        <time>2011-04-21T21:46:13Z</time>
      </trkpt>
      <trkpt lat="45.72066" lon="5.90772">
        <ele>499</ele>
        <time>2011-04-21T21:46:13Z</time>
      </trkpt>
      <trkpt lat="45.72066" lon="5.90769">
        <ele>498.9</ele>
        <time>2011-04-21T21:46:13Z</time>
      </trkpt>
      <trkpt lat="45.72068" lon="5.90769">
        <ele>499.3</ele>
        <time>2011-04-21T21:46:13Z</time>
      </trkpt>
      <trkpt lat="45.72068" lon="5.90766">
        <ele>499.2</ele>
        <time>2011-04-21T21:46:13Z</time>
      </trkpt>
      <trkpt lat="45.72071" lon="5.90766">
        <ele>499.6</ele>
        <time>2011-04-21T21:46:13Z</time>
      </trkpt>
      <trkpt lat="45.72071" lon="5.90763">
        <ele>499.4</ele>
        <time>2011-04-21T21:46:13Z</time>
      </trkpt>
      <trkpt lat="45.72073" lon="5.90763">
        <ele>499.8</ele>
        <time>2011-04-21T21:46:13Z</time>
      </trkpt>
      <trkpt lat="45.72073" lon="5.9076">
        <ele>499.6</ele>
        <time>2011-04-21T21:46:13Z</time>
      </trkpt>
      <trkpt lat="45.72105" lon="5.9074">
        <ele>500.1</ele>
        <time>2011-04-21T21:46:13Z</time>
      </trkpt>
      <trkpt lat="45.72105" lon="5.90736">
        <ele>499.6</ele>
        <time>2011-04-21T21:46:13Z</time>
      </trkpt>
      <trkpt lat="45.72108" lon="5.90737">
        <ele>499.8</ele>
        <time>2011-04-21T21:46:13Z</time>
      </trkpt>
      <trkpt lat="45.72156" lon="5.90782">
        <ele>510.8</ele>
        <time>2011-04-21T21:46:13Z</time>
      </trkpt>
      <trkpt lat="45.72189" lon="5.90797">
        <ele>513.9</ele>
        <time>2011-04-21T21:46:13Z</time>
      </trkpt>
      <trkpt lat="45.72238" lon="5.90816">
        <ele>513.6</ele>
        <time>2011-04-21T21:46:13Z</time>
      </trkpt>
      <trkpt lat="45.7221" lon="5.9084">
        <ele>520.1</ele>
        <time>2011-04-21T21:46:13Z</time>
      </trkpt>
      <trkpt lat="45.72223" lon="5.9086">
        <ele>519.9</ele>
        <time>2011-04-21T21:46:13Z</time>
      </trkpt>
      <trkpt lat="45.72263" lon="5.90872">
        <ele>518.6</ele>
        <time>2011-04-21T21:46:13Z</time>
      </trkpt>
      <trkpt lat="45.72317" lon="5.90888">
        <ele>525.2</ele>
        <time>2011-04-21T21:46:13Z</time>
      </trkpt>
      <trkpt lat="45.72355" lon="5.90894">
        <ele>526</ele>
        <time>2011-04-21T21:46:13Z</time>
      </trkpt>
      <trkpt lat="45.72391" lon="5.90896">
        <ele>525.4</ele>
        <time>2011-04-21T21:46:13Z</time>
      </trkpt>
      <trkpt lat="45.72415" lon="5.90898">
        <ele>524.1</ele>
        <time>2011-04-21T21:46:13Z</time>
      </trkpt>
      <trkpt lat="45.72418" lon="5.90898">
        <ele>523.8</ele>
        <time>2011-04-21T21:46:13Z</time>
      </trkpt>
      <trkpt lat="45.72422" lon="5.90898">
        <ele>522.8</ele>
        <time>2011-04-21T21:46:13Z</time>
      </trkpt>
      <trkpt lat="45.72422" lon="5.90895">
        <ele>522.4</ele>
        <time>2011-04-21T21:46:13Z</time>
      </trkpt>
      <trkpt lat="45.72443" lon="5.90881">
        <ele>513.3</ele>
        <time>2011-04-21T21:46:13Z</time>
      </trkpt>
      <trkpt lat="45.72448" lon="5.90881">
        <ele>512.1</ele>
        <time>2011-04-21T21:46:13Z</time>
      </trkpt>
      <trkpt lat="45.72448" lon="5.90878">
        <ele>511</ele>
        <time>2011-04-21T21:46:13Z</time>
      </trkpt>
      <trkpt lat="45.7245" lon="5.90878">
        <ele>510.4</ele>
        <time>2011-04-21T21:46:13Z</time>
      </trkpt>
      <trkpt lat="45.7253" lon="5.90848">
        <ele>495.2</ele>
        <time>2011-04-21T21:46:13Z</time>
      </trkpt>
      <trkpt lat="45.72532" lon="5.90848">
        <ele>495.5</ele>
        <time>2011-04-21T21:46:13Z</time>
      </trkpt>
      <trkpt lat="45.72534" lon="5.90848">
        <ele>495.8</ele>
        <time>2011-04-21T21:46:13Z</time>
      </trkpt>
      <trkpt lat="45.72536" lon="5.90848">
        <ele>496.1</ele>
        <time>2011-04-21T21:46:13Z</time>
      </trkpt>
      <trkpt lat="45.72541" lon="5.90848">
        <ele>496.7</ele>
        <time>2011-04-21T21:46:13Z</time>
      </trkpt>
      <trkpt lat="45.72545" lon="5.90849">
        <ele>497.3</ele>
        <time>2011-04-21T21:46:13Z</time>
      </trkpt>
      <trkpt lat="45.72548" lon="5.90849">
        <ele>497.6</ele>
        <time>2011-04-21T21:46:13Z</time>
      </trkpt>
      <trkpt lat="45.7255" lon="5.90849">
        <ele>497.9</ele>
        <time>2011-04-21T21:46:13Z</time>
      </trkpt>
      <trkpt lat="45.72552" lon="5.90849">
        <ele>498.2</ele>
        <time>2011-04-21T21:46:13Z</time>
      </trkpt>
      <trkpt lat="45.72554" lon="5.90849">
        <ele>498.6</ele>
        <time>2011-04-21T21:46:13Z</time>
      </trkpt>
      <trkpt lat="45.72557" lon="5.90849">
        <ele>498.8</ele>
        <time>2011-04-21T21:46:13Z</time>
      </trkpt>
      <trkpt lat="45.72559" lon="5.90849">
        <ele>498.9</ele>
        <time>2011-04-21T21:46:13Z</time>
      </trkpt>
      <trkpt lat="45.72561" lon="5.9085">
        <ele>499</ele>
        <time>2011-04-21T21:46:13Z</time>
      </trkpt>
      <trkpt lat="45.72563" lon="5.9085">
        <ele>499.1</ele>
        <time>2011-04-21T21:46:13Z</time>
      </trkpt>
      <trkpt lat="45.72566" lon="5.9085">
        <ele>499.2</ele>
        <time>2011-04-21T21:46:13Z</time>
      </trkpt>
      <trkpt lat="45.72568" lon="5.9085">
        <ele>499.2</ele>
        <time>2011-04-21T21:46:13Z</time>
      </trkpt>
      <trkpt lat="45.7257" lon="5.9085">
        <ele>499.3</ele>
        <time>2011-04-21T21:46:13Z</time>
      </trkpt>
      <trkpt lat="45.72572" lon="5.9085">
        <ele>499.4</ele>
        <time>2011-04-21T21:46:13Z</time>
      </trkpt>
      <trkpt lat="45.72575" lon="5.9085">
        <ele>499.5</ele>
        <time>2011-04-21T21:46:13Z</time>
      </trkpt>
      <trkpt lat="45.72577" lon="5.90851">
        <ele>499.6</ele>
        <time>2011-04-21T21:46:13Z</time>
      </trkpt>
      <trkpt lat="45.72581" lon="5.90851">
        <ele>499.8</ele>
        <time>2011-04-21T21:46:13Z</time>
      </trkpt>
      <trkpt lat="45.72584" lon="5.90851">
        <ele>499.9</ele>
        <time>2011-04-21T21:46:13Z</time>
      </trkpt>
      <trkpt lat="45.72586" lon="5.90851">
        <ele>499.7</ele>
        <time>2011-04-21T21:46:13Z</time>
      </trkpt>
      <trkpt lat="45.72588" lon="5.90851">
        <ele>499.5</ele>
        <time>2011-04-21T21:46:13Z</time>
      </trkpt>
      <trkpt lat="45.7259" lon="5.90852">
        <ele>499.3</ele>
        <time>2011-04-21T21:46:13Z</time>
      </trkpt>
      <trkpt lat="45.72593" lon="5.90852">
        <ele>499.1</ele>
        <time>2011-04-21T21:46:13Z</time>
      </trkpt>
      <trkpt lat="45.72595" lon="5.90852">
        <ele>498.9</ele>
        <time>2011-04-21T21:46:13Z</time>
      </trkpt>
      <trkpt lat="45.72597" lon="5.90852">
        <ele>498.7</ele>
        <time>2011-04-21T21:46:13Z</time>
      </trkpt>
      <trkpt lat="45.72602" lon="5.90852">
        <ele>498.3</ele>
        <time>2011-04-21T21:46:13Z</time>
      </trkpt>
      <trkpt lat="45.72604" lon="5.90852">
        <ele>498</ele>
        <time>2011-04-21T21:46:13Z</time>
      </trkpt>
      <trkpt lat="45.72606" lon="5.90853">
        <ele>497.8</ele>
        <time>2011-04-21T21:46:13Z</time>
      </trkpt>
      <trkpt lat="45.72608" lon="5.90853">
        <ele>497.6</ele>
        <time>2011-04-21T21:46:13Z</time>
      </trkpt>
      <trkpt lat="45.72611" lon="5.90853">
        <ele>497.4</ele>
        <time>2011-04-21T21:46:13Z</time>
      </trkpt>
      <trkpt lat="45.72613" lon="5.90853">
        <ele>497.2</ele>
        <time>2011-04-21T21:46:13Z</time>
      </trkpt>
      <trkpt lat="45.72615" lon="5.90853">
        <ele>497</ele>
        <time>2011-04-21T21:46:13Z</time>
      </trkpt>
      <trkpt lat="45.72617" lon="5.90853">
        <ele>496.9</ele>
        <time>2011-04-21T21:46:13Z</time>
      </trkpt>
      <trkpt lat="45.7262" lon="5.90853">
        <ele>496.7</ele>
        <time>2011-04-21T21:46:13Z</time>
      </trkpt>
      <trkpt lat="45.7262" lon="5.9085">
        <ele>497</ele>
        <time>2011-04-21T21:46:13Z</time>
      </trkpt>
      <trkpt lat="45.7262" lon="5.90847">
        <ele>497.2</ele>
        <time>2011-04-21T21:46:13Z</time>
      </trkpt>
      <trkpt lat="45.72622" lon="5.90847">
        <ele>497.1</ele>
        <time>2011-04-21T21:46:13Z</time>
      </trkpt>
      <trkpt lat="45.72622" lon="5.90844">
        <ele>497.4</ele>
        <time>2011-04-21T21:46:13Z</time>
      </trkpt>
      <trkpt lat="45.72622" lon="5.90841">
        <ele>497.7</ele>
        <time>2011-04-21T21:46:13Z</time>
      </trkpt>
      <trkpt lat="45.72627" lon="5.90841">
        <ele>497.7</ele>
        <time>2011-04-21T21:46:13Z</time>
      </trkpt>
      <trkpt lat="45.72627" lon="5.90838">
        <ele>498</ele>
        <time>2011-04-21T21:46:13Z</time>
      </trkpt>
      <trkpt lat="45.72629" lon="5.90838">
        <ele>498</ele>
        <time>2011-04-21T21:46:13Z</time>
      </trkpt>
      <trkpt lat="45.72629" lon="5.90835">
        <ele>498.5</ele>
        <time>2011-04-21T21:46:13Z</time>
      </trkpt>
      <trkpt lat="45.72631" lon="5.90835">
        <ele>498.5</ele>
        <time>2011-04-21T21:46:13Z</time>
      </trkpt>
      <trkpt lat="45.72631" lon="5.90832">
        <ele>498.8</ele>
        <time>2011-04-21T21:46:13Z</time>
      </trkpt>
      <trkpt lat="45.72632" lon="5.90828">
        <ele>499</ele>
        <time>2011-04-21T21:46:13Z</time>
      </trkpt>
      <trkpt lat="45.72632" lon="5.90825">
        <ele>499.2</ele>
        <time>2011-04-21T21:46:13Z</time>
      </trkpt>
      <trkpt lat="45.72632" lon="5.90822">
        <ele>499.4</ele>
        <time>2011-04-21T21:46:13Z</time>
      </trkpt>
      <trkpt lat="45.7263" lon="5.90816">
        <ele>499.7</ele>
        <time>2011-04-21T21:46:13Z</time>
      </trkpt>
      <trkpt lat="45.7263" lon="5.90812">
        <ele>499.9</ele>
        <time>2011-04-21T21:46:13Z</time>
      </trkpt>
      <trkpt lat="45.7263" lon="5.90809">
        <ele>500.1</ele>
        <time>2011-04-21T21:46:13Z</time>
      </trkpt>
      <trkpt lat="45.7263" lon="5.90806">
        <ele>500.3</ele>
        <time>2011-04-21T21:46:13Z</time>
      </trkpt>
      <trkpt lat="45.7263" lon="5.90803">
        <ele>500.4</ele>
        <time>2011-04-21T21:46:13Z</time>
      </trkpt>
      <trkpt lat="45.7263" lon="5.90799">
        <ele>500.5</ele>
        <time>2011-04-21T21:46:13Z</time>
      </trkpt>
      <trkpt lat="45.7263" lon="5.90796">
        <ele>500.7</ele>
        <time>2011-04-21T21:46:13Z</time>
      </trkpt>
      <trkpt lat="45.72628" lon="5.90796">
        <ele>500.7</ele>
        <time>2011-04-21T21:46:13Z</time>
      </trkpt>
      <trkpt lat="45.72628" lon="5.90793">
        <ele>500.8</ele>
        <time>2011-04-21T21:46:13Z</time>
      </trkpt>
      <trkpt lat="45.72626" lon="5.90793">
        <ele>500.7</ele>
        <time>2011-04-21T21:46:13Z</time>
      </trkpt>
      <trkpt lat="45.72626" lon="5.9079">
        <ele>500.8</ele>
        <time>2011-04-21T21:46:13Z</time>
      </trkpt>
      <trkpt lat="45.72624" lon="5.90789">
        <ele>500.8</ele>
        <time>2011-04-21T21:46:13Z</time>
      </trkpt>
      <trkpt lat="45.72624" lon="5.90786">
        <ele>500.8</ele>
        <time>2011-04-21T21:46:13Z</time>
      </trkpt>
      <trkpt lat="45.72624" lon="5.90783">
        <ele>500.9</ele>
        <time>2011-04-21T21:46:13Z</time>
      </trkpt>
      <trkpt lat="45.72624" lon="5.9078">
        <ele>500.9</ele>
        <time>2011-04-21T21:46:13Z</time>
      </trkpt>
      <trkpt lat="45.72624" lon="5.90777">
        <ele>500.6</ele>
        <time>2011-04-21T21:46:13Z</time>
      </trkpt>
      <trkpt lat="45.72624" lon="5.90773">
        <ele>499.8</ele>
        <time>2011-04-21T21:46:13Z</time>
      </trkpt>
      <trkpt lat="45.72624" lon="5.9077">
        <ele>499</ele>
        <time>2011-04-21T21:46:13Z</time>
      </trkpt>
      <trkpt lat="45.72625" lon="5.90767">
        <ele>498.2</ele>
        <time>2011-04-21T21:46:13Z</time>
      </trkpt>
      <trkpt lat="45.72625" lon="5.90764">
        <ele>497.4</ele>
        <time>2011-04-21T21:46:13Z</time>
      </trkpt>
      <trkpt lat="45.72686" lon="5.90755">
        <ele>508.7</ele>
        <time>2011-04-21T21:46:13Z</time>
      </trkpt>
      <trkpt lat="45.72744" lon="5.90749">
        <ele>519.8</ele>
        <time>2011-04-21T21:46:13Z</time>
      </trkpt>
      <trkpt lat="45.72792" lon="5.90752">
        <ele>529.9</ele>
        <time>2011-04-21T21:46:13Z</time>
      </trkpt>
      <trkpt lat="45.72823" lon="5.90761">
        <ele>535</ele>
        <time>2011-04-21T21:46:13Z</time>
      </trkpt>
      <trkpt lat="45.72827" lon="5.90764">
        <ele>535</ele>
        <time>2011-04-21T21:46:13Z</time>
      </trkpt>
      <trkpt lat="45.7283" lon="5.90764">
        <ele>535.3</ele>
        <time>2011-04-21T21:46:13Z</time>
      </trkpt>
      <trkpt lat="45.72832" lon="5.90764">
        <ele>535.6</ele>
        <time>2011-04-21T21:46:13Z</time>
      </trkpt>
      <trkpt lat="45.72876" lon="5.90774">
        <ele>540.3</ele>
        <time>2011-04-21T21:46:13Z</time>
      </trkpt>
      <trkpt lat="45.72879" lon="5.90774">
        <ele>540.6</ele>
        <time>2011-04-21T21:46:13Z</time>
      </trkpt>
      <trkpt lat="45.72917" lon="5.90779">
        <ele>545.3</ele>
        <time>2011-04-21T21:46:13Z</time>
      </trkpt>
      <trkpt lat="45.72961" lon="5.90792">
        <ele>550.5</ele>
        <time>2011-04-21T21:46:13Z</time>
      </trkpt>
      <trkpt lat="45.72966" lon="5.90792">
        <ele>551.6</ele>
        <time>2011-04-21T21:46:13Z</time>
      </trkpt>
      <trkpt lat="45.72968" lon="5.90792">
        <ele>552.2</ele>
        <time>2011-04-21T21:46:13Z</time>
      </trkpt>
      <trkpt lat="45.7297" lon="5.90793">
        <ele>552.7</ele>
        <time>2011-04-21T21:46:13Z</time>
      </trkpt>
      <trkpt lat="45.73011" lon="5.90802">
        <ele>559.8</ele>
        <time>2011-04-21T21:46:13Z</time>
      </trkpt>
      <trkpt lat="45.73067" lon="5.90805">
        <ele>572.5</ele>
        <time>2011-04-21T21:46:13Z</time>
      </trkpt>
      <trkpt lat="45.73129" lon="5.90822">
        <ele>580.4</ele>
        <time>2011-04-21T21:46:13Z</time>
      </trkpt>
      <trkpt lat="45.73132" lon="5.90822">
        <ele>580.6</ele>
        <time>2011-04-21T21:46:13Z</time>
      </trkpt>
      <trkpt lat="45.73134" lon="5.90823">
        <ele>580.8</ele>
        <time>2011-04-21T21:46:13Z</time>
      </trkpt>
      <trkpt lat="45.73172" lon="5.90835">
        <ele>584.8</ele>
        <time>2011-04-21T21:46:13Z</time>
      </trkpt>
      <trkpt lat="45.73227" lon="5.90858">
        <ele>597.2</ele>
        <time>2011-04-21T21:46:13Z</time>
      </trkpt>
      <trkpt lat="45.7323" lon="5.90858">
        <ele>597.3</ele>
        <time>2011-04-21T21:46:13Z</time>
      </trkpt>
      <trkpt lat="45.73232" lon="5.90858">
        <ele>597.5</ele>
        <time>2011-04-21T21:46:13Z</time>
      </trkpt>
      <trkpt lat="45.73234" lon="5.90858">
        <ele>597.6</ele>
        <time>2011-04-21T21:46:13Z</time>
      </trkpt>
      <trkpt lat="45.7327" lon="5.90863">
        <ele>597.5</ele>
        <time>2011-04-21T21:46:13Z</time>
      </trkpt>
      <trkpt lat="45.7327" lon="5.9086">
        <ele>597.5</ele>
        <time>2011-04-21T21:46:13Z</time>
      </trkpt>
      <trkpt lat="45.7327" lon="5.90857">
        <ele>597.2</ele>
        <time>2011-04-21T21:46:13Z</time>
      </trkpt>
      <trkpt lat="45.73275" lon="5.90857">
        <ele>597</ele>
        <time>2011-04-21T21:46:13Z</time>
      </trkpt>
      <trkpt lat="45.73275" lon="5.90854">
        <ele>596.8</ele>
        <time>2011-04-21T21:46:13Z</time>
      </trkpt>
      <trkpt lat="45.73277" lon="5.90854">
        <ele>596.8</ele>
        <time>2011-04-21T21:46:13Z</time>
      </trkpt>
      <trkpt lat="45.73277" lon="5.90851">
        <ele>596.6</ele>
        <time>2011-04-21T21:46:13Z</time>
      </trkpt>
      <trkpt lat="45.73277" lon="5.90848">
        <ele>596.5</ele>
        <time>2011-04-21T21:46:13Z</time>
      </trkpt>
      <trkpt lat="45.73279" lon="5.90845">
        <ele>596.5</ele>
        <time>2011-04-21T21:46:13Z</time>
      </trkpt>
      <trkpt lat="45.73301" lon="5.90808">
        <ele>598.6</ele>
        <time>2011-04-21T21:46:13Z</time>
      </trkpt>
      <trkpt lat="45.73303" lon="5.90808">
        <ele>598.7</ele>
        <time>2011-04-21T21:46:13Z</time>
      </trkpt>
      <trkpt lat="45.73332" lon="5.90742">
        <ele>607.1</ele>
        <time>2011-04-21T21:46:13Z</time>
      </trkpt>
      <trkpt lat="45.73355" lon="5.90676">
        <ele>613.2</ele>
        <time>2011-04-21T21:46:13Z</time>
      </trkpt>
      <trkpt lat="45.73401" lon="5.90634">
        <ele>615.6</ele>
        <time>2011-04-21T21:46:13Z</time>
      </trkpt>
      <trkpt lat="45.73442" lon="5.90624">
        <ele>616.2</ele>
        <time>2011-04-21T21:46:13Z</time>
      </trkpt>
      <trkpt lat="45.73444" lon="5.90624">
        <ele>616.1</ele>
        <time>2011-04-21T21:46:13Z</time>
      </trkpt>
      <trkpt lat="45.73469" lon="5.90606">
        <ele>621.7</ele>
        <time>2011-04-21T21:46:13Z</time>
      </trkpt>
      <trkpt lat="45.73498" lon="5.90554">
        <ele>626.6</ele>
        <time>2011-04-21T21:46:13Z</time>
      </trkpt>
      <trkpt lat="45.73534" lon="5.90495">
        <ele>630.6</ele>
        <time>2011-04-21T21:46:13Z</time>
      </trkpt>
      <trkpt lat="45.73606" lon="5.90496">
        <ele>641.9</ele>
        <time>2011-04-21T21:46:13Z</time>
      </trkpt>
      <trkpt lat="45.73664" lon="5.90494">
        <ele>656.4</ele>
        <time>2011-04-21T21:46:13Z</time>
      </trkpt>
      <trkpt lat="45.73696" lon="5.90502">
        <ele>661.6</ele>
        <time>2011-04-21T21:46:13Z</time>
      </trkpt>
      <trkpt lat="45.7373" lon="5.90469">
        <ele>669.6</ele>
        <time>2011-04-21T21:46:13Z</time>
      </trkpt>
      <trkpt lat="45.73733" lon="5.90466">
        <ele>670.1</ele>
        <time>2011-04-21T21:46:13Z</time>
      </trkpt>
      <trkpt lat="45.73735" lon="5.90466">
        <ele>670.3</ele>
        <time>2011-04-21T21:46:13Z</time>
      </trkpt>
      <trkpt lat="45.73767" lon="5.90465">
        <ele>672.4</ele>
        <time>2011-04-21T21:46:13Z</time>
      </trkpt>
      <trkpt lat="45.73809" lon="5.90477">
        <ele>671.9</ele>
        <time>2011-04-21T21:46:13Z</time>
      </trkpt>
      <trkpt lat="45.73853" lon="5.90516">
        <ele>672.9</ele>
        <time>2011-04-21T21:46:13Z</time>
      </trkpt>
      <trkpt lat="45.73887" lon="5.9056">
        <ele>675.9</ele>
        <time>2011-04-21T21:46:13Z</time>
      </trkpt>
      <trkpt lat="45.739" lon="5.90602">
        <ele>681.8</ele>
        <time>2011-04-21T21:46:13Z</time>
      </trkpt>
      <trkpt lat="45.739" lon="5.90647">
        <ele>683.5</ele>
        <time>2011-04-21T21:46:13Z</time>
      </trkpt>
      <trkpt lat="45.73929" lon="5.90662">
        <ele>688.3</ele>
        <time>2011-04-21T21:46:13Z</time>
      </trkpt>
      <trkpt lat="45.73959" lon="5.90645">
        <ele>693.3</ele>
        <time>2011-04-21T21:46:13Z</time>
      </trkpt>
      <trkpt lat="45.73964" lon="5.90642">
        <ele>693.3</ele>
        <time>2011-04-21T21:46:13Z</time>
      </trkpt>
      <trkpt lat="45.73982" lon="5.90617">
        <ele>695.1</ele>
        <time>2011-04-21T21:46:13Z</time>
      </trkpt>
      <trkpt lat="45.73985" lon="5.90617">
        <ele>694.9</ele>
        <time>2011-04-21T21:46:13Z</time>
      </trkpt>
      <trkpt lat="45.74004" lon="5.90583">
        <ele>692.9</ele>
        <time>2011-04-21T21:46:13Z</time>
      </trkpt>
      <trkpt lat="45.7402" lon="5.90565">
        <ele>693.2</ele>
        <time>2011-04-21T21:46:13Z</time>
      </trkpt>
      <trkpt lat="45.74047" lon="5.90554">
        <ele>692.8</ele>
        <time>2011-04-21T21:46:13Z</time>
      </trkpt>
      <trkpt lat="45.74081" lon="5.90569">
        <ele>708.3</ele>
        <time>2011-04-21T21:46:13Z</time>
      </trkpt>
      <trkpt lat="45.74083" lon="5.90563">
        <ele>707</ele>
        <time>2011-04-21T21:46:13Z</time>
      </trkpt>
      <trkpt lat="45.74113" lon="5.90532">
        <ele>709.8</ele>
        <time>2011-04-21T21:46:13Z</time>
      </trkpt>
      <trkpt lat="45.74114" lon="5.90529">
        <ele>709.1</ele>
        <time>2011-04-21T21:46:13Z</time>
      </trkpt>
      <trkpt lat="45.74114" lon="5.90526">
        <ele>708.6</ele>
        <time>2011-04-21T21:46:13Z</time>
      </trkpt>
      <trkpt lat="45.74114" lon="5.90523">
        <ele>708.2</ele>
        <time>2011-04-21T21:46:13Z</time>
      </trkpt>
      <trkpt lat="45.74116" lon="5.90523">
        <ele>708.1</ele>
        <time>2011-04-21T21:46:13Z</time>
      </trkpt>
      <trkpt lat="45.74149" lon="5.90464">
        <ele>708.1</ele>
        <time>2011-04-21T21:46:13Z</time>
      </trkpt>
      <trkpt lat="45.74174" lon="5.90408">
        <ele>713.1</ele>
        <time>2011-04-21T21:46:13Z</time>
      </trkpt>
      <trkpt lat="45.74205" lon="5.90349">
        <ele>715.1</ele>
        <time>2011-04-21T21:46:13Z</time>
      </trkpt>
      <trkpt lat="45.7424" lon="5.90299">
        <ele>710.3</ele>
        <time>2011-04-21T21:46:13Z</time>
      </trkpt>
      <trkpt lat="45.74295" lon="5.90261">
        <ele>708.4</ele>
        <time>2011-04-21T21:46:13Z</time>
      </trkpt>
      <trkpt lat="45.743" lon="5.90262">
        <ele>708.7</ele>
        <time>2011-04-21T21:46:13Z</time>
      </trkpt>
      <trkpt lat="45.74347" lon="5.90265">
        <ele>707.9</ele>
        <time>2011-04-21T21:46:13Z</time>
      </trkpt>
      <trkpt lat="45.74383" lon="5.90261">
        <ele>711</ele>
        <time>2011-04-21T21:46:13Z</time>
      </trkpt>
      <trkpt lat="45.74413" lon="5.9025">
        <ele>714.2</ele>
        <time>2011-04-21T21:46:13Z</time>
      </trkpt>
      <trkpt lat="45.7444" lon="5.90309">
        <ele>728.9</ele>
        <time>2011-04-21T21:46:13Z</time>
      </trkpt>
      <trkpt lat="45.74461" lon="5.90352">
        <ele>749.6</ele>
        <time>2011-04-21T21:46:13Z</time>
      </trkpt>
      <trkpt lat="45.74461" lon="5.90356">
        <ele>750.3</ele>
        <time>2011-04-21T21:46:13Z</time>
      </trkpt>
      <trkpt lat="45.74461" lon="5.90362">
        <ele>751.8</ele>
        <time>2011-04-21T21:46:13Z</time>
      </trkpt>
      <trkpt lat="45.74464" lon="5.90401">
        <ele>763.2</ele>
        <time>2011-04-21T21:46:13Z</time>
      </trkpt>
      <trkpt lat="45.74464" lon="5.90407">
        <ele>764.7</ele>
        <time>2011-04-21T21:46:13Z</time>
      </trkpt>
      <trkpt lat="45.74466" lon="5.90407">
        <ele>766.1</ele>
        <time>2011-04-21T21:46:13Z</time>
      </trkpt>
      <trkpt lat="45.74466" lon="5.90411">
        <ele>766.9</ele>
        <time>2011-04-21T21:46:13Z</time>
      </trkpt>
      <trkpt lat="45.74466" lon="5.90414">
        <ele>767.6</ele>
        <time>2011-04-21T21:46:13Z</time>
      </trkpt>
      <trkpt lat="45.74468" lon="5.9042">
        <ele>770.3</ele>
        <time>2011-04-21T21:46:13Z</time>
      </trkpt>
      <trkpt lat="45.74468" lon="5.90424">
        <ele>770.9</ele>
        <time>2011-04-21T21:46:13Z</time>
      </trkpt>
      <trkpt lat="45.74468" lon="5.9043">
        <ele>772</ele>
        <time>2011-04-21T21:46:13Z</time>
      </trkpt>
      <trkpt lat="45.7447" lon="5.9043">
        <ele>773.3</ele>
        <time>2011-04-21T21:46:13Z</time>
      </trkpt>
      <trkpt lat="45.7447" lon="5.90433">
        <ele>773.8</ele>
        <time>2011-04-21T21:46:13Z</time>
      </trkpt>
      <trkpt lat="45.7447" lon="5.90437">
        <ele>774.4</ele>
        <time>2011-04-21T21:46:13Z</time>
      </trkpt>
      <trkpt lat="45.7447" lon="5.9044">
        <ele>774.9</ele>
        <time>2011-04-21T21:46:13Z</time>
      </trkpt>
      <trkpt lat="45.7447" lon="5.90443">
        <ele>775.5</ele>
        <time>2011-04-21T21:46:13Z</time>
      </trkpt>
      <trkpt lat="45.7447" lon="5.90446">
        <ele>775.9</ele>
        <time>2011-04-21T21:46:13Z</time>
      </trkpt>
      <trkpt lat="45.7447" lon="5.90449">
        <ele>776.3</ele>
        <time>2011-04-21T21:46:13Z</time>
      </trkpt>
      <trkpt lat="45.74482" lon="5.90482">
        <ele>784.4</ele>
        <time>2011-04-21T21:46:13Z</time>
      </trkpt>
      <trkpt lat="45.74486" lon="5.90486">
        <ele>786.1</ele>
        <time>2011-04-21T21:46:13Z</time>
      </trkpt>
      <trkpt lat="45.74491" lon="5.90489">
        <ele>787.8</ele>
        <time>2011-04-21T21:46:13Z</time>
      </trkpt>
      <trkpt lat="45.74508" lon="5.90513">
        <ele>791.2</ele>
        <time>2011-04-21T21:46:13Z</time>
      </trkpt>
      <trkpt lat="45.74532" lon="5.90553">
        <ele>792.4</ele>
        <time>2011-04-21T21:46:13Z</time>
      </trkpt>
      <trkpt lat="45.7456" lon="5.90577">
        <ele>800.8</ele>
        <time>2011-04-21T21:46:13Z</time>
      </trkpt>
      <trkpt lat="45.74559" lon="5.90526">
        <ele>807.6</ele>
        <time>2011-04-21T21:46:13Z</time>
      </trkpt>
      <trkpt lat="45.74568" lon="5.90485">
        <ele>819.4</ele>
        <time>2011-04-21T21:46:13Z</time>
      </trkpt>
      <trkpt lat="45.74587" lon="5.90435">
        <ele>840.7</ele>
        <time>2011-04-21T21:46:13Z</time>
      </trkpt>
      <trkpt lat="45.74609" lon="5.90384">
        <ele>844.9</ele>
        <time>2011-04-21T21:46:13Z</time>
      </trkpt>
      <trkpt lat="45.74649" lon="5.90329">
        <ele>837.6</ele>
        <time>2011-04-21T21:46:13Z</time>
      </trkpt>
      <trkpt lat="45.74682" lon="5.9027">
        <ele>835.6</ele>
        <time>2011-04-21T21:46:13Z</time>
      </trkpt>
      <trkpt lat="45.74702" lon="5.9021">
        <ele>841.6</ele>
        <time>2011-04-21T21:46:13Z</time>
      </trkpt>
      <trkpt lat="45.74702" lon="5.90207">
        <ele>842.2</ele>
        <time>2011-04-21T21:46:13Z</time>
      </trkpt>
      <trkpt lat="45.74721" lon="5.90131">
        <ele>846</ele>
        <time>2011-04-21T21:46:13Z</time>
      </trkpt>
      <trkpt lat="45.74721" lon="5.90128">
        <ele>846.2</ele>
        <time>2011-04-21T21:46:13Z</time>
      </trkpt>
      <trkpt lat="45.74741" lon="5.90065">
        <ele>844.1</ele>
        <time>2011-04-21T21:46:13Z</time>
      </trkpt>
      <trkpt lat="45.74743" lon="5.90065">
        <ele>844.4</ele>
        <time>2011-04-21T21:46:13Z</time>
      </trkpt>
      <trkpt lat="45.74769" lon="5.90022">
        <ele>843.5</ele>
        <time>2011-04-21T21:46:13Z</time>
      </trkpt>
      <trkpt lat="45.74769" lon="5.90019">
        <ele>844</ele>
        <time>2011-04-21T21:46:13Z</time>
      </trkpt>
      <trkpt lat="45.74789" lon="5.89972">
        <ele>844.7</ele>
        <time>2011-04-21T21:46:13Z</time>
      </trkpt>
      <trkpt lat="45.74789" lon="5.89968">
        <ele>844.4</ele>
        <time>2011-04-21T21:46:13Z</time>
      </trkpt>
      <trkpt lat="45.74791" lon="5.89965">
        <ele>843.2</ele>
        <time>2011-04-21T21:46:13Z</time>
      </trkpt>
      <trkpt lat="45.74824" lon="5.89916">
        <ele>834.9</ele>
        <time>2011-04-21T21:46:13Z</time>
      </trkpt>
      <trkpt lat="45.74852" lon="5.89879">
        <ele>828.9</ele>
        <time>2011-04-21T21:46:13Z</time>
      </trkpt>
      <trkpt lat="45.74872" lon="5.89829">
        <ele>833.3</ele>
        <time>2011-04-21T21:46:13Z</time>
      </trkpt>
      <trkpt lat="45.74874" lon="5.89829">
        <ele>832.9</ele>
        <time>2011-04-21T21:46:13Z</time>
      </trkpt>
      <trkpt lat="45.74896" lon="5.89779">
        <ele>834</ele>
        <time>2011-04-21T21:46:13Z</time>
      </trkpt>
      <trkpt lat="45.74898" lon="5.89779">
        <ele>833.5</ele>
        <time>2011-04-21T21:46:13Z</time>
      </trkpt>
      <trkpt lat="45.74954" lon="5.89744">
        <ele>832.7</ele>
        <time>2011-04-21T21:46:13Z</time>
      </trkpt>
      <trkpt lat="45.74995" lon="5.89705">
        <ele>837</ele>
        <time>2011-04-21T21:46:13Z</time>
      </trkpt>
      <trkpt lat="45.75028" lon="5.89669">
        <ele>831.1</ele>
        <time>2011-04-21T21:46:13Z</time>
      </trkpt>
      <trkpt lat="45.7503" lon="5.89669">
        <ele>831.1</ele>
        <time>2011-04-21T21:46:13Z</time>
      </trkpt>
      <trkpt lat="45.75032" lon="5.89669">
        <ele>831</ele>
        <time>2011-04-21T21:46:13Z</time>
      </trkpt>
      <trkpt lat="45.75055" lon="5.8967">
        <ele>830</ele>
        <time>2011-04-21T21:46:13Z</time>
      </trkpt>
      <trkpt lat="45.75057" lon="5.89671">
        <ele>830.3</ele>
        <time>2011-04-21T21:46:13Z</time>
      </trkpt>
      <trkpt lat="45.75059" lon="5.89671">
        <ele>830.6</ele>
        <time>2011-04-21T21:46:13Z</time>
      </trkpt>
      <trkpt lat="45.75062" lon="5.89674">
        <ele>831</ele>
        <time>2011-04-21T21:46:13Z</time>
      </trkpt>
      <trkpt lat="45.75064" lon="5.89674">
        <ele>831.4</ele>
        <time>2011-04-21T21:46:13Z</time>
      </trkpt>
      <trkpt lat="45.75066" lon="5.89674">
        <ele>831.8</ele>
        <time>2011-04-21T21:46:13Z</time>
      </trkpt>
      <trkpt lat="45.75071" lon="5.89675">
        <ele>832.6</ele>
        <time>2011-04-21T21:46:13Z</time>
      </trkpt>
      <trkpt lat="45.75073" lon="5.89675">
        <ele>833</ele>
        <time>2011-04-21T21:46:13Z</time>
      </trkpt>
      <trkpt lat="45.75077" lon="5.89678">
        <ele>834.1</ele>
        <time>2011-04-21T21:46:13Z</time>
      </trkpt>
      <trkpt lat="45.75079" lon="5.89679">
        <ele>834.5</ele>
        <time>2011-04-21T21:46:13Z</time>
      </trkpt>
      <trkpt lat="45.75107" lon="5.89658">
        <ele>838.1</ele>
        <time>2011-04-21T21:46:13Z</time>
      </trkpt>
      <trkpt lat="45.75109" lon="5.89655">
        <ele>838.3</ele>
        <time>2011-04-21T21:46:13Z</time>
      </trkpt>
      <trkpt lat="45.75135" lon="5.89624">
        <ele>836.7</ele>
        <time>2011-04-21T21:46:13Z</time>
      </trkpt>
      <trkpt lat="45.75135" lon="5.89621">
        <ele>836.7</ele>
        <time>2011-04-21T21:46:13Z</time>
      </trkpt>
      <trkpt lat="45.75138" lon="5.89618">
        <ele>836.8</ele>
        <time>2011-04-21T21:46:13Z</time>
      </trkpt>
      <trkpt lat="45.7514" lon="5.89615">
        <ele>836.6</ele>
        <time>2011-04-21T21:46:13Z</time>
      </trkpt>
      <trkpt lat="45.75164" lon="5.89565">
        <ele>832.7</ele>
        <time>2011-04-21T21:46:13Z</time>
      </trkpt>
      <trkpt lat="45.75164" lon="5.89562">
        <ele>832.9</ele>
        <time>2011-04-21T21:46:13Z</time>
      </trkpt>
      <trkpt lat="45.75167" lon="5.89559">
        <ele>832.8</ele>
        <time>2011-04-21T21:46:13Z</time>
      </trkpt>
      <trkpt lat="45.75169" lon="5.89559">
        <ele>832.2</ele>
        <time>2011-04-21T21:46:13Z</time>
      </trkpt>
      <trkpt lat="45.75169" lon="5.89556">
        <ele>832.4</ele>
        <time>2011-04-21T21:46:13Z</time>
      </trkpt>
      <trkpt lat="45.75193" lon="5.89519">
        <ele>830.3</ele>
        <time>2011-04-21T21:46:13Z</time>
      </trkpt>
      <trkpt lat="45.75225" lon="5.89501">
        <ele>824.1</ele>
        <time>2011-04-21T21:46:13Z</time>
      </trkpt>
      <trkpt lat="45.75227" lon="5.89502">
        <ele>823.5</ele>
        <time>2011-04-21T21:46:13Z</time>
      </trkpt>
      <trkpt lat="45.75229" lon="5.89502">
        <ele>822.8</ele>
        <time>2011-04-21T21:46:13Z</time>
      </trkpt>
      <trkpt lat="45.75256" lon="5.89494">
        <ele>816.1</ele>
        <time>2011-04-21T21:46:13Z</time>
      </trkpt>
      <trkpt lat="45.75257" lon="5.89491">
        <ele>816.1</ele>
        <time>2011-04-21T21:46:13Z</time>
      </trkpt>
      <trkpt lat="45.75284" lon="5.89467">
        <ele>813.8</ele>
        <time>2011-04-21T21:46:13Z</time>
      </trkpt>
      <trkpt lat="45.75287" lon="5.89464">
        <ele>813.8</ele>
        <time>2011-04-21T21:46:13Z</time>
      </trkpt>
      <trkpt lat="45.75289" lon="5.89461">
        <ele>813.7</ele>
        <time>2011-04-21T21:46:13Z</time>
      </trkpt>
      <trkpt lat="45.75291" lon="5.89457">
        <ele>813.6</ele>
        <time>2011-04-21T21:46:13Z</time>
      </trkpt>
      <trkpt lat="45.75294" lon="5.89454">
        <ele>813.5</ele>
        <time>2011-04-21T21:46:13Z</time>
      </trkpt>
      <trkpt lat="45.75296" lon="5.89451">
        <ele>813.3</ele>
        <time>2011-04-21T21:46:13Z</time>
      </trkpt>
      <trkpt lat="45.75298" lon="5.89448">
        <ele>813.1</ele>
        <time>2011-04-21T21:46:13Z</time>
      </trkpt>
      <trkpt lat="45.75299" lon="5.89445">
        <ele>813.2</ele>
        <time>2011-04-21T21:46:13Z</time>
      </trkpt>
      <trkpt lat="45.75301" lon="5.89445">
        <ele>812.8</ele>
        <time>2011-04-21T21:46:13Z</time>
      </trkpt>
      <trkpt lat="45.75303" lon="5.89439">
        <ele>813.3</ele>
        <time>2011-04-21T21:46:13Z</time>
      </trkpt>
      <trkpt lat="45.75305" lon="5.89439">
        <ele>813</ele>
        <time>2011-04-21T21:46:13Z</time>
      </trkpt>
      <trkpt lat="45.75308" lon="5.89436">
        <ele>813.4</ele>
        <time>2011-04-21T21:46:13Z</time>
      </trkpt>
      <trkpt lat="45.7531" lon="5.89436">
        <ele>813.3</ele>
        <time>2011-04-21T21:46:13Z</time>
      </trkpt>
      <trkpt lat="45.75315" lon="5.89433">
        <ele>813.7</ele>
        <time>2011-04-21T21:46:13Z</time>
      </trkpt>
      <trkpt lat="45.75317" lon="5.8943">
        <ele>814.2</ele>
        <time>2011-04-21T21:46:13Z</time>
      </trkpt>
      <trkpt lat="45.75319" lon="5.8943">
        <ele>814.1</ele>
        <time>2011-04-21T21:46:13Z</time>
      </trkpt>
      <trkpt lat="45.75322" lon="5.89427">
        <ele>814.5</ele>
        <time>2011-04-21T21:46:13Z</time>
      </trkpt>
      <trkpt lat="45.75324" lon="5.89424">
        <ele>815</ele>
        <time>2011-04-21T21:46:13Z</time>
      </trkpt>
      <trkpt lat="45.75324" lon="5.89421">
        <ele>815.6</ele>
        <time>2011-04-21T21:46:13Z</time>
      </trkpt>
      <trkpt lat="45.75326" lon="5.89421">
        <ele>815.5</ele>
        <time>2011-04-21T21:46:13Z</time>
      </trkpt>
      <trkpt lat="45.75326" lon="5.89418">
        <ele>816</ele>
        <time>2011-04-21T21:46:13Z</time>
      </trkpt>
      <trkpt lat="45.75377" lon="5.89376">
        <ele>806.1</ele>
        <time>2011-04-21T21:46:13Z</time>
      </trkpt>
      <trkpt lat="45.75419" lon="5.89331">
        <ele>798.8</ele>
        <time>2011-04-21T21:46:13Z</time>
      </trkpt>
      <trkpt lat="45.75461" lon="5.89282">
        <ele>787.3</ele>
        <time>2011-04-21T21:46:13Z</time>
      </trkpt>
      <trkpt lat="45.75489" lon="5.89245">
        <ele>783.5</ele>
        <time>2011-04-21T21:46:13Z</time>
      </trkpt>
      <trkpt lat="45.75496" lon="5.89239">
        <ele>783.8</ele>
        <time>2011-04-21T21:46:13Z</time>
      </trkpt>
      <trkpt lat="45.7552" lon="5.89208">
        <ele>787.1</ele>
        <time>2011-04-21T21:46:13Z</time>
      </trkpt>
      <trkpt lat="45.75543" lon="5.89181">
        <ele>782</ele>
        <time>2011-04-21T21:46:13Z</time>
      </trkpt>
      <trkpt lat="45.75573" lon="5.89173">
        <ele>767.6</ele>
        <time>2011-04-21T21:46:13Z</time>
      </trkpt>
      <trkpt lat="45.75575" lon="5.89173">
        <ele>766</ele>
        <time>2011-04-21T21:46:13Z</time>
      </trkpt>
      <trkpt lat="45.756" lon="5.89175">
        <ele>760.2</ele>
        <time>2011-04-21T21:46:13Z</time>
      </trkpt>
      <trkpt lat="45.75634" lon="5.89168">
        <ele>763.3</ele>
        <time>2011-04-21T21:46:13Z</time>
      </trkpt>
      <trkpt lat="45.75636" lon="5.89168">
        <ele>763.6</ele>
        <time>2011-04-21T21:46:13Z</time>
      </trkpt>
      <trkpt lat="45.75638" lon="5.89168">
        <ele>764</ele>
        <time>2011-04-21T21:46:13Z</time>
      </trkpt>
      <trkpt lat="45.75641" lon="5.89168">
        <ele>764.7</ele>
        <time>2011-04-21T21:46:13Z</time>
      </trkpt>
      <trkpt lat="45.75657" lon="5.89156">
        <ele>771.1</ele>
        <time>2011-04-21T21:46:13Z</time>
      </trkpt>
      <trkpt lat="45.75683" lon="5.89113">
        <ele>775.6</ele>
        <time>2011-04-21T21:46:13Z</time>
      </trkpt>
      <trkpt lat="45.75714" lon="5.89067">
        <ele>784.6</ele>
        <time>2011-04-21T21:46:13Z</time>
      </trkpt>
      <trkpt lat="45.75755" lon="5.89024">
        <ele>797.3</ele>
        <time>2011-04-21T21:46:13Z</time>
      </trkpt>
      <trkpt lat="45.75802" lon="5.88985">
        <ele>800.3</ele>
        <time>2011-04-21T21:46:13Z</time>
      </trkpt>
      <trkpt lat="45.75852" lon="5.88953">
        <ele>794.9</ele>
        <time>2011-04-21T21:46:13Z</time>
      </trkpt>
      <trkpt lat="45.75898" lon="5.88927">
        <ele>792.6</ele>
        <time>2011-04-21T21:46:13Z</time>
      </trkpt>
      <trkpt lat="45.75932" lon="5.88907">
        <ele>799.1</ele>
        <time>2011-04-21T21:46:13Z</time>
      </trkpt>
      <trkpt lat="45.75954" lon="5.88876">
        <ele>801.3</ele>
        <time>2011-04-21T21:46:13Z</time>
      </trkpt>
      <trkpt lat="45.76063" lon="5.88845">
        <ele>801</ele>
        <time>2011-04-21T21:46:13Z</time>
      </trkpt>
      <trkpt lat="45.76117" lon="5.88845">
        <ele>805.2</ele>
        <time>2011-04-21T21:46:13Z</time>
      </trkpt>
      <trkpt lat="45.76187" lon="5.88766">
        <ele>817</ele>
        <time>2011-04-21T21:46:13Z</time>
      </trkpt>
      <trkpt lat="45.76244" lon="5.88728">
        <ele>827.1</ele>
        <time>2011-04-21T21:46:13Z</time>
      </trkpt>
      <trkpt lat="45.76284" lon="5.88689">
        <ele>823</ele>
        <time>2011-04-21T21:46:13Z</time>
      </trkpt>
      <trkpt lat="45.76284" lon="5.88685">
        <ele>823.3</ele>
        <time>2011-04-21T21:46:13Z</time>
      </trkpt>
      <trkpt lat="45.76286" lon="5.88682">
        <ele>823.4</ele>
        <time>2011-04-21T21:46:13Z</time>
      </trkpt>
      <trkpt lat="45.76289" lon="5.88682">
        <ele>823.1</ele>
        <time>2011-04-21T21:46:13Z</time>
      </trkpt>
      <trkpt lat="45.76322" lon="5.88614">
        <ele>816.6</ele>
        <time>2011-04-21T21:46:13Z</time>
      </trkpt>
      <trkpt lat="45.76343" lon="5.88596">
        <ele>809.5</ele>
        <time>2011-04-21T21:46:13Z</time>
      </trkpt>
      <trkpt lat="45.76345" lon="5.88593">
        <ele>808.9</ele>
        <time>2011-04-21T21:46:13Z</time>
      </trkpt>
      <trkpt lat="45.76346" lon="5.8859">
        <ele>806.7</ele>
        <time>2011-04-21T21:46:13Z</time>
      </trkpt>
      <trkpt lat="45.76384" lon="5.88573">
        <ele>818.4</ele>
        <time>2011-04-21T21:46:13Z</time>
      </trkpt>
      <trkpt lat="45.7645" lon="5.88545">
        <ele>812.9</ele>
        <time>2011-04-21T21:46:13Z</time>
      </trkpt>
      <trkpt lat="45.76523" lon="5.88533">
        <ele>808.2</ele>
        <time>2011-04-21T21:46:13Z</time>
      </trkpt>
      <trkpt lat="45.76589" lon="5.88506">
        <ele>792.3</ele>
        <time>2011-04-21T21:46:13Z</time>
      </trkpt>
      <trkpt lat="45.76634" lon="5.88496">
        <ele>780.9</ele>
        <time>2011-04-21T21:46:13Z</time>
      </trkpt>
      <trkpt lat="45.76684" lon="5.88486">
        <ele>778.4</ele>
        <time>2011-04-21T21:46:13Z</time>
      </trkpt>
      <trkpt lat="45.76714" lon="5.88485">
        <ele>779.8</ele>
        <time>2011-04-21T21:46:13Z</time>
      </trkpt>
      <trkpt lat="45.76721" lon="5.88466">
        <ele>781.8</ele>
        <time>2011-04-21T21:46:13Z</time>
      </trkpt>
      <trkpt lat="45.76706" lon="5.88433">
        <ele>778.9</ele>
        <time>2011-04-21T21:46:13Z</time>
      </trkpt>
      <trkpt lat="45.76708" lon="5.88381">
        <ele>776.9</ele>
        <time>2011-04-21T21:46:13Z</time>
      </trkpt>
      <trkpt lat="45.76708" lon="5.88378">
        <ele>776.7</ele>
        <time>2011-04-21T21:46:13Z</time>
      </trkpt>
      <trkpt lat="45.76716" lon="5.88327">
        <ele>776.6</ele>
        <time>2011-04-21T21:46:13Z</time>
      </trkpt>
      <trkpt lat="45.76717" lon="5.88295">
        <ele>774</ele>
        <time>2011-04-21T21:46:13Z</time>
      </trkpt>
      <trkpt lat="45.76668" lon="5.88289">
        <ele>760.3</ele>
        <time>2011-04-21T21:46:13Z</time>
      </trkpt>
      <trkpt lat="45.76668" lon="5.88282">
        <ele>759.2</ele>
        <time>2011-04-21T21:46:13Z</time>
      </trkpt>
      <trkpt lat="45.76668" lon="5.88279">
        <ele>758.6</ele>
        <time>2011-04-21T21:46:13Z</time>
      </trkpt>
      <trkpt lat="45.76668" lon="5.88276">
        <ele>758</ele>
        <time>2011-04-21T21:46:13Z</time>
      </trkpt>
      <trkpt lat="45.76668" lon="5.88273">
        <ele>757.4</ele>
        <time>2011-04-21T21:46:13Z</time>
      </trkpt>
      <trkpt lat="45.76669" lon="5.88266">
        <ele>756.1</ele>
        <time>2011-04-21T21:46:13Z</time>
      </trkpt>
      <trkpt lat="45.76669" lon="5.88263">
        <ele>755.5</ele>
        <time>2011-04-21T21:46:13Z</time>
      </trkpt>
      <trkpt lat="45.76667" lon="5.8826">
        <ele>754.1</ele>
        <time>2011-04-21T21:46:13Z</time>
      </trkpt>
      <trkpt lat="45.76667" lon="5.88253">
        <ele>752.8</ele>
        <time>2011-04-21T21:46:13Z</time>
      </trkpt>
      <trkpt lat="45.76667" lon="5.88244">
        <ele>750.6</ele>
        <time>2011-04-21T21:46:13Z</time>
      </trkpt>
      <trkpt lat="45.76665" lon="5.88234">
        <ele>747.7</ele>
        <time>2011-04-21T21:46:13Z</time>
      </trkpt>
      <trkpt lat="45.76663" lon="5.88227">
        <ele>745.7</ele>
        <time>2011-04-21T21:46:13Z</time>
      </trkpt>
      <trkpt lat="45.76661" lon="5.88217">
        <ele>742.7</ele>
        <time>2011-04-21T21:46:13Z</time>
      </trkpt>
      <trkpt lat="45.76659" lon="5.88208">
        <ele>739.6</ele>
        <time>2011-04-21T21:46:13Z</time>
      </trkpt>
      <trkpt lat="45.76655" lon="5.88201">
        <ele>737.1</ele>
        <time>2011-04-21T21:46:13Z</time>
      </trkpt>
      <trkpt lat="45.76655" lon="5.88198">
        <ele>736.2</ele>
        <time>2011-04-21T21:46:13Z</time>
      </trkpt>
      <trkpt lat="45.76655" lon="5.88195">
        <ele>735.4</ele>
        <time>2011-04-21T21:46:13Z</time>
      </trkpt>
      <trkpt lat="45.76655" lon="5.88191">
        <ele>734.2</ele>
        <time>2011-04-21T21:46:13Z</time>
      </trkpt>
      <trkpt lat="45.76655" lon="5.88185">
        <ele>731.8</ele>
        <time>2011-04-21T21:46:13Z</time>
      </trkpt>
      <trkpt lat="45.76656" lon="5.88182">
        <ele>730.6</ele>
        <time>2011-04-21T21:46:13Z</time>
      </trkpt>
      <trkpt lat="45.76656" lon="5.88175">
        <ele>728.2</ele>
        <time>2011-04-21T21:46:13Z</time>
      </trkpt>
      <trkpt lat="45.76654" lon="5.88172">
        <ele>726.3</ele>
        <time>2011-04-21T21:46:13Z</time>
      </trkpt>
      <trkpt lat="45.76654" lon="5.88169">
        <ele>725.1</ele>
        <time>2011-04-21T21:46:13Z</time>
      </trkpt>
      <trkpt lat="45.76654" lon="5.88166">
        <ele>723.9</ele>
        <time>2011-04-21T21:46:13Z</time>
      </trkpt>
      <trkpt lat="45.76654" lon="5.88162">
        <ele>722.9</ele>
        <time>2011-04-21T21:46:13Z</time>
      </trkpt>
      <trkpt lat="45.76654" lon="5.88159">
        <ele>721.8</ele>
        <time>2011-04-21T21:46:13Z</time>
      </trkpt>
      <trkpt lat="45.76654" lon="5.88156">
        <ele>720.8</ele>
        <time>2011-04-21T21:46:13Z</time>
      </trkpt>
      <trkpt lat="45.76654" lon="5.88153">
        <ele>719.7</ele>
        <time>2011-04-21T21:46:13Z</time>
      </trkpt>
      <trkpt lat="45.76654" lon="5.88149">
        <ele>718.7</ele>
        <time>2011-04-21T21:46:13Z</time>
      </trkpt>
      <trkpt lat="45.76654" lon="5.88146">
        <ele>717.6</ele>
        <time>2011-04-21T21:46:13Z</time>
      </trkpt>
      <trkpt lat="45.76655" lon="5.88143">
        <ele>716.6</ele>
        <time>2011-04-21T21:46:13Z</time>
      </trkpt>
      <trkpt lat="45.76655" lon="5.8814">
        <ele>715.6</ele>
        <time>2011-04-21T21:46:13Z</time>
      </trkpt>
      <trkpt lat="45.76653" lon="5.88133">
        <ele>712.6</ele>
        <time>2011-04-21T21:46:13Z</time>
      </trkpt>
      <trkpt lat="45.76653" lon="5.8813">
        <ele>711.6</ele>
        <time>2011-04-21T21:46:13Z</time>
      </trkpt>
      <trkpt lat="45.76653" lon="5.88127">
        <ele>710.6</ele>
        <time>2011-04-21T21:46:13Z</time>
      </trkpt>
      <trkpt lat="45.76653" lon="5.88124">
        <ele>709.6</ele>
        <time>2011-04-21T21:46:13Z</time>
      </trkpt>
      <trkpt lat="45.76651" lon="5.88124">
        <ele>708.6</ele>
        <time>2011-04-21T21:46:13Z</time>
      </trkpt>
      <trkpt lat="45.76648" lon="5.88123">
        <ele>707.6</ele>
        <time>2011-04-21T21:46:13Z</time>
      </trkpt>
      <trkpt lat="45.76646" lon="5.88123">
        <ele>706.5</ele>
        <time>2011-04-21T21:46:13Z</time>
      </trkpt>
      <trkpt lat="45.76644" lon="5.88123">
        <ele>705.5</ele>
        <time>2011-04-21T21:46:13Z</time>
      </trkpt>
      <trkpt lat="45.76642" lon="5.88123">
        <ele>704.5</ele>
        <time>2011-04-21T21:46:13Z</time>
      </trkpt>
      <trkpt lat="45.76639" lon="5.88123">
        <ele>703.4</ele>
        <time>2011-04-21T21:46:13Z</time>
      </trkpt>
      <trkpt lat="45.76637" lon="5.88123">
        <ele>702.6</ele>
        <time>2011-04-21T21:46:13Z</time>
      </trkpt>
      <trkpt lat="45.76635" lon="5.88122">
        <ele>701.8</ele>
        <time>2011-04-21T21:46:13Z</time>
      </trkpt>
      <trkpt lat="45.76633" lon="5.88122">
        <ele>700.9</ele>
        <time>2011-04-21T21:46:13Z</time>
      </trkpt>
      <trkpt lat="45.7663" lon="5.88122">
        <ele>700.1</ele>
        <time>2011-04-21T21:46:13Z</time>
      </trkpt>
      <trkpt lat="45.76628" lon="5.88122">
        <ele>699.3</ele>
        <time>2011-04-21T21:46:13Z</time>
      </trkpt>
      <trkpt lat="45.76626" lon="5.88122">
        <ele>698.5</ele>
        <time>2011-04-21T21:46:13Z</time>
      </trkpt>
      <trkpt lat="45.76624" lon="5.88122">
        <ele>697.7</ele>
        <time>2011-04-21T21:46:13Z</time>
      </trkpt>
      <trkpt lat="45.76621" lon="5.88122">
        <ele>696.9</ele>
        <time>2011-04-21T21:46:13Z</time>
      </trkpt>
      <trkpt lat="45.76619" lon="5.88121">
        <ele>696.1</ele>
        <time>2011-04-21T21:46:13Z</time>
      </trkpt>
      <trkpt lat="45.76617" lon="5.88121">
        <ele>695.3</ele>
        <time>2011-04-21T21:46:13Z</time>
      </trkpt>
      <trkpt lat="45.76612" lon="5.88121">
        <ele>693.7</ele>
        <time>2011-04-21T21:46:13Z</time>
      </trkpt>
      <trkpt lat="45.7661" lon="5.88121">
        <ele>693</ele>
        <time>2011-04-21T21:46:13Z</time>
      </trkpt>
      <trkpt lat="45.76608" lon="5.88121">
        <ele>692.7</ele>
        <time>2011-04-21T21:46:13Z</time>
      </trkpt>
      <trkpt lat="45.76606" lon="5.88121">
        <ele>692.3</ele>
        <time>2011-04-21T21:46:13Z</time>
      </trkpt>
      <trkpt lat="45.76603" lon="5.8812">
        <ele>691.9</ele>
        <time>2011-04-21T21:46:13Z</time>
      </trkpt>
      <trkpt lat="45.76604" lon="5.88117">
        <ele>690.9</ele>
        <time>2011-04-21T21:46:13Z</time>
      </trkpt>
      <trkpt lat="45.76601" lon="5.88114">
        <ele>689.5</ele>
        <time>2011-04-21T21:46:13Z</time>
      </trkpt>
      <trkpt lat="45.76602" lon="5.88111">
        <ele>688.5</ele>
        <time>2011-04-21T21:46:13Z</time>
      </trkpt>
      <trkpt lat="45.76599" lon="5.88111">
        <ele>688.1</ele>
        <time>2011-04-21T21:46:13Z</time>
      </trkpt>
      <trkpt lat="45.76599" lon="5.88107">
        <ele>687.2</ele>
        <time>2011-04-21T21:46:13Z</time>
      </trkpt>
      <trkpt lat="45.76597" lon="5.88104">
        <ele>685.9</ele>
        <time>2011-04-21T21:46:13Z</time>
      </trkpt>
      <trkpt lat="45.76595" lon="5.88101">
        <ele>684.7</ele>
        <time>2011-04-21T21:46:13Z</time>
      </trkpt>
      <trkpt lat="45.76593" lon="5.881">
        <ele>684.3</ele>
        <time>2011-04-21T21:46:13Z</time>
      </trkpt>
      <trkpt lat="45.76588" lon="5.881">
        <ele>683.6</ele>
        <time>2011-04-21T21:46:13Z</time>
      </trkpt>
      <trkpt lat="45.76586" lon="5.88097">
        <ele>682.3</ele>
        <time>2011-04-21T21:46:13Z</time>
      </trkpt>
      <trkpt lat="45.76586" lon="5.88094">
        <ele>681.4</ele>
        <time>2011-04-21T21:46:13Z</time>
      </trkpt>
      <trkpt lat="45.76584" lon="5.88093">
        <ele>681</ele>
        <time>2011-04-21T21:46:13Z</time>
      </trkpt>
      <trkpt lat="45.76582" lon="5.88093">
        <ele>680.7</ele>
        <time>2011-04-21T21:46:13Z</time>
      </trkpt>
      <trkpt lat="45.7658" lon="5.8809">
        <ele>679.6</ele>
        <time>2011-04-21T21:46:13Z</time>
      </trkpt>
      <trkpt lat="45.76578" lon="5.88087">
        <ele>678.5</ele>
        <time>2011-04-21T21:46:13Z</time>
      </trkpt>
      <trkpt lat="45.76575" lon="5.88086">
        <ele>678.3</ele>
        <time>2011-04-21T21:46:13Z</time>
      </trkpt>
      <trkpt lat="45.76571" lon="5.88083">
        <ele>677.1</ele>
        <time>2011-04-21T21:46:13Z</time>
      </trkpt>
      <trkpt lat="45.76569" lon="5.8808">
        <ele>676.6</ele>
        <time>2011-04-21T21:46:13Z</time>
      </trkpt>
      <trkpt lat="45.76567" lon="5.88079">
        <ele>676.5</ele>
        <time>2011-04-21T21:46:13Z</time>
      </trkpt>
      <trkpt lat="45.76564" lon="5.88079">
        <ele>676.3</ele>
        <time>2011-04-21T21:46:13Z</time>
      </trkpt>
      <trkpt lat="45.76562" lon="5.88079">
        <ele>676.2</ele>
        <time>2011-04-21T21:46:13Z</time>
      </trkpt>
      <trkpt lat="45.7656" lon="5.88076">
        <ele>675.9</ele>
        <time>2011-04-21T21:46:13Z</time>
      </trkpt>
      <trkpt lat="45.76558" lon="5.88076">
        <ele>675.8</ele>
        <time>2011-04-21T21:46:13Z</time>
      </trkpt>
      <trkpt lat="45.76555" lon="5.88076">
        <ele>675.7</ele>
        <time>2011-04-21T21:46:13Z</time>
      </trkpt>
      <trkpt lat="45.76555" lon="5.88072">
        <ele>675.6</ele>
        <time>2011-04-21T21:46:13Z</time>
      </trkpt>
      <trkpt lat="45.76553" lon="5.88072">
        <ele>675.4</ele>
        <time>2011-04-21T21:46:13Z</time>
      </trkpt>
      <trkpt lat="45.76553" lon="5.88069">
        <ele>675.4</ele>
        <time>2011-04-21T21:46:13Z</time>
      </trkpt>
      <trkpt lat="45.76551" lon="5.88069">
        <ele>675.2</ele>
        <time>2011-04-21T21:46:13Z</time>
      </trkpt>
      <trkpt lat="45.76549" lon="5.88069">
        <ele>675.1</ele>
        <time>2011-04-21T21:46:13Z</time>
      </trkpt>
      <trkpt lat="45.76547" lon="5.88069">
        <ele>675</ele>
        <time>2011-04-21T21:46:13Z</time>
      </trkpt>
      <trkpt lat="45.76544" lon="5.88068">
        <ele>674.9</ele>
        <time>2011-04-21T21:46:13Z</time>
      </trkpt>
      <trkpt lat="45.76542" lon="5.88068">
        <ele>674.8</ele>
        <time>2011-04-21T21:46:13Z</time>
      </trkpt>
      <trkpt lat="45.76544" lon="5.88068">
        <ele>674.9</ele>
        <time>2011-04-21T21:46:13Z</time>
      </trkpt>
      <trkpt lat="45.76547" lon="5.88069">
        <ele>675</ele>
        <time>2011-04-21T21:46:13Z</time>
      </trkpt>
      <trkpt lat="45.76547" lon="5.88065">
        <ele>675</ele>
        <time>2011-04-21T21:46:13Z</time>
      </trkpt>
      <trkpt lat="45.76609" lon="5.88011">
        <ele>662.9</ele>
        <time>2011-04-21T21:46:13Z</time>
      </trkpt>
      <trkpt lat="45.76667" lon="5.87977">
        <ele>652.9</ele>
        <time>2011-04-21T21:46:13Z</time>
      </trkpt>
      <trkpt lat="45.76702" lon="5.87937">
        <ele>639.7</ele>
        <time>2011-04-21T21:46:13Z</time>
      </trkpt>
      <trkpt lat="45.76729" lon="5.8791">
        <ele>631.5</ele>
        <time>2011-04-21T21:46:13Z</time>
      </trkpt>
      <trkpt lat="45.76734" lon="5.8791">
        <ele>633</ele>
        <time>2011-04-21T21:46:13Z</time>
      </trkpt>
      <trkpt lat="45.76734" lon="5.87907">
        <ele>631.4</ele>
        <time>2011-04-21T21:46:13Z</time>
      </trkpt>
      <trkpt lat="45.76734" lon="5.87904">
        <ele>629.8</ele>
        <time>2011-04-21T21:46:13Z</time>
      </trkpt>
      <trkpt lat="45.76736" lon="5.87904">
        <ele>630.6</ele>
        <time>2011-04-21T21:46:13Z</time>
      </trkpt>
      <trkpt lat="45.76748" lon="5.87882">
        <ele>623.8</ele>
        <time>2011-04-21T21:46:13Z</time>
      </trkpt>
      <trkpt lat="45.76751" lon="5.87879">
        <ele>622.9</ele>
        <time>2011-04-21T21:46:13Z</time>
      </trkpt>
      <trkpt lat="45.76753" lon="5.87879">
        <ele>623.5</ele>
        <time>2011-04-21T21:46:13Z</time>
      </trkpt>
      <trkpt lat="45.76776" lon="5.87865">
        <ele>623.7</ele>
        <time>2011-04-21T21:46:13Z</time>
      </trkpt>
      <trkpt lat="45.76781" lon="5.87862">
        <ele>623.1</ele>
        <time>2011-04-21T21:46:13Z</time>
      </trkpt>
      <trkpt lat="45.76783" lon="5.87862">
        <ele>623.1</ele>
        <time>2011-04-21T21:46:13Z</time>
      </trkpt>
      <trkpt lat="45.76785" lon="5.87859">
        <ele>621.5</ele>
        <time>2011-04-21T21:46:13Z</time>
      </trkpt>
      <trkpt lat="45.76787" lon="5.87859">
        <ele>621.5</ele>
        <time>2011-04-21T21:46:13Z</time>
      </trkpt>
      <trkpt lat="45.76787" lon="5.87856">
        <ele>619.9</ele>
        <time>2011-04-21T21:46:13Z</time>
      </trkpt>
      <trkpt lat="45.7679" lon="5.87856">
        <ele>619.9</ele>
        <time>2011-04-21T21:46:13Z</time>
      </trkpt>
      <trkpt lat="45.76792" lon="5.87856">
        <ele>620</ele>
        <time>2011-04-21T21:46:13Z</time>
      </trkpt>
      <trkpt lat="45.76794" lon="5.87856">
        <ele>620</ele>
        <time>2011-04-21T21:46:13Z</time>
      </trkpt>
      <trkpt lat="45.76796" lon="5.87856">
        <ele>620</ele>
        <time>2011-04-21T21:46:13Z</time>
      </trkpt>
      <trkpt lat="45.76799" lon="5.87856">
        <ele>620.1</ele>
        <time>2011-04-21T21:46:13Z</time>
      </trkpt>
      <trkpt lat="45.76801" lon="5.87857">
        <ele>620.1</ele>
        <time>2011-04-21T21:46:13Z</time>
      </trkpt>
      <trkpt lat="45.76803" lon="5.87857">
        <ele>620.1</ele>
        <time>2011-04-21T21:46:13Z</time>
      </trkpt>
      <trkpt lat="45.76805" lon="5.87857">
        <ele>620.1</ele>
        <time>2011-04-21T21:46:13Z</time>
      </trkpt>
      <trkpt lat="45.7681" lon="5.87857">
        <ele>620.5</ele>
        <time>2011-04-21T21:46:13Z</time>
      </trkpt>
      <trkpt lat="45.76812" lon="5.87857">
        <ele>620.7</ele>
        <time>2011-04-21T21:46:13Z</time>
      </trkpt>
      <trkpt lat="45.76817" lon="5.87858">
        <ele>621.2</ele>
        <time>2011-04-21T21:46:13Z</time>
      </trkpt>
      <trkpt lat="45.76817" lon="5.87854">
        <ele>619.7</ele>
        <time>2011-04-21T21:46:13Z</time>
      </trkpt>
      <trkpt lat="45.76819" lon="5.87854">
        <ele>619.9</ele>
        <time>2011-04-21T21:46:13Z</time>
      </trkpt>
      <trkpt lat="45.76821" lon="5.87855">
        <ele>620.1</ele>
        <time>2011-04-21T21:46:13Z</time>
      </trkpt>
      <trkpt lat="45.76824" lon="5.87855">
        <ele>620.3</ele>
        <time>2011-04-21T21:46:13Z</time>
      </trkpt>
      <trkpt lat="45.76826" lon="5.87855">
        <ele>620.4</ele>
        <time>2011-04-21T21:46:13Z</time>
      </trkpt>
      <trkpt lat="45.76828" lon="5.87855">
        <ele>620.6</ele>
        <time>2011-04-21T21:46:13Z</time>
      </trkpt>
      <trkpt lat="45.76828" lon="5.87852">
        <ele>619.1</ele>
        <time>2011-04-21T21:46:13Z</time>
      </trkpt>
      <trkpt lat="45.76828" lon="5.87849">
        <ele>617.5</ele>
        <time>2011-04-21T21:46:13Z</time>
      </trkpt>
      <trkpt lat="45.7683" lon="5.87849">
        <ele>617.7</ele>
        <time>2011-04-21T21:46:13Z</time>
      </trkpt>
      <trkpt lat="45.76833" lon="5.87846">
        <ele>616.2</ele>
        <time>2011-04-21T21:46:13Z</time>
      </trkpt>
      <trkpt lat="45.76833" lon="5.87843">
        <ele>614.6</ele>
        <time>2011-04-21T21:46:13Z</time>
      </trkpt>
      <trkpt lat="45.76835" lon="5.87843">
        <ele>615.3</ele>
        <time>2011-04-21T21:46:13Z</time>
      </trkpt>
      <trkpt lat="45.76837" lon="5.87843">
        <ele>616.1</ele>
        <time>2011-04-21T21:46:13Z</time>
      </trkpt>
      <trkpt lat="45.7684" lon="5.8784">
        <ele>615.3</ele>
        <time>2011-04-21T21:46:13Z</time>
      </trkpt>
      <trkpt lat="45.76842" lon="5.87837">
        <ele>614.5</ele>
        <time>2011-04-21T21:46:13Z</time>
      </trkpt>
      <trkpt lat="45.76844" lon="5.87837">
        <ele>615.3</ele>
        <time>2011-04-21T21:46:13Z</time>
      </trkpt>
      <trkpt lat="45.76847" lon="5.87837">
        <ele>616.1</ele>
        <time>2011-04-21T21:46:13Z</time>
      </trkpt>
      <trkpt lat="45.76849" lon="5.87834">
        <ele>615.3</ele>
        <time>2011-04-21T21:46:13Z</time>
      </trkpt>
      <trkpt lat="45.76854" lon="5.87831">
        <ele>615.5</ele>
        <time>2011-04-21T21:46:13Z</time>
      </trkpt>
      <trkpt lat="45.76856" lon="5.87831">
        <ele>616.2</ele>
        <time>2011-04-21T21:46:13Z</time>
      </trkpt>
      <trkpt lat="45.76856" lon="5.87828">
        <ele>614.7</ele>
        <time>2011-04-21T21:46:13Z</time>
      </trkpt>
      <trkpt lat="45.76858" lon="5.87828">
        <ele>615.5</ele>
        <time>2011-04-21T21:46:13Z</time>
      </trkpt>
      <trkpt lat="45.7686" lon="5.87828">
        <ele>616.2</ele>
        <time>2011-04-21T21:46:13Z</time>
      </trkpt>
      <trkpt lat="45.76863" lon="5.87825">
        <ele>615.2</ele>
        <time>2011-04-21T21:46:13Z</time>
      </trkpt>
      <trkpt lat="45.76865" lon="5.87825">
        <ele>615.8</ele>
        <time>2011-04-21T21:46:13Z</time>
      </trkpt>
      <trkpt lat="45.76865" lon="5.87822">
        <ele>614.2</ele>
        <time>2011-04-21T21:46:13Z</time>
      </trkpt>
      <trkpt lat="45.76867" lon="5.87822">
        <ele>614.7</ele>
        <time>2011-04-21T21:46:13Z</time>
      </trkpt>
      <trkpt lat="45.7687" lon="5.87822">
        <ele>615.3</ele>
        <time>2011-04-21T21:46:13Z</time>
      </trkpt>
      <trkpt lat="45.76872" lon="5.87822">
        <ele>615.8</ele>
        <time>2011-04-21T21:46:13Z</time>
      </trkpt>
      <trkpt lat="45.76874" lon="5.87823">
        <ele>616.4</ele>
        <time>2011-04-21T21:46:13Z</time>
      </trkpt>
      <trkpt lat="45.76876" lon="5.87823">
        <ele>617</ele>
        <time>2011-04-21T21:46:13Z</time>
      </trkpt>
      <trkpt lat="45.76879" lon="5.87823">
        <ele>617.5</ele>
        <time>2011-04-21T21:46:13Z</time>
      </trkpt>
      <trkpt lat="45.76879" lon="5.8782">
        <ele>615.9</ele>
        <time>2011-04-21T21:46:13Z</time>
      </trkpt>
      <trkpt lat="45.76881" lon="5.8782">
        <ele>616.5</ele>
        <time>2011-04-21T21:46:13Z</time>
      </trkpt>
      <trkpt lat="45.76883" lon="5.8782">
        <ele>617</ele>
        <time>2011-04-21T21:46:13Z</time>
      </trkpt>
      <trkpt lat="45.76883" lon="5.87817">
        <ele>615.4</ele>
        <time>2011-04-21T21:46:13Z</time>
      </trkpt>
      <trkpt lat="45.76886" lon="5.87817">
        <ele>616</ele>
        <time>2011-04-21T21:46:13Z</time>
      </trkpt>
      <trkpt lat="45.76888" lon="5.87817">
        <ele>616.6</ele>
        <time>2011-04-21T21:46:13Z</time>
      </trkpt>
      <trkpt lat="45.76939" lon="5.87766">
        <ele>607.7</ele>
        <time>2011-04-21T21:46:13Z</time>
      </trkpt>
      <trkpt lat="45.76974" lon="5.8772">
        <ele>606.2</ele>
        <time>2011-04-21T21:46:13Z</time>
      </trkpt>
      <trkpt lat="45.77014" lon="5.87664">
        <ele>607.2</ele>
        <time>2011-04-21T21:46:13Z</time>
      </trkpt>
      <trkpt lat="45.77045" lon="5.87605">
        <ele>601.8</ele>
        <time>2011-04-21T21:46:13Z</time>
      </trkpt>
      <trkpt lat="45.77076" lon="5.87569">
        <ele>601.5</ele>
        <time>2011-04-21T21:46:13Z</time>
      </trkpt>
      <trkpt lat="45.77108" lon="5.87545">
        <ele>625.7</ele>
        <time>2011-04-21T21:46:13Z</time>
      </trkpt>
      <trkpt lat="45.77127" lon="5.8752">
        <ele>599.5</ele>
        <time>2011-04-21T21:46:13Z</time>
      </trkpt>
      <trkpt lat="45.77131" lon="5.87517">
        <ele>600.2</ele>
        <time>2011-04-21T21:46:13Z</time>
      </trkpt>
      <trkpt lat="45.77164" lon="5.87491">
        <ele>601.9</ele>
        <time>2011-04-21T21:46:13Z</time>
      </trkpt>
      <trkpt lat="45.77164" lon="5.87487">
        <ele>600.6</ele>
        <time>2011-04-21T21:46:13Z</time>
      </trkpt>
      <trkpt lat="45.77206" lon="5.87445">
        <ele>620.9</ele>
        <time>2011-04-21T21:46:13Z</time>
      </trkpt>
      <trkpt lat="45.77222" lon="5.8742">
        <ele>608.1</ele>
        <time>2011-04-21T21:46:13Z</time>
      </trkpt>
      <trkpt lat="45.77222" lon="5.87417">
        <ele>603.7</ele>
        <time>2011-04-21T21:46:13Z</time>
      </trkpt>
      <trkpt lat="45.77225" lon="5.87417">
        <ele>605</ele>
        <time>2011-04-21T21:46:13Z</time>
      </trkpt>
      <trkpt lat="45.77248" lon="5.87396">
        <ele>604.1</ele>
        <time>2011-04-21T21:46:13Z</time>
      </trkpt>
      <trkpt lat="45.77248" lon="5.87393">
        <ele>602.4</ele>
        <time>2011-04-21T21:46:13Z</time>
      </trkpt>
      <trkpt lat="45.7725" lon="5.87393">
        <ele>603.4</ele>
        <time>2011-04-21T21:46:13Z</time>
      </trkpt>
      <trkpt lat="45.7725" lon="5.8739">
        <ele>601.7</ele>
        <time>2011-04-21T21:46:13Z</time>
      </trkpt>
      <trkpt lat="45.77253" lon="5.87387">
        <ele>601.6</ele>
        <time>2011-04-21T21:46:13Z</time>
      </trkpt>
      <trkpt lat="45.77257" lon="5.87387">
        <ele>604.4</ele>
        <time>2011-04-21T21:46:13Z</time>
      </trkpt>
      <trkpt lat="45.77257" lon="5.87384">
        <ele>602.8</ele>
        <time>2011-04-21T21:46:13Z</time>
      </trkpt>
      <trkpt lat="45.77259" lon="5.87384">
        <ele>604.2</ele>
        <time>2011-04-21T21:46:13Z</time>
      </trkpt>
      <trkpt lat="45.77259" lon="5.87381">
        <ele>602.6</ele>
        <time>2011-04-21T21:46:13Z</time>
      </trkpt>
      <trkpt lat="45.77262" lon="5.87381">
        <ele>604</ele>
        <time>2011-04-21T21:46:13Z</time>
      </trkpt>
      <trkpt lat="45.77264" lon="5.87381">
        <ele>605.4</ele>
        <time>2011-04-21T21:46:13Z</time>
      </trkpt>
      <trkpt lat="45.77264" lon="5.87378">
        <ele>603.7</ele>
        <time>2011-04-21T21:46:13Z</time>
      </trkpt>
      <trkpt lat="45.77266" lon="5.87378">
        <ele>605.1</ele>
        <time>2011-04-21T21:46:13Z</time>
      </trkpt>
      <trkpt lat="45.77266" lon="5.87375">
        <ele>603.4</ele>
        <time>2011-04-21T21:46:13Z</time>
      </trkpt>
      <trkpt lat="45.77269" lon="5.87375">
        <ele>604.8</ele>
        <time>2011-04-21T21:46:13Z</time>
      </trkpt>
      <trkpt lat="45.77271" lon="5.87375">
        <ele>606.2</ele>
        <time>2011-04-21T21:46:13Z</time>
      </trkpt>
      <trkpt lat="45.77271" lon="5.87372">
        <ele>604.5</ele>
        <time>2011-04-21T21:46:13Z</time>
      </trkpt>
      <trkpt lat="45.77273" lon="5.87372">
        <ele>605.8</ele>
        <time>2011-04-21T21:46:13Z</time>
      </trkpt>
      <trkpt lat="45.77273" lon="5.87369">
        <ele>604.1</ele>
        <time>2011-04-21T21:46:13Z</time>
      </trkpt>
      <trkpt lat="45.77297" lon="5.87345">
        <ele>612.2</ele>
        <time>2011-04-21T21:46:13Z</time>
      </trkpt>
      <trkpt lat="45.77299" lon="5.87345">
        <ele>614.7</ele>
        <time>2011-04-21T21:46:13Z</time>
      </trkpt>
      <trkpt lat="45.77301" lon="5.87345">
        <ele>617.2</ele>
        <time>2011-04-21T21:46:13Z</time>
      </trkpt>
      <trkpt lat="45.77301" lon="5.87342">
        <ele>612.9</ele>
        <time>2011-04-21T21:46:13Z</time>
      </trkpt>
      <trkpt lat="45.77303" lon="5.87342">
        <ele>615.1</ele>
        <time>2011-04-21T21:46:13Z</time>
      </trkpt>
      <trkpt lat="45.77304" lon="5.87339">
        <ele>610.6</ele>
        <time>2011-04-21T21:46:13Z</time>
      </trkpt>
      <trkpt lat="45.77318" lon="5.87324">
        <ele>622.7</ele>
        <time>2011-04-21T21:46:13Z</time>
      </trkpt>
      <trkpt lat="45.7732" lon="5.8732">
        <ele>622.4</ele>
        <time>2011-04-21T21:46:13Z</time>
      </trkpt>
      <trkpt lat="45.77322" lon="5.87321">
        <ele>626.6</ele>
        <time>2011-04-21T21:46:13Z</time>
      </trkpt>
      <trkpt lat="45.77325" lon="5.87318">
        <ele>624.8</ele>
        <time>2011-04-21T21:46:13Z</time>
      </trkpt>
      <trkpt lat="45.77327" lon="5.87318">
        <ele>628.5</ele>
        <time>2011-04-21T21:46:13Z</time>
      </trkpt>
      <trkpt lat="45.77331" lon="5.87312">
        <ele>620.6</ele>
        <time>2011-04-21T21:46:13Z</time>
      </trkpt>
      <trkpt lat="45.77332" lon="5.87308">
        <ele>612.8</ele>
        <time>2011-04-21T21:46:13Z</time>
      </trkpt>
      <trkpt lat="45.77334" lon="5.87309">
        <ele>614.9</ele>
        <time>2011-04-21T21:46:13Z</time>
      </trkpt>
      <trkpt lat="45.77336" lon="5.87309">
        <ele>616.3</ele>
        <time>2011-04-21T21:46:13Z</time>
      </trkpt>
      <trkpt lat="45.77338" lon="5.87306">
        <ele>609.6</ele>
        <time>2011-04-21T21:46:13Z</time>
      </trkpt>
      <trkpt lat="45.77341" lon="5.87303">
        <ele>609.1</ele>
        <time>2011-04-21T21:46:13Z</time>
      </trkpt>
      <trkpt lat="45.77345" lon="5.87303">
        <ele>611.5</ele>
        <time>2011-04-21T21:46:13Z</time>
      </trkpt>
      <trkpt lat="45.77348" lon="5.873">
        <ele>611.1</ele>
        <time>2011-04-21T21:46:13Z</time>
      </trkpt>
      <trkpt lat="45.77352" lon="5.873">
        <ele>613.5</ele>
        <time>2011-04-21T21:46:13Z</time>
      </trkpt>
      <trkpt lat="45.77354" lon="5.87297">
        <ele>613</ele>
        <time>2011-04-21T21:46:13Z</time>
      </trkpt>
      <trkpt lat="45.77357" lon="5.87294">
        <ele>612.5</ele>
        <time>2011-04-21T21:46:13Z</time>
      </trkpt>
      <trkpt lat="45.77359" lon="5.87294">
        <ele>613.7</ele>
        <time>2011-04-21T21:46:13Z</time>
      </trkpt>
      <trkpt lat="45.77396" lon="5.87267">
        <ele>621.2</ele>
        <time>2011-04-21T21:46:13Z</time>
      </trkpt>
      <trkpt lat="45.77433" lon="5.87241">
        <ele>609.3</ele>
        <time>2011-04-21T21:46:13Z</time>
      </trkpt>
      <trkpt lat="45.77474" lon="5.87231">
        <ele>608.1</ele>
        <time>2011-04-21T21:46:13Z</time>
      </trkpt>
      <trkpt lat="45.77501" lon="5.87229">
        <ele>614.7</ele>
        <time>2011-04-21T21:46:13Z</time>
      </trkpt>
      <trkpt lat="45.7751" lon="5.87227">
        <ele>614.7</ele>
        <time>2011-04-21T21:46:13Z</time>
      </trkpt>
      <trkpt lat="45.77558" lon="5.87255">
        <ele>643.8</ele>
        <time>2011-04-21T21:46:13Z</time>
      </trkpt>
      <trkpt lat="45.77601" lon="5.87261">
        <ele>625.6</ele>
        <time>2011-04-21T21:46:13Z</time>
      </trkpt>
      <trkpt lat="45.77655" lon="5.87255">
        <ele>629.7</ele>
        <time>2011-04-21T21:46:13Z</time>
      </trkpt>
      <trkpt lat="45.77684" lon="5.87257">
        <ele>620.9</ele>
        <time>2011-04-21T21:46:13Z</time>
      </trkpt>
      <trkpt lat="45.77687" lon="5.87257">
        <ele>619.9</ele>
        <time>2011-04-21T21:46:13Z</time>
      </trkpt>
      <trkpt lat="45.77689" lon="5.87257">
        <ele>619</ele>
        <time>2011-04-21T21:46:13Z</time>
      </trkpt>
      <trkpt lat="45.77691" lon="5.87258">
        <ele>618</ele>
        <time>2011-04-21T21:46:13Z</time>
      </trkpt>
      <trkpt lat="45.77691" lon="5.87261">
        <ele>620.5</ele>
        <time>2011-04-21T21:46:13Z</time>
      </trkpt>
      <trkpt lat="45.77696" lon="5.87261">
        <ele>619.3</ele>
        <time>2011-04-21T21:46:13Z</time>
      </trkpt>
      <trkpt lat="45.77695" lon="5.87264">
        <ele>621.6</ele>
        <time>2011-04-21T21:46:13Z</time>
      </trkpt>
      <trkpt lat="45.7771" lon="5.87294">
        <ele>644.9</ele>
        <time>2011-04-21T21:46:13Z</time>
      </trkpt>
      <trkpt lat="45.77708" lon="5.87352">
        <ele>646.7</ele>
        <time>2011-04-21T21:46:13Z</time>
      </trkpt>
      <trkpt lat="45.77707" lon="5.8741">
        <ele>643.3</ele>
        <time>2011-04-21T21:46:13Z</time>
      </trkpt>
      <trkpt lat="45.77707" lon="5.87461">
        <ele>644.1</ele>
        <time>2011-04-21T21:46:13Z</time>
      </trkpt>
      <trkpt lat="45.77717" lon="5.87504">
        <ele>642.5</ele>
        <time>2011-04-21T21:46:13Z</time>
      </trkpt>
      <trkpt lat="45.77732" lon="5.8754">
        <ele>637.6</ele>
        <time>2011-04-21T21:46:13Z</time>
      </trkpt>
      <trkpt lat="45.77758" lon="5.87558">
        <ele>633.7</ele>
        <time>2011-04-21T21:46:13Z</time>
      </trkpt>
      <trkpt lat="45.7776" lon="5.87558">
        <ele>633.4</ele>
        <time>2011-04-21T21:46:13Z</time>
      </trkpt>
      <trkpt lat="45.77797" lon="5.87535">
        <ele>630.4</ele>
        <time>2011-04-21T21:46:13Z</time>
      </trkpt>
      <trkpt lat="45.7785" lon="5.87499">
        <ele>627.5</ele>
        <time>2011-04-21T21:46:13Z</time>
      </trkpt>
      <trkpt lat="45.77852" lon="5.875">
        <ele>627</ele>
        <time>2011-04-21T21:46:13Z</time>
      </trkpt>
      <trkpt lat="45.7788" lon="5.87479">
        <ele>625</ele>
        <time>2011-04-21T21:46:13Z</time>
      </trkpt>
      <trkpt lat="45.77928" lon="5.8745">
        <ele>620.8</ele>
        <time>2011-04-21T21:46:13Z</time>
      </trkpt>
      <trkpt lat="45.77963" lon="5.8742">
        <ele>622.4</ele>
        <time>2011-04-21T21:46:13Z</time>
      </trkpt>
      <trkpt lat="45.77993" lon="5.87406">
        <ele>629.6</ele>
        <time>2011-04-21T21:46:13Z</time>
      </trkpt>
      <trkpt lat="45.77995" lon="5.87406">
        <ele>630</ele>
        <time>2011-04-21T21:46:13Z</time>
      </trkpt>
      <trkpt lat="45.77995" lon="5.87409">
        <ele>629.1</ele>
        <time>2011-04-21T21:46:13Z</time>
      </trkpt>
      <trkpt lat="45.78021" lon="5.87436">
        <ele>631.6</ele>
        <time>2011-04-21T21:46:13Z</time>
      </trkpt>
      <trkpt lat="45.78029" lon="5.87479">
        <ele>633</ele>
        <time>2011-04-21T21:46:13Z</time>
      </trkpt>
      <trkpt lat="45.78031" lon="5.87479">
        <ele>634.7</ele>
        <time>2011-04-21T21:46:13Z</time>
      </trkpt>
      <trkpt lat="45.78033" lon="5.87479">
        <ele>636.3</ele>
        <time>2011-04-21T21:46:13Z</time>
      </trkpt>
      <trkpt lat="45.78033" lon="5.87482">
        <ele>635.7</ele>
        <time>2011-04-21T21:46:13Z</time>
      </trkpt>
      <trkpt lat="45.78029" lon="5.87527">
        <ele>634.5</ele>
        <time>2011-04-21T21:46:13Z</time>
      </trkpt>
      <trkpt lat="45.78064" lon="5.8751">
        <ele>645.5</ele>
        <time>2011-04-21T21:46:13Z</time>
      </trkpt>
      <trkpt lat="45.78066" lon="5.8751">
        <ele>645.7</ele>
        <time>2011-04-21T21:46:13Z</time>
      </trkpt>
      <trkpt lat="45.78068" lon="5.8751">
        <ele>645.9</ele>
        <time>2011-04-21T21:46:13Z</time>
      </trkpt>
      <trkpt lat="45.78071" lon="5.87507">
        <ele>646.5</ele>
        <time>2011-04-21T21:46:13Z</time>
      </trkpt>
      <trkpt lat="45.78075" lon="5.87507">
        <ele>647</ele>
        <time>2011-04-21T21:46:13Z</time>
      </trkpt>
      <trkpt lat="45.78077" lon="5.87508">
        <ele>647.2</ele>
        <time>2011-04-21T21:46:13Z</time>
      </trkpt>
      <trkpt lat="45.78082" lon="5.87508">
        <ele>647.7</ele>
        <time>2011-04-21T21:46:13Z</time>
      </trkpt>
      <trkpt lat="45.78138" lon="5.87511">
        <ele>645.7</ele>
        <time>2011-04-21T21:46:13Z</time>
      </trkpt>
      <trkpt lat="45.78176" lon="5.87527">
        <ele>648.2</ele>
        <time>2011-04-21T21:46:13Z</time>
      </trkpt>
      <trkpt lat="45.78212" lon="5.87532">
        <ele>646.6</ele>
        <time>2011-04-21T21:46:13Z</time>
      </trkpt>
      <trkpt lat="45.78216" lon="5.87533">
        <ele>646.4</ele>
        <time>2011-04-21T21:46:13Z</time>
      </trkpt>
      <trkpt lat="45.78218" lon="5.87533">
        <ele>646.2</ele>
        <time>2011-04-21T21:46:13Z</time>
      </trkpt>
      <trkpt lat="45.78259" lon="5.87523">
        <ele>647.4</ele>
        <time>2011-04-21T21:46:13Z</time>
      </trkpt>
      <trkpt lat="45.78305" lon="5.87513">
        <ele>650.6</ele>
        <time>2011-04-21T21:46:13Z</time>
      </trkpt>
      <trkpt lat="45.78345" lon="5.87512">
        <ele>654.1</ele>
        <time>2011-04-21T21:46:13Z</time>
      </trkpt>
      <trkpt lat="45.78386" lon="5.87515">
        <ele>657.5</ele>
        <time>2011-04-21T21:46:13Z</time>
      </trkpt>
      <trkpt lat="45.78463" lon="5.87555">
        <ele>662.5</ele>
        <time>2011-04-21T21:46:13Z</time>
      </trkpt>
      <trkpt lat="45.78521" lon="5.87588">
        <ele>668.6</ele>
        <time>2011-04-21T21:46:13Z</time>
      </trkpt>
      <trkpt lat="45.78523" lon="5.87591">
        <ele>668.7</ele>
        <time>2011-04-21T21:46:13Z</time>
      </trkpt>
      <trkpt lat="45.78565" lon="5.87613">
        <ele>674.4</ele>
        <time>2011-04-21T21:46:13Z</time>
      </trkpt>
      <trkpt lat="45.78598" lon="5.87631">
        <ele>677.1</ele>
        <time>2011-04-21T21:46:13Z</time>
      </trkpt>
      <trkpt lat="45.78656" lon="5.87635">
        <ele>680</ele>
        <time>2011-04-21T21:46:13Z</time>
      </trkpt>
      <trkpt lat="45.78717" lon="5.87655">
        <ele>685.2</ele>
        <time>2011-04-21T21:46:13Z</time>
      </trkpt>
      <trkpt lat="45.78738" lon="5.87685">
        <ele>683.9</ele>
        <time>2011-04-21T21:46:13Z</time>
      </trkpt>
      <trkpt lat="45.78765" lon="5.87684">
        <ele>685</ele>
        <time>2011-04-21T21:46:13Z</time>
      </trkpt>
      <trkpt lat="45.78817" lon="5.87697">
        <ele>687.3</ele>
        <time>2011-04-21T21:46:13Z</time>
      </trkpt>
      <trkpt lat="45.7889" lon="5.87727">
        <ele>693.2</ele>
        <time>2011-04-21T21:46:13Z</time>
      </trkpt>
      <trkpt lat="45.78939" lon="5.8773">
        <ele>700</ele>
        <time>2011-04-21T21:46:13Z</time>
      </trkpt>
      <trkpt lat="45.78995" lon="5.87753">
        <ele>701.2</ele>
        <time>2011-04-21T21:46:13Z</time>
      </trkpt>
      <trkpt lat="45.7903" lon="5.87788">
        <ele>700.5</ele>
        <time>2011-04-21T21:46:13Z</time>
      </trkpt>
      <trkpt lat="45.79049" lon="5.87834">
        <ele>697.2</ele>
        <time>2011-04-21T21:46:13Z</time>
      </trkpt>
      <trkpt lat="45.79133" lon="5.87868">
        <ele>691.6</ele>
        <time>2011-04-21T21:46:13Z</time>
      </trkpt>
      <trkpt lat="45.79175" lon="5.87884">
        <ele>699.3</ele>
        <time>2011-04-21T21:46:13Z</time>
      </trkpt>
      <trkpt lat="45.79209" lon="5.87889">
        <ele>703</ele>
        <time>2011-04-21T21:46:13Z</time>
      </trkpt>
      <trkpt lat="45.79259" lon="5.8787">
        <ele>711.7</ele>
        <time>2011-04-21T21:46:13Z</time>
      </trkpt>
      <trkpt lat="45.79312" lon="5.87851">
        <ele>711.6</ele>
        <time>2011-04-21T21:46:13Z</time>
      </trkpt>
      <trkpt lat="45.79366" lon="5.87842">
        <ele>714.9</ele>
        <time>2011-04-21T21:46:13Z</time>
      </trkpt>
      <trkpt lat="45.79406" lon="5.87838">
        <ele>719.5</ele>
        <time>2011-04-21T21:46:13Z</time>
      </trkpt>
      <trkpt lat="45.79458" lon="5.87838">
        <ele>722</ele>
        <time>2011-04-21T21:46:13Z</time>
      </trkpt>
      <trkpt lat="45.79501" lon="5.87825">
        <ele>727.7</ele>
        <time>2011-04-21T21:46:13Z</time>
      </trkpt>
      <trkpt lat="45.79528" lon="5.87842">
        <ele>729.4</ele>
        <time>2011-04-21T21:46:13Z</time>
      </trkpt>
      <trkpt lat="45.79553" lon="5.87892">
        <ele>730.5</ele>
        <time>2011-04-21T21:46:13Z</time>
      </trkpt>
      <trkpt lat="45.79602" lon="5.87934">
        <ele>727.1</ele>
        <time>2011-04-21T21:46:13Z</time>
      </trkpt>
      <trkpt lat="45.7964" lon="5.87917">
        <ele>730.9</ele>
        <time>2011-04-21T21:46:13Z</time>
      </trkpt>
      <trkpt lat="45.79701" lon="5.87921">
        <ele>729</ele>
        <time>2011-04-21T21:46:13Z</time>
      </trkpt>
      <trkpt lat="45.79778" lon="5.87907">
        <ele>736.1</ele>
        <time>2011-04-21T21:46:13Z</time>
      </trkpt>
      <trkpt lat="45.7978" lon="5.87907">
        <ele>736.6</ele>
        <time>2011-04-21T21:46:13Z</time>
      </trkpt>
      <trkpt lat="45.79794" lon="5.87908">
        <ele>739.4</ele>
        <time>2011-04-21T21:46:13Z</time>
      </trkpt>
      <trkpt lat="45.79825" lon="5.87919">
        <ele>743.8</ele>
        <time>2011-04-21T21:46:13Z</time>
      </trkpt>
      <trkpt lat="45.79827" lon="5.8792">
        <ele>744.2</ele>
        <time>2011-04-21T21:46:13Z</time>
      </trkpt>
      <trkpt lat="45.79829" lon="5.8792">
        <ele>744.5</ele>
        <time>2011-04-21T21:46:13Z</time>
      </trkpt>
      <trkpt lat="45.79832" lon="5.8792">
        <ele>744.9</ele>
        <time>2011-04-21T21:46:13Z</time>
      </trkpt>
      <trkpt lat="45.79834" lon="5.8792">
        <ele>745.2</ele>
        <time>2011-04-21T21:46:13Z</time>
      </trkpt>
      <trkpt lat="45.79873" lon="5.87906">
        <ele>749.7</ele>
        <time>2011-04-21T21:46:13Z</time>
      </trkpt>
      <trkpt lat="45.79924" lon="5.8791">
        <ele>754</ele>
        <time>2011-04-21T21:46:13Z</time>
      </trkpt>
      <trkpt lat="45.79894" lon="5.8786">
        <ele>762.1</ele>
        <time>2011-04-21T21:46:13Z</time>
      </trkpt>
      <trkpt lat="45.79895" lon="5.87844">
        <ele>764.9</ele>
        <time>2011-04-21T21:46:13Z</time>
      </trkpt>
      <trkpt lat="45.79946" lon="5.87856">
        <ele>769.3</ele>
        <time>2011-04-21T21:46:13Z</time>
      </trkpt>
      <trkpt lat="45.79958" lon="5.87838">
        <ele>774.8</ele>
        <time>2011-04-21T21:46:13Z</time>
      </trkpt>
      <trkpt lat="45.79906" lon="5.87764">
        <ele>781.5</ele>
        <time>2011-04-21T21:46:13Z</time>
      </trkpt>
      <trkpt lat="45.79861" lon="5.87709">
        <ele>787.3</ele>
        <time>2011-04-21T21:46:13Z</time>
      </trkpt>
      <trkpt lat="45.7984" lon="5.87663">
        <ele>791.6</ele>
        <time>2011-04-21T21:46:13Z</time>
      </trkpt>
      <trkpt lat="45.79818" lon="5.87639">
        <ele>790.2</ele>
        <time>2011-04-21T21:46:13Z</time>
      </trkpt>
      <trkpt lat="45.79801" lon="5.87596">
        <ele>793</ele>
        <time>2011-04-21T21:46:13Z</time>
      </trkpt>
      <trkpt lat="45.79825" lon="5.87553">
        <ele>797.1</ele>
        <time>2011-04-21T21:46:13Z</time>
      </trkpt>
      <trkpt lat="45.79839" lon="5.87489">
        <ele>796.9</ele>
        <time>2011-04-21T21:46:13Z</time>
      </trkpt>
      <trkpt lat="45.79839" lon="5.87463">
        <ele>798.1</ele>
        <time>2011-04-21T21:46:13Z</time>
      </trkpt>
      <trkpt lat="45.79854" lon="5.87413">
        <ele>800.9</ele>
        <time>2011-04-21T21:46:13Z</time>
      </trkpt>
      <trkpt lat="45.79857" lon="5.8741">
        <ele>800.6</ele>
        <time>2011-04-21T21:46:13Z</time>
      </trkpt>
      <trkpt lat="45.79859" lon="5.8741">
        <ele>800.8</ele>
        <time>2011-04-21T21:46:13Z</time>
      </trkpt>
      <trkpt lat="45.79883" lon="5.87376">
        <ele>805.7</ele>
        <time>2011-04-21T21:46:13Z</time>
      </trkpt>
      <trkpt lat="45.79887" lon="5.8737">
        <ele>808.3</ele>
        <time>2011-04-21T21:46:13Z</time>
      </trkpt>
      <trkpt lat="45.7989" lon="5.8737">
        <ele>809</ele>
        <time>2011-04-21T21:46:13Z</time>
      </trkpt>
      <trkpt lat="45.79915" lon="5.87336">
        <ele>809</ele>
        <time>2011-04-21T21:46:13Z</time>
      </trkpt>
      <trkpt lat="45.79922" lon="5.87276">
        <ele>800.1</ele>
        <time>2011-04-21T21:46:13Z</time>
      </trkpt>
      <trkpt lat="45.79924" lon="5.87276">
        <ele>801</ele>
        <time>2011-04-21T21:46:13Z</time>
      </trkpt>
      <trkpt lat="45.79946" lon="5.87232">
        <ele>796.6</ele>
        <time>2011-04-21T21:46:13Z</time>
      </trkpt>
      <trkpt lat="45.80002" lon="5.87232">
        <ele>815</ele>
        <time>2011-04-21T21:46:13Z</time>
      </trkpt>
      <trkpt lat="45.8003" lon="5.87196">
        <ele>815.2</ele>
        <time>2011-04-21T21:46:13Z</time>
      </trkpt>
      <trkpt lat="45.80032" lon="5.87193">
        <ele>815.4</ele>
        <time>2011-04-21T21:46:13Z</time>
      </trkpt>
      <trkpt lat="45.80035" lon="5.87189">
        <ele>815.6</ele>
        <time>2011-04-21T21:46:13Z</time>
      </trkpt>
      <trkpt lat="45.80035" lon="5.87186">
        <ele>814.8</ele>
        <time>2011-04-21T21:46:13Z</time>
      </trkpt>
      <trkpt lat="45.80037" lon="5.87186">
        <ele>815.7</ele>
        <time>2011-04-21T21:46:13Z</time>
      </trkpt>
      <trkpt lat="45.80076" lon="5.87157">
        <ele>821.8</ele>
        <time>2011-04-21T21:46:13Z</time>
      </trkpt>
      <trkpt lat="45.80079" lon="5.8715">
        <ele>820.9</ele>
        <time>2011-04-21T21:46:13Z</time>
      </trkpt>
      <trkpt lat="45.80105" lon="5.8712">
        <ele>821.4</ele>
        <time>2011-04-21T21:46:13Z</time>
      </trkpt>
      <trkpt lat="45.80107" lon="5.8712">
        <ele>822.3</ele>
        <time>2011-04-21T21:46:13Z</time>
      </trkpt>
      <trkpt lat="45.80107" lon="5.87117">
        <ele>821.3</ele>
        <time>2011-04-21T21:46:13Z</time>
      </trkpt>
      <trkpt lat="45.80109" lon="5.87117">
        <ele>822.2</ele>
        <time>2011-04-21T21:46:13Z</time>
      </trkpt>
      <trkpt lat="45.80111" lon="5.87114">
        <ele>822</ele>
        <time>2011-04-21T21:46:13Z</time>
      </trkpt>
      <trkpt lat="45.80114" lon="5.87114">
        <ele>823</ele>
        <time>2011-04-21T21:46:13Z</time>
      </trkpt>
      <trkpt lat="45.80114" lon="5.87111">
        <ele>822</ele>
        <time>2011-04-21T21:46:13Z</time>
      </trkpt>
      <trkpt lat="45.80116" lon="5.87111">
        <ele>822.9</ele>
        <time>2011-04-21T21:46:13Z</time>
      </trkpt>
      <trkpt lat="45.80142" lon="5.87084">
        <ele>823</ele>
        <time>2011-04-21T21:46:13Z</time>
      </trkpt>
      <trkpt lat="45.80146" lon="5.87081">
        <ele>823.7</ele>
        <time>2011-04-21T21:46:13Z</time>
      </trkpt>
      <trkpt lat="45.80146" lon="5.87078">
        <ele>822.9</ele>
        <time>2011-04-21T21:46:13Z</time>
      </trkpt>
      <trkpt lat="45.80149" lon="5.87078">
        <ele>823.6</ele>
        <time>2011-04-21T21:46:13Z</time>
      </trkpt>
      <trkpt lat="45.80151" lon="5.87071">
        <ele>822.6</ele>
        <time>2011-04-21T21:46:13Z</time>
      </trkpt>
      <trkpt lat="45.80143" lon="5.87045">
        <ele>813.3</ele>
        <time>2011-04-21T21:46:13Z</time>
      </trkpt>
      <trkpt lat="45.80131" lon="5.87009">
        <ele>805.3</ele>
        <time>2011-04-21T21:46:13Z</time>
      </trkpt>
      <trkpt lat="45.8012" lon="5.86973">
        <ele>805.6</ele>
        <time>2011-04-21T21:46:13Z</time>
      </trkpt>
      <trkpt lat="45.80121" lon="5.8697">
        <ele>806</ele>
        <time>2011-04-21T21:46:13Z</time>
      </trkpt>
      <trkpt lat="45.80099" lon="5.8693">
        <ele>807.9</ele>
        <time>2011-04-21T21:46:13Z</time>
      </trkpt>
      <trkpt lat="45.80097" lon="5.86926">
        <ele>808</ele>
        <time>2011-04-21T21:46:13Z</time>
      </trkpt>
      <trkpt lat="45.80097" lon="5.86923">
        <ele>808.2</ele>
        <time>2011-04-21T21:46:13Z</time>
      </trkpt>
      <trkpt lat="45.80095" lon="5.86923">
        <ele>808.1</ele>
        <time>2011-04-21T21:46:13Z</time>
      </trkpt>
      <trkpt lat="45.80095" lon="5.8692">
        <ele>808.3</ele>
        <time>2011-04-21T21:46:13Z</time>
      </trkpt>
      <trkpt lat="45.80093" lon="5.8692">
        <ele>808.2</ele>
        <time>2011-04-21T21:46:13Z</time>
      </trkpt>
      <trkpt lat="45.80093" lon="5.86916">
        <ele>808.3</ele>
        <time>2011-04-21T21:46:13Z</time>
      </trkpt>
      <trkpt lat="45.80091" lon="5.86913">
        <ele>808.1</ele>
        <time>2011-04-21T21:46:13Z</time>
      </trkpt>
      <trkpt lat="45.80091" lon="5.8691">
        <ele>807.9</ele>
        <time>2011-04-21T21:46:13Z</time>
      </trkpt>
      <trkpt lat="45.80089" lon="5.8691">
        <ele>807.7</ele>
        <time>2011-04-21T21:46:13Z</time>
      </trkpt>
      <trkpt lat="45.80089" lon="5.86906">
        <ele>807.5</ele>
        <time>2011-04-21T21:46:13Z</time>
      </trkpt>
      <trkpt lat="45.80089" lon="5.86903">
        <ele>807.3</ele>
        <time>2011-04-21T21:46:13Z</time>
      </trkpt>
      <trkpt lat="45.80087" lon="5.86903">
        <ele>807</ele>
        <time>2011-04-21T21:46:13Z</time>
      </trkpt>
      <trkpt lat="45.80087" lon="5.869">
        <ele>806.7</ele>
        <time>2011-04-21T21:46:13Z</time>
      </trkpt>
      <trkpt lat="45.80087" lon="5.86897">
        <ele>806.5</ele>
        <time>2011-04-21T21:46:13Z</time>
      </trkpt>
      <trkpt lat="45.80085" lon="5.86896">
        <ele>806.1</ele>
        <time>2011-04-21T21:46:13Z</time>
      </trkpt>
      <trkpt lat="45.80085" lon="5.86893">
        <ele>805.8</ele>
        <time>2011-04-21T21:46:13Z</time>
      </trkpt>
      <trkpt lat="45.80082" lon="5.86893">
        <ele>805.3</ele>
        <time>2011-04-21T21:46:13Z</time>
      </trkpt>
      <trkpt lat="45.80083" lon="5.8689">
        <ele>805</ele>
        <time>2011-04-21T21:46:13Z</time>
      </trkpt>
      <trkpt lat="45.8008" lon="5.86887">
        <ele>804.6</ele>
        <time>2011-04-21T21:46:13Z</time>
      </trkpt>
      <trkpt lat="45.8008" lon="5.86883">
        <ele>804.6</ele>
        <time>2011-04-21T21:46:13Z</time>
      </trkpt>
      <trkpt lat="45.80074" lon="5.86864">
        <ele>804.6</ele>
        <time>2011-04-21T21:46:13Z</time>
      </trkpt>
      <trkpt lat="45.80044" lon="5.86823">
        <ele>805.2</ele>
        <time>2011-04-21T21:46:13Z</time>
      </trkpt>
      <trkpt lat="45.80023" lon="5.86777">
        <ele>801.7</ele>
        <time>2011-04-21T21:46:13Z</time>
      </trkpt>
      <trkpt lat="45.79998" lon="5.86724">
        <ele>790.2</ele>
        <time>2011-04-21T21:46:13Z</time>
      </trkpt>
      <trkpt lat="45.8" lon="5.86724">
        <ele>791.4</ele>
        <time>2011-04-21T21:46:13Z</time>
      </trkpt>
      <trkpt lat="45.8" lon="5.86727">
        <ele>792.3</ele>
        <time>2011-04-21T21:46:13Z</time>
      </trkpt>
      <trkpt lat="45.80002" lon="5.86727">
        <ele>793.2</ele>
        <time>2011-04-21T21:46:13Z</time>
      </trkpt>
      <trkpt lat="45.80002" lon="5.8673">
        <ele>794</ele>
        <time>2011-04-21T21:46:13Z</time>
      </trkpt>
      <trkpt lat="45.7999" lon="5.86752">
        <ele>795.9</ele>
        <time>2011-04-21T21:46:13Z</time>
      </trkpt>
      <trkpt lat="45.79978" lon="5.86774">
        <ele>794.8</ele>
        <time>2011-04-21T21:46:13Z</time>
      </trkpt>
      <trkpt lat="45.79962" lon="5.86786">
        <ele>790.5</ele>
        <time>2011-04-21T21:46:13Z</time>
      </trkpt>
      <trkpt lat="45.79962" lon="5.86789">
        <ele>790.9</ele>
        <time>2011-04-21T21:46:13Z</time>
      </trkpt>
      <trkpt lat="45.79962" lon="5.86792">
        <ele>791.4</ele>
        <time>2011-04-21T21:46:13Z</time>
      </trkpt>
      <trkpt lat="45.7996" lon="5.86792">
        <ele>790.5</ele>
        <time>2011-04-21T21:46:13Z</time>
      </trkpt>
      <trkpt lat="45.79957" lon="5.86792">
        <ele>789.6</ele>
        <time>2011-04-21T21:46:13Z</time>
      </trkpt>
      <trkpt lat="45.79955" lon="5.86792">
        <ele>788.7</ele>
        <time>2011-04-21T21:46:13Z</time>
      </trkpt>
      <trkpt lat="45.79953" lon="5.86791">
        <ele>787.8</ele>
        <time>2011-04-21T21:46:13Z</time>
      </trkpt>
      <trkpt lat="45.7995" lon="5.86795">
        <ele>787.5</ele>
        <time>2011-04-21T21:46:13Z</time>
      </trkpt>
      <trkpt lat="45.79948" lon="5.86794">
        <ele>786.6</ele>
        <time>2011-04-21T21:46:13Z</time>
      </trkpt>
      <trkpt lat="45.79946" lon="5.86794">
        <ele>785.7</ele>
        <time>2011-04-21T21:46:13Z</time>
      </trkpt>
      <trkpt lat="45.79944" lon="5.86797">
        <ele>785.1</ele>
        <time>2011-04-21T21:46:13Z</time>
      </trkpt>
      <trkpt lat="45.79941" lon="5.86797">
        <ele>782.9</ele>
        <time>2011-04-21T21:46:13Z</time>
      </trkpt>
      <trkpt lat="45.79939" lon="5.86797">
        <ele>780.6</ele>
        <time>2011-04-21T21:46:13Z</time>
      </trkpt>
      <trkpt lat="45.79939" lon="5.868">
        <ele>781.4</ele>
        <time>2011-04-21T21:46:13Z</time>
      </trkpt>
      <trkpt lat="45.79939" lon="5.86803">
        <ele>782.2</ele>
        <time>2011-04-21T21:46:13Z</time>
      </trkpt>
      <trkpt lat="45.79922" lon="5.86851">
        <ele>776.8</ele>
        <time>2011-04-21T21:46:13Z</time>
      </trkpt>
      <trkpt lat="45.79896" lon="5.86872">
        <ele>771.4</ele>
        <time>2011-04-21T21:46:13Z</time>
      </trkpt>
      <trkpt lat="45.7988" lon="5.86893">
        <ele>769.1</ele>
        <time>2011-04-21T21:46:13Z</time>
      </trkpt>
      <trkpt lat="45.79859" lon="5.86905">
        <ele>763.1</ele>
        <time>2011-04-21T21:46:13Z</time>
      </trkpt>
      <trkpt lat="45.79846" lon="5.86907">
        <ele>755.2</ele>
        <time>2011-04-21T21:46:13Z</time>
      </trkpt>
      <trkpt lat="45.79845" lon="5.8691">
        <ele>755.8</ele>
        <time>2011-04-21T21:46:13Z</time>
      </trkpt>
      <trkpt lat="45.79843" lon="5.8691">
        <ele>754.4</ele>
        <time>2011-04-21T21:46:13Z</time>
      </trkpt>
      <trkpt lat="45.79844" lon="5.86884">
        <ele>749.8</ele>
        <time>2011-04-21T21:46:13Z</time>
      </trkpt>
      <trkpt lat="45.79839" lon="5.86845">
        <ele>733.6</ele>
        <time>2011-04-21T21:46:13Z</time>
      </trkpt>
      <trkpt lat="45.7983" lon="5.86832">
        <ele>725</ele>
        <time>2011-04-21T21:46:13Z</time>
      </trkpt>
      <trkpt lat="45.79811" lon="5.86792">
        <ele>710.8</ele>
        <time>2011-04-21T21:46:13Z</time>
      </trkpt>
      <trkpt lat="45.79811" lon="5.86789">
        <ele>709.9</ele>
        <time>2011-04-21T21:46:13Z</time>
      </trkpt>
      <trkpt lat="45.79803" lon="5.86769">
        <ele>704.4</ele>
        <time>2011-04-21T21:46:13Z</time>
      </trkpt>
      <trkpt lat="45.79803" lon="5.86766">
        <ele>703.5</ele>
        <time>2011-04-21T21:46:13Z</time>
      </trkpt>
      <trkpt lat="45.79803" lon="5.86763">
        <ele>702.6</ele>
        <time>2011-04-21T21:46:13Z</time>
      </trkpt>
      <trkpt lat="45.79803" lon="5.86759">
        <ele>701.6</ele>
        <time>2011-04-21T21:46:13Z</time>
      </trkpt>
      <trkpt lat="45.79803" lon="5.86756">
        <ele>700.7</ele>
        <time>2011-04-21T21:46:13Z</time>
      </trkpt>
      <trkpt lat="45.79803" lon="5.86753">
        <ele>699.8</ele>
        <time>2011-04-21T21:46:13Z</time>
      </trkpt>
      <trkpt lat="45.79803" lon="5.8675">
        <ele>698.7</ele>
        <time>2011-04-21T21:46:13Z</time>
      </trkpt>
      <trkpt lat="45.79804" lon="5.86724">
        <ele>673.5</ele>
        <time>2011-04-21T21:46:13Z</time>
      </trkpt>
      <trkpt lat="45.79804" lon="5.86721">
        <ele>671.4</ele>
        <time>2011-04-21T21:46:13Z</time>
      </trkpt>
      <trkpt lat="45.79804" lon="5.86718">
        <ele>670.7</ele>
        <time>2011-04-21T21:46:13Z</time>
      </trkpt>
      <trkpt lat="45.79812" lon="5.86699">
        <ele>664.4</ele>
        <time>2011-04-21T21:46:13Z</time>
      </trkpt>
      <trkpt lat="45.79812" lon="5.86695">
        <ele>663.5</ele>
        <time>2011-04-21T21:46:13Z</time>
      </trkpt>
      <trkpt lat="45.79812" lon="5.86692">
        <ele>662.1</ele>
        <time>2011-04-21T21:46:13Z</time>
      </trkpt>
      <trkpt lat="45.79817" lon="5.86673">
        <ele>651.9</ele>
        <time>2011-04-21T21:46:13Z</time>
      </trkpt>
      <trkpt lat="45.79817" lon="5.8667">
        <ele>650.3</ele>
        <time>2011-04-21T21:46:13Z</time>
      </trkpt>
      <trkpt lat="45.79819" lon="5.86667">
        <ele>648.7</ele>
        <time>2011-04-21T21:46:13Z</time>
      </trkpt>
      <trkpt lat="45.79827" lon="5.86645">
        <ele>637.5</ele>
        <time>2011-04-21T21:46:13Z</time>
      </trkpt>
      <trkpt lat="45.79829" lon="5.86645">
        <ele>637.4</ele>
        <time>2011-04-21T21:46:13Z</time>
      </trkpt>
      <trkpt lat="45.79829" lon="5.86642">
        <ele>635.8</ele>
        <time>2011-04-21T21:46:13Z</time>
      </trkpt>
      <trkpt lat="45.79829" lon="5.86639">
        <ele>634.4</ele>
        <time>2011-04-21T21:46:13Z</time>
      </trkpt>
      <trkpt lat="45.79848" lon="5.86604">
        <ele>625.8</ele>
        <time>2011-04-21T21:46:13Z</time>
      </trkpt>
      <trkpt lat="45.79851" lon="5.86605">
        <ele>626.4</ele>
        <time>2011-04-21T21:46:13Z</time>
      </trkpt>
      <trkpt lat="45.79851" lon="5.86601">
        <ele>625</ele>
        <time>2011-04-21T21:46:13Z</time>
      </trkpt>
      <trkpt lat="45.79837" lon="5.86591">
        <ele>617.2</ele>
        <time>2011-04-21T21:46:13Z</time>
      </trkpt>
      <trkpt lat="45.79835" lon="5.86591">
        <ele>616.6</ele>
        <time>2011-04-21T21:46:13Z</time>
      </trkpt>
      <trkpt lat="45.79833" lon="5.86591">
        <ele>616.1</ele>
        <time>2011-04-21T21:46:13Z</time>
      </trkpt>
      <trkpt lat="45.79831" lon="5.8659">
        <ele>616</ele>
        <time>2011-04-21T21:46:13Z</time>
      </trkpt>
      <trkpt lat="45.79829" lon="5.8659">
        <ele>615.9</ele>
        <time>2011-04-21T21:46:13Z</time>
      </trkpt>
      <trkpt lat="45.79826" lon="5.8659">
        <ele>615.8</ele>
        <time>2011-04-21T21:46:13Z</time>
      </trkpt>
      <trkpt lat="45.79826" lon="5.86587">
        <ele>614.5</ele>
        <time>2011-04-21T21:46:13Z</time>
      </trkpt>
      <trkpt lat="45.79826" lon="5.86584">
        <ele>613.2</ele>
        <time>2011-04-21T21:46:13Z</time>
      </trkpt>
      <trkpt lat="45.79827" lon="5.86581">
        <ele>611.6</ele>
        <time>2011-04-21T21:46:13Z</time>
      </trkpt>
      <trkpt lat="45.79827" lon="5.86577">
        <ele>610.1</ele>
        <time>2011-04-21T21:46:13Z</time>
      </trkpt>
      <trkpt lat="45.79829" lon="5.86577">
        <ele>610.2</ele>
        <time>2011-04-21T21:46:13Z</time>
      </trkpt>
      <trkpt lat="45.79831" lon="5.86578">
        <ele>610.3</ele>
        <time>2011-04-21T21:46:13Z</time>
      </trkpt>
      <trkpt lat="45.79833" lon="5.86578">
        <ele>610.4</ele>
        <time>2011-04-21T21:46:13Z</time>
      </trkpt>
      <trkpt lat="45.79836" lon="5.86578">
        <ele>611</ele>
        <time>2011-04-21T21:46:13Z</time>
      </trkpt>
      <trkpt lat="45.79836" lon="5.86575">
        <ele>609.5</ele>
        <time>2011-04-21T21:46:13Z</time>
      </trkpt>
      <trkpt lat="45.79838" lon="5.86575">
        <ele>610</ele>
        <time>2011-04-21T21:46:13Z</time>
      </trkpt>
      <trkpt lat="45.7984" lon="5.86575">
        <ele>610.6</ele>
        <time>2011-04-21T21:46:13Z</time>
      </trkpt>
      <trkpt lat="45.79842" lon="5.86575">
        <ele>611.1</ele>
        <time>2011-04-21T21:46:13Z</time>
      </trkpt>
      <trkpt lat="45.79845" lon="5.86572">
        <ele>610.2</ele>
        <time>2011-04-21T21:46:13Z</time>
      </trkpt>
      <trkpt lat="45.79847" lon="5.86569">
        <ele>609.3</ele>
        <time>2011-04-21T21:46:13Z</time>
      </trkpt>
      <trkpt lat="45.79847" lon="5.86566">
        <ele>607.8</ele>
        <time>2011-04-21T21:46:13Z</time>
      </trkpt>
      <trkpt lat="45.7985" lon="5.86566">
        <ele>608.4</ele>
        <time>2011-04-21T21:46:13Z</time>
      </trkpt>
      <trkpt lat="45.7985" lon="5.86563">
        <ele>606.9</ele>
        <time>2011-04-21T21:46:13Z</time>
      </trkpt>
      <trkpt lat="45.7985" lon="5.8656">
        <ele>605.4</ele>
        <time>2011-04-21T21:46:13Z</time>
      </trkpt>
      <trkpt lat="45.79846" lon="5.86534">
        <ele>592.4</ele>
        <time>2011-04-21T21:46:13Z</time>
      </trkpt>
      <trkpt lat="45.79846" lon="5.8653">
        <ele>590.9</ele>
        <time>2011-04-21T21:46:13Z</time>
      </trkpt>
      <trkpt lat="45.79847" lon="5.86492">
        <ele>575.4</ele>
        <time>2011-04-21T21:46:13Z</time>
      </trkpt>
      <trkpt lat="45.79847" lon="5.86489">
        <ele>574.2</ele>
        <time>2011-04-21T21:46:13Z</time>
      </trkpt>
      <trkpt lat="45.7986" lon="5.8646">
        <ele>567.7</ele>
        <time>2011-04-21T21:46:13Z</time>
      </trkpt>
      <trkpt lat="45.7986" lon="5.86457">
        <ele>566.7</ele>
        <time>2011-04-21T21:46:13Z</time>
      </trkpt>
      <trkpt lat="45.7986" lon="5.86454">
        <ele>565.7</ele>
        <time>2011-04-21T21:46:13Z</time>
      </trkpt>
      <trkpt lat="45.79844" lon="5.8644">
        <ele>557.2</ele>
        <time>2011-04-21T21:46:13Z</time>
      </trkpt>
      <trkpt lat="45.79833" lon="5.86436">
        <ele>553.2</ele>
        <time>2011-04-21T21:46:13Z</time>
      </trkpt>
      <trkpt lat="45.79831" lon="5.86436">
        <ele>552.6</ele>
        <time>2011-04-21T21:46:13Z</time>
      </trkpt>
      <trkpt lat="45.79831" lon="5.86433">
        <ele>551.9</ele>
        <time>2011-04-21T21:46:13Z</time>
      </trkpt>
      <trkpt lat="45.79812" lon="5.86406">
        <ele>539.8</ele>
        <time>2011-04-21T21:46:13Z</time>
      </trkpt>
      <trkpt lat="45.79786" lon="5.86382">
        <ele>521.2</ele>
        <time>2011-04-21T21:46:13Z</time>
      </trkpt>
      <trkpt lat="45.79783" lon="5.86381">
        <ele>520.3</ele>
        <time>2011-04-21T21:46:13Z</time>
      </trkpt>
      <trkpt lat="45.79783" lon="5.86385">
        <ele>523.5</ele>
        <time>2011-04-21T21:46:13Z</time>
      </trkpt>
      <trkpt lat="45.79781" lon="5.86385">
        <ele>522.5</ele>
        <time>2011-04-21T21:46:13Z</time>
      </trkpt>
      <trkpt lat="45.79781" lon="5.86388">
        <ele>525.8</ele>
        <time>2011-04-21T21:46:13Z</time>
      </trkpt>
      <trkpt lat="45.79754" lon="5.86389">
        <ele>526.1</ele>
        <time>2011-04-21T21:46:13Z</time>
      </trkpt>
      <trkpt lat="45.7972" lon="5.86387">
        <ele>514.3</ele>
        <time>2011-04-21T21:46:13Z</time>
      </trkpt>
      <trkpt lat="45.79686" lon="5.86385">
        <ele>507.2</ele>
        <time>2011-04-21T21:46:13Z</time>
      </trkpt>
      <trkpt lat="45.79684" lon="5.86385">
        <ele>507.2</ele>
        <time>2011-04-21T21:46:13Z</time>
      </trkpt>
      <trkpt lat="45.79682" lon="5.86385">
        <ele>507.2</ele>
        <time>2011-04-21T21:46:13Z</time>
      </trkpt>
      <trkpt lat="45.79682" lon="5.86381">
        <ele>505.4</ele>
        <time>2011-04-21T21:46:13Z</time>
      </trkpt>
      <trkpt lat="45.7968" lon="5.86381">
        <ele>505.6</ele>
        <time>2011-04-21T21:46:13Z</time>
      </trkpt>
      <trkpt lat="45.79677" lon="5.86381">
        <ele>505.7</ele>
        <time>2011-04-21T21:46:13Z</time>
      </trkpt>
      <trkpt lat="45.79675" lon="5.86378">
        <ele>504.5</ele>
        <time>2011-04-21T21:46:13Z</time>
      </trkpt>
      <trkpt lat="45.79673" lon="5.86378">
        <ele>504.7</ele>
        <time>2011-04-21T21:46:13Z</time>
      </trkpt>
      <trkpt lat="45.79671" lon="5.86377">
        <ele>505</ele>
        <time>2011-04-21T21:46:13Z</time>
      </trkpt>
      <trkpt lat="45.79669" lon="5.86377">
        <ele>505.3</ele>
        <time>2011-04-21T21:46:13Z</time>
      </trkpt>
      <trkpt lat="45.79669" lon="5.86374">
        <ele>504.3</ele>
        <time>2011-04-21T21:46:13Z</time>
      </trkpt>
      <trkpt lat="45.79666" lon="5.86374">
        <ele>504.7</ele>
        <time>2011-04-21T21:46:13Z</time>
      </trkpt>
      <trkpt lat="45.79664" lon="5.86374">
        <ele>504.3</ele>
        <time>2011-04-21T21:46:13Z</time>
      </trkpt>
      <trkpt lat="45.79664" lon="5.86371">
        <ele>503.4</ele>
        <time>2011-04-21T21:46:13Z</time>
      </trkpt>
      <trkpt lat="45.79662" lon="5.8637">
        <ele>503</ele>
        <time>2011-04-21T21:46:13Z</time>
      </trkpt>
      <trkpt lat="45.79662" lon="5.86367">
        <ele>502.2</ele>
        <time>2011-04-21T21:46:13Z</time>
      </trkpt>
      <trkpt lat="45.7966" lon="5.86367">
        <ele>501.8</ele>
        <time>2011-04-21T21:46:13Z</time>
      </trkpt>
      <trkpt lat="45.7966" lon="5.86364">
        <ele>501</ele>
        <time>2011-04-21T21:46:13Z</time>
      </trkpt>
      <trkpt lat="45.79629" lon="5.86355">
        <ele>492.1</ele>
        <time>2011-04-21T21:46:13Z</time>
      </trkpt>
      <trkpt lat="45.79607" lon="5.86331">
        <ele>479.2</ele>
        <time>2011-04-21T21:46:13Z</time>
      </trkpt>
      <trkpt lat="45.79571" lon="5.86329">
        <ele>473.7</ele>
        <time>2011-04-21T21:46:13Z</time>
      </trkpt>
      <trkpt lat="45.79569" lon="5.86329">
        <ele>473.1</ele>
        <time>2011-04-21T21:46:13Z</time>
      </trkpt>
      <trkpt lat="45.79567" lon="5.86329">
        <ele>472.4</ele>
        <time>2011-04-21T21:46:13Z</time>
      </trkpt>
      <trkpt lat="45.79542" lon="5.86327">
        <ele>467.3</ele>
        <time>2011-04-21T21:46:13Z</time>
      </trkpt>
      <trkpt lat="45.7954" lon="5.86327">
        <ele>467</ele>
        <time>2011-04-21T21:46:13Z</time>
      </trkpt>
      <trkpt lat="45.79537" lon="5.86327">
        <ele>466.7</ele>
        <time>2011-04-21T21:46:13Z</time>
      </trkpt>
      <trkpt lat="45.79535" lon="5.86327">
        <ele>466.4</ele>
        <time>2011-04-21T21:46:13Z</time>
      </trkpt>
      <trkpt lat="45.79533" lon="5.86327">
        <ele>466.1</ele>
        <time>2011-04-21T21:46:13Z</time>
      </trkpt>
      <trkpt lat="45.79531" lon="5.86327">
        <ele>465.9</ele>
        <time>2011-04-21T21:46:13Z</time>
      </trkpt>
      <trkpt lat="45.79528" lon="5.86326">
        <ele>465.6</ele>
        <time>2011-04-21T21:46:13Z</time>
      </trkpt>
      <trkpt lat="45.79526" lon="5.86326">
        <ele>465.3</ele>
        <time>2011-04-21T21:46:13Z</time>
      </trkpt>
      <trkpt lat="45.79522" lon="5.86326">
        <ele>464.6</ele>
        <time>2011-04-21T21:46:13Z</time>
      </trkpt>
      <trkpt lat="45.79517" lon="5.86326">
        <ele>463.9</ele>
        <time>2011-04-21T21:46:13Z</time>
      </trkpt>
      <trkpt lat="45.79513" lon="5.86325">
        <ele>463.3</ele>
        <time>2011-04-21T21:46:13Z</time>
      </trkpt>
      <trkpt lat="45.79506" lon="5.86325">
        <ele>462.4</ele>
        <time>2011-04-21T21:46:13Z</time>
      </trkpt>
      <trkpt lat="45.79501" lon="5.86325">
        <ele>461.7</ele>
        <time>2011-04-21T21:46:13Z</time>
      </trkpt>
      <trkpt lat="45.79497" lon="5.86328">
        <ele>462.3</ele>
        <time>2011-04-21T21:46:13Z</time>
      </trkpt>
      <trkpt lat="45.79492" lon="5.86331">
        <ele>462.8</ele>
        <time>2011-04-21T21:46:13Z</time>
      </trkpt>
      <trkpt lat="45.79488" lon="5.8633">
        <ele>462.1</ele>
        <time>2011-04-21T21:46:13Z</time>
      </trkpt>
      <trkpt lat="45.79485" lon="5.8633">
        <ele>461.8</ele>
        <time>2011-04-21T21:46:13Z</time>
      </trkpt>
      <trkpt lat="45.79483" lon="5.8633">
        <ele>461.4</ele>
        <time>2011-04-21T21:46:13Z</time>
      </trkpt>
      <trkpt lat="45.79445" lon="5.86315">
        <ele>456.9</ele>
        <time>2011-04-21T21:46:13Z</time>
      </trkpt>
      <trkpt lat="45.79443" lon="5.86315">
        <ele>457</ele>
        <time>2011-04-21T21:46:13Z</time>
      </trkpt>
      <trkpt lat="45.79443" lon="5.86311">
        <ele>455.6</ele>
        <time>2011-04-21T21:46:13Z</time>
      </trkpt>
      <trkpt lat="45.79437" lon="5.86295">
        <ele>448.1</ele>
        <time>2011-04-21T21:46:13Z</time>
      </trkpt>
      <trkpt lat="45.79435" lon="5.86295">
        <ele>448.3</ele>
        <time>2011-04-21T21:46:13Z</time>
      </trkpt>
      <trkpt lat="45.79433" lon="5.86295">
        <ele>448.4</ele>
        <time>2011-04-21T21:46:13Z</time>
      </trkpt>
      <trkpt lat="45.79433" lon="5.86291">
        <ele>446.6</ele>
        <time>2011-04-21T21:46:13Z</time>
      </trkpt>
      <trkpt lat="45.7943" lon="5.86291">
        <ele>446.7</ele>
        <time>2011-04-21T21:46:13Z</time>
      </trkpt>
      <trkpt lat="45.79428" lon="5.86291">
        <ele>446.9</ele>
        <time>2011-04-21T21:46:13Z</time>
      </trkpt>
      <trkpt lat="45.79426" lon="5.86291">
        <ele>447.1</ele>
        <time>2011-04-21T21:46:13Z</time>
      </trkpt>
      <trkpt lat="45.79424" lon="5.86288">
        <ele>445.3</ele>
        <time>2011-04-21T21:46:13Z</time>
      </trkpt>
      <trkpt lat="45.79419" lon="5.86287">
        <ele>445.5</ele>
        <time>2011-04-21T21:46:13Z</time>
      </trkpt>
      <trkpt lat="45.79419" lon="5.86284">
        <ele>443.6</ele>
        <time>2011-04-21T21:46:13Z</time>
      </trkpt>
      <trkpt lat="45.79417" lon="5.86284">
        <ele>443.7</ele>
        <time>2011-04-21T21:46:13Z</time>
      </trkpt>
      <trkpt lat="45.79417" lon="5.86281">
        <ele>441.7</ele>
        <time>2011-04-21T21:46:13Z</time>
      </trkpt>
      <trkpt lat="45.79417" lon="5.86277">
        <ele>439.8</ele>
        <time>2011-04-21T21:46:13Z</time>
      </trkpt>
      <trkpt lat="45.79415" lon="5.86277">
        <ele>439.9</ele>
        <time>2011-04-21T21:46:13Z</time>
      </trkpt>
      <trkpt lat="45.79415" lon="5.86274">
        <ele>438.5</ele>
        <time>2011-04-21T21:46:13Z</time>
      </trkpt>
      <trkpt lat="45.79415" lon="5.86271">
        <ele>437.1</ele>
        <time>2011-04-21T21:46:13Z</time>
      </trkpt>
      <trkpt lat="45.79436" lon="5.86253">
        <ele>429.1</ele>
        <time>2011-04-21T21:46:13Z</time>
      </trkpt>
      <trkpt lat="45.79438" lon="5.86253">
        <ele>429.2</ele>
        <time>2011-04-21T21:46:13Z</time>
      </trkpt>
      <trkpt lat="45.79441" lon="5.8625">
        <ele>428</ele>
        <time>2011-04-21T21:46:13Z</time>
      </trkpt>
      <trkpt lat="45.79441" lon="5.86247">
        <ele>426.1</ele>
        <time>2011-04-21T21:46:13Z</time>
      </trkpt>
      <trkpt lat="45.79439" lon="5.86247">
        <ele>425.9</ele>
        <time>2011-04-21T21:46:13Z</time>
      </trkpt>
      <trkpt lat="45.79439" lon="5.86243">
        <ele>424</ele>
        <time>2011-04-21T21:46:13Z</time>
      </trkpt>
      <trkpt lat="45.79436" lon="5.86243">
        <ele>423.8</ele>
        <time>2011-04-21T21:46:13Z</time>
      </trkpt>
      <trkpt lat="45.79434" lon="5.86243">
        <ele>423.6</ele>
        <time>2011-04-21T21:46:13Z</time>
      </trkpt>
      <trkpt lat="45.79434" lon="5.8624">
        <ele>421.5</ele>
        <time>2011-04-21T21:46:13Z</time>
      </trkpt>
      <trkpt lat="45.79432" lon="5.8624">
        <ele>421.3</ele>
        <time>2011-04-21T21:46:13Z</time>
      </trkpt>
      <trkpt lat="45.7943" lon="5.8624">
        <ele>421.1</ele>
        <time>2011-04-21T21:46:13Z</time>
      </trkpt>
      <trkpt lat="45.79428" lon="5.8624">
        <ele>420.8</ele>
        <time>2011-04-21T21:46:13Z</time>
      </trkpt>
      <trkpt lat="45.79425" lon="5.86239">
        <ele>420.5</ele>
        <time>2011-04-21T21:46:13Z</time>
      </trkpt>
      <trkpt lat="45.79423" lon="5.86239">
        <ele>420.3</ele>
        <time>2011-04-21T21:46:13Z</time>
      </trkpt>
      <trkpt lat="45.79473" lon="5.86233">
        <ele>412.7</ele>
        <time>2011-04-21T21:46:13Z</time>
      </trkpt>
      <trkpt lat="45.79475" lon="5.86233">
        <ele>411.7</ele>
        <time>2011-04-21T21:46:13Z</time>
      </trkpt>
      <trkpt lat="45.79477" lon="5.86233">
        <ele>410.7</ele>
        <time>2011-04-21T21:46:13Z</time>
      </trkpt>
      <trkpt lat="45.79479" lon="5.86233">
        <ele>409.7</ele>
        <time>2011-04-21T21:46:13Z</time>
      </trkpt>
      <trkpt lat="45.79515" lon="5.86245">
        <ele>407.2</ele>
        <time>2011-04-21T21:46:13Z</time>
      </trkpt>
      <trkpt lat="45.79517" lon="5.86245">
        <ele>407.1</ele>
        <time>2011-04-21T21:46:13Z</time>
      </trkpt>
      <trkpt lat="45.79544" lon="5.86247">
        <ele>407.3</ele>
        <time>2011-04-21T21:46:13Z</time>
      </trkpt>
      <trkpt lat="45.79549" lon="5.86247">
        <ele>407.6</ele>
        <time>2011-04-21T21:46:13Z</time>
      </trkpt>
      <trkpt lat="45.79551" lon="5.86247">
        <ele>407.8</ele>
        <time>2011-04-21T21:46:13Z</time>
      </trkpt>
      <trkpt lat="45.79553" lon="5.86248">
        <ele>407.9</ele>
        <time>2011-04-21T21:46:13Z</time>
      </trkpt>
      <trkpt lat="45.79582" lon="5.86253">
        <ele>406.8</ele>
        <time>2011-04-21T21:46:13Z</time>
      </trkpt>
      <trkpt lat="45.79552" lon="5.86212">
        <ele>381.4</ele>
        <time>2011-04-21T21:46:13Z</time>
      </trkpt>
      <trkpt lat="45.79607" lon="5.86203">
        <ele>372.8</ele>
        <time>2011-04-21T21:46:13Z</time>
      </trkpt>
      <trkpt lat="45.79675" lon="5.86188">
        <ele>356.1</ele>
        <time>2011-04-21T21:46:13Z</time>
      </trkpt>
      <trkpt lat="45.79711" lon="5.86171">
        <ele>347</ele>
        <time>2011-04-21T21:46:13Z</time>
      </trkpt>
      <trkpt lat="45.79764" lon="5.86145">
        <ele>330.1</ele>
        <time>2011-04-21T21:46:13Z</time>
      </trkpt>
      <trkpt lat="45.79768" lon="5.86145">
        <ele>328.9</ele>
        <time>2011-04-21T21:46:13Z</time>
      </trkpt>
      <trkpt lat="45.79802" lon="5.86141">
        <ele>328.7</ele>
        <time>2011-04-21T21:46:13Z</time>
      </trkpt>
      <trkpt lat="45.79853" lon="5.86096">
        <ele>324.1</ele>
        <time>2011-04-21T21:46:13Z</time>
      </trkpt>
      <trkpt lat="45.79879" lon="5.86066">
        <ele>318.8</ele>
        <time>2011-04-21T21:46:13Z</time>
      </trkpt>
      <trkpt lat="45.799" lon="5.86032">
        <ele>312.3</ele>
        <time>2011-04-21T21:46:13Z</time>
      </trkpt>
      <trkpt lat="45.79952" lon="5.86019">
        <ele>311</ele>
        <time>2011-04-21T21:46:13Z</time>
      </trkpt>
      <trkpt lat="45.79969" lon="5.86004">
        <ele>307.8</ele>
        <time>2011-04-21T21:46:13Z</time>
      </trkpt>
      <trkpt lat="45.79971" lon="5.86004">
        <ele>308</ele>
        <time>2011-04-21T21:46:13Z</time>
      </trkpt>
      <trkpt lat="45.79971" lon="5.85998">
        <ele>306.3</ele>
        <time>2011-04-21T21:46:13Z</time>
      </trkpt>
      <trkpt lat="45.79988" lon="5.85963">
        <ele>300.4</ele>
        <time>2011-04-21T21:46:13Z</time>
      </trkpt>
      <trkpt lat="45.80016" lon="5.85914">
        <ele>288.9</ele>
        <time>2011-04-21T21:46:13Z</time>
      </trkpt>
      <trkpt lat="45.80019" lon="5.85914">
        <ele>289.4</ele>
        <time>2011-04-21T21:46:13Z</time>
      </trkpt>
      <trkpt lat="45.80019" lon="5.8591">
        <ele>288.4</ele>
        <time>2011-04-21T21:46:13Z</time>
      </trkpt>
      <trkpt lat="45.80021" lon="5.85907">
        <ele>287.8</ele>
        <time>2011-04-21T21:46:13Z</time>
      </trkpt>
      <trkpt lat="45.80023" lon="5.85904">
        <ele>287.2</ele>
        <time>2011-04-21T21:46:13Z</time>
      </trkpt>
      <trkpt lat="45.80026" lon="5.85901">
        <ele>286.6</ele>
        <time>2011-04-21T21:46:13Z</time>
      </trkpt>
      <trkpt lat="45.80026" lon="5.85898">
        <ele>285.6</ele>
        <time>2011-04-21T21:46:13Z</time>
      </trkpt>
      <trkpt lat="45.80037" lon="5.85889">
        <ele>285.2</ele>
        <time>2011-04-21T21:46:13Z</time>
      </trkpt>
      <trkpt lat="45.80056" lon="5.85855">
        <ele>276.5</ele>
        <time>2011-04-21T21:46:13Z</time>
      </trkpt>
      <trkpt lat="45.80111" lon="5.85836">
        <ele>274.8</ele>
        <time>2011-04-21T21:46:13Z</time>
      </trkpt>
      <trkpt lat="45.80143" lon="5.85815">
        <ele>272.6</ele>
        <time>2011-04-21T21:46:13Z</time>
      </trkpt>
      <trkpt lat="45.80174" lon="5.85782">
        <ele>264.7</ele>
        <time>2011-04-21T21:46:13Z</time>
      </trkpt>
      <trkpt lat="45.80174" lon="5.85779">
        <ele>263.6</ele>
        <time>2011-04-21T21:46:13Z</time>
      </trkpt>
      <trkpt lat="45.80178" lon="5.85776">
        <ele>263</ele>
        <time>2011-04-21T21:46:13Z</time>
      </trkpt>
      <trkpt lat="45.80219" lon="5.85759">
        <ele>260.9</ele>
        <time>2011-04-21T21:46:13Z</time>
      </trkpt>
      <trkpt lat="45.80219" lon="5.85756">
        <ele>260.2</ele>
        <time>2011-04-21T21:46:13Z</time>
      </trkpt>
      <trkpt lat="45.8022" lon="5.85753">
        <ele>259.5</ele>
        <time>2011-04-21T21:46:13Z</time>
      </trkpt>
      <trkpt lat="45.80213" lon="5.85736">
        <ele>256.7</ele>
        <time>2011-04-21T21:46:13Z</time>
      </trkpt>
      <trkpt lat="45.80164" lon="5.85743">
        <ele>255.5</ele>
        <time>2011-04-21T21:46:13Z</time>
      </trkpt>
      <trkpt lat="45.80134" lon="5.85738">
        <ele>253.1</ele>
        <time>2011-04-21T21:46:13Z</time>
      </trkpt>
      <trkpt lat="45.80112" lon="5.85723">
        <ele>251.1</ele>
        <time>2011-04-21T21:46:13Z</time>
      </trkpt>
      <trkpt lat="45.80172" lon="5.85679">
        <ele>246.9</ele>
        <time>2011-04-21T21:46:13Z</time>
      </trkpt>
      <trkpt lat="45.8022" lon="5.85672">
        <ele>247.5</ele>
        <time>2011-04-21T21:46:13Z</time>
      </trkpt>
      <trkpt lat="45.8022" lon="5.85669">
        <ele>247.2</ele>
        <time>2011-04-21T21:46:13Z</time>
      </trkpt>
      <trkpt lat="45.80222" lon="5.85669">
        <ele>247.3</ele>
        <time>2011-04-21T21:46:13Z</time>
      </trkpt>
      <trkpt lat="45.80224" lon="5.85666">
        <ele>247.1</ele>
        <time>2011-04-21T21:46:13Z</time>
      </trkpt>
      <trkpt lat="45.80264" lon="5.85627">
        <ele>244.5</ele>
        <time>2011-04-21T21:46:13Z</time>
      </trkpt>
      <trkpt lat="45.80295" lon="5.85564">
        <ele>240.7</ele>
        <time>2011-04-21T21:46:13Z</time>
      </trkpt>
      <trkpt lat="45.80297" lon="5.85565">
        <ele>240.8</ele>
        <time>2011-04-21T21:46:13Z</time>
      </trkpt>
      <trkpt lat="45.80342" lon="5.85519">
        <ele>238.3</ele>
        <time>2011-04-21T21:46:13Z</time>
      </trkpt>
      <trkpt lat="45.8038" lon="5.85502">
        <ele>238</ele>
        <time>2011-04-21T21:46:13Z</time>
      </trkpt>
      <trkpt lat="45.80431" lon="5.85473">
        <ele>237.6</ele>
        <time>2011-04-21T21:46:13Z</time>
      </trkpt>
      <trkpt lat="45.80435" lon="5.85474">
        <ele>237.8</ele>
        <time>2011-04-21T21:46:13Z</time>
      </trkpt>
      <trkpt lat="45.80495" lon="5.85448">
        <ele>238.2</ele>
        <time>2011-04-21T21:46:13Z</time>
      </trkpt>
      <trkpt lat="45.80499" lon="5.85449">
        <ele>238.4</ele>
        <time>2011-04-21T21:46:13Z</time>
      </trkpt>
      <trkpt lat="45.80533" lon="5.85435">
        <ele>238.9</ele>
        <time>2011-04-21T21:46:13Z</time>
      </trkpt>
      <trkpt lat="45.80536" lon="5.85435">
        <ele>238.9</ele>
        <time>2011-04-21T21:46:13Z</time>
      </trkpt>
      <trkpt lat="45.80566" lon="5.85405">
        <ele>238.8</ele>
        <time>2011-04-21T21:46:13Z</time>
      </trkpt>
      <trkpt lat="45.8057" lon="5.85402">
        <ele>238.7</ele>
        <time>2011-04-21T21:46:13Z</time>
      </trkpt>
      <trkpt lat="45.80573" lon="5.85399">
        <ele>238.6</ele>
        <time>2011-04-21T21:46:13Z</time>
      </trkpt>
      <trkpt lat="45.80601" lon="5.85365">
        <ele>238.6</ele>
        <time>2011-04-21T21:46:13Z</time>
      </trkpt>
      <trkpt lat="45.80603" lon="5.85365">
        <ele>238.8</ele>
        <time>2011-04-21T21:46:13Z</time>
      </trkpt>
      <trkpt lat="45.80605" lon="5.85365">
        <ele>239</ele>
        <time>2011-04-21T21:46:13Z</time>
      </trkpt>
      <trkpt lat="45.8067" lon="5.85328">
        <ele>238.9</ele>
        <time>2011-04-21T21:46:13Z</time>
      </trkpt>
      <trkpt lat="45.80726" lon="5.85331">
        <ele>240.1</ele>
        <time>2011-04-21T21:46:13Z</time>
      </trkpt>
      <trkpt lat="45.80774" lon="5.85312">
        <ele>240.2</ele>
        <time>2011-04-21T21:46:13Z</time>
      </trkpt>
      <trkpt lat="45.80776" lon="5.85312">
        <ele>240.2</ele>
        <time>2011-04-21T21:46:13Z</time>
      </trkpt>
      <trkpt lat="45.80813" lon="5.85292">
        <ele>240.1</ele>
        <time>2011-04-21T21:46:13Z</time>
      </trkpt>
      <trkpt lat="45.80864" lon="5.8524">
        <ele>239.5</ele>
        <time>2011-04-21T21:46:13Z</time>
      </trkpt>
      <trkpt lat="45.80931" lon="5.8518">
        <ele>243.3</ele>
        <time>2011-04-21T21:46:13Z</time>
      </trkpt>
      <trkpt lat="45.80998" lon="5.85133">
        <ele>244.1</ele>
        <time>2011-04-21T21:46:13Z</time>
      </trkpt>
      <trkpt lat="45.8103" lon="5.85093">
        <ele>243.5</ele>
        <time>2011-04-21T21:46:13Z</time>
      </trkpt>
      <trkpt lat="45.81051" lon="5.85082">
        <ele>243.8</ele>
        <time>2011-04-21T21:46:13Z</time>
      </trkpt>
      <trkpt lat="45.81051" lon="5.85078">
        <ele>243.8</ele>
        <time>2011-04-21T21:46:13Z</time>
      </trkpt>
      <trkpt lat="45.81051" lon="5.85075">
        <ele>243.8</ele>
        <time>2011-04-21T21:46:13Z</time>
      </trkpt>
      <trkpt lat="45.8105" lon="5.85053">
        <ele>243.6</ele>
        <time>2011-04-21T21:46:13Z</time>
      </trkpt>
      <trkpt lat="45.81047" lon="5.85052">
        <ele>243.5</ele>
        <time>2011-04-21T21:46:13Z</time>
      </trkpt>
      <trkpt lat="45.81048" lon="5.85049">
        <ele>243.3</ele>
        <time>2011-04-21T21:46:13Z</time>
      </trkpt>
      <trkpt lat="45.81045" lon="5.85049">
        <ele>243.2</ele>
        <time>2011-04-21T21:46:13Z</time>
      </trkpt>
      <trkpt lat="45.81045" lon="5.85046">
        <ele>242.9</ele>
        <time>2011-04-21T21:46:13Z</time>
      </trkpt>
      <trkpt lat="45.81043" lon="5.85046">
        <ele>242.8</ele>
        <time>2011-04-21T21:46:13Z</time>
      </trkpt>
      <trkpt lat="45.81043" lon="5.85043">
        <ele>242.6</ele>
        <time>2011-04-21T21:46:13Z</time>
      </trkpt>
      <trkpt lat="45.81041" lon="5.85039">
        <ele>242.3</ele>
        <time>2011-04-21T21:46:13Z</time>
      </trkpt>
      <trkpt lat="45.81039" lon="5.85039">
        <ele>242.2</ele>
        <time>2011-04-21T21:46:13Z</time>
      </trkpt>
      <trkpt lat="45.81039" lon="5.85036">
        <ele>242</ele>
        <time>2011-04-21T21:46:13Z</time>
      </trkpt>
      <trkpt lat="45.81037" lon="5.85036">
        <ele>241.9</ele>
        <time>2011-04-21T21:46:13Z</time>
      </trkpt>
      <trkpt lat="45.81034" lon="5.85036">
        <ele>241.8</ele>
        <time>2011-04-21T21:46:13Z</time>
      </trkpt>
      <trkpt lat="45.81032" lon="5.85035">
        <ele>241.7</ele>
        <time>2011-04-21T21:46:13Z</time>
      </trkpt>
      <trkpt lat="45.8103" lon="5.85035">
        <ele>241.6</ele>
        <time>2011-04-21T21:46:13Z</time>
      </trkpt>
      <trkpt lat="45.81028" lon="5.85035">
        <ele>241.5</ele>
        <time>2011-04-21T21:46:13Z</time>
      </trkpt>
      <trkpt lat="45.81026" lon="5.85035">
        <ele>241.6</ele>
        <time>2011-04-21T21:46:13Z</time>
      </trkpt>
      <trkpt lat="45.81023" lon="5.85032">
        <ele>241.5</ele>
        <time>2011-04-21T21:46:13Z</time>
      </trkpt>
      <trkpt lat="45.81023" lon="5.85028">
        <ele>241.3</ele>
        <time>2011-04-21T21:46:13Z</time>
      </trkpt>
      <trkpt lat="45.81021" lon="5.85028">
        <ele>241.5</ele>
        <time>2011-04-21T21:46:13Z</time>
      </trkpt>
      <trkpt lat="45.81017" lon="5.85028">
        <ele>241.8</ele>
        <time>2011-04-21T21:46:13Z</time>
      </trkpt>
      <trkpt lat="45.81014" lon="5.85028">
        <ele>242</ele>
        <time>2011-04-21T21:46:13Z</time>
      </trkpt>
      <trkpt lat="45.81015" lon="5.85025">
        <ele>241.8</ele>
        <time>2011-04-21T21:46:13Z</time>
      </trkpt>
      <trkpt lat="45.81012" lon="5.85021">
        <ele>241.7</ele>
        <time>2011-04-21T21:46:13Z</time>
      </trkpt>
      <trkpt lat="45.8101" lon="5.85021">
        <ele>241.9</ele>
        <time>2011-04-21T21:46:13Z</time>
      </trkpt>
      <trkpt lat="45.8101" lon="5.85018">
        <ele>241.7</ele>
        <time>2011-04-21T21:46:13Z</time>
      </trkpt>
      <trkpt lat="45.81008" lon="5.85018">
        <ele>241.8</ele>
        <time>2011-04-21T21:46:13Z</time>
      </trkpt>
      <trkpt lat="45.81006" lon="5.85011">
        <ele>241.5</ele>
        <time>2011-04-21T21:46:13Z</time>
      </trkpt>
      <trkpt lat="45.81004" lon="5.85011">
        <ele>241.6</ele>
        <time>2011-04-21T21:46:13Z</time>
      </trkpt>
      <trkpt lat="45.81002" lon="5.85008">
        <ele>241.5</ele>
        <time>2011-04-21T21:46:13Z</time>
      </trkpt>
      <trkpt lat="45.80999" lon="5.85008">
        <ele>241.6</ele>
        <time>2011-04-21T21:46:13Z</time>
      </trkpt>
      <trkpt lat="45.80999" lon="5.85004">
        <ele>241.3</ele>
        <time>2011-04-21T21:46:13Z</time>
      </trkpt>
      <trkpt lat="45.80997" lon="5.85004">
        <ele>241.4</ele>
        <time>2011-04-21T21:46:13Z</time>
      </trkpt>
      <trkpt lat="45.80995" lon="5.85004">
        <ele>241.5</ele>
        <time>2011-04-21T21:46:13Z</time>
      </trkpt>
      <trkpt lat="45.80993" lon="5.85004">
        <ele>241.6</ele>
        <time>2011-04-21T21:46:13Z</time>
      </trkpt>
      <trkpt lat="45.80993" lon="5.85001">
        <ele>241.3</ele>
        <time>2011-04-21T21:46:13Z</time>
      </trkpt>
      <trkpt lat="45.80991" lon="5.84997">
        <ele>241.2</ele>
        <time>2011-04-21T21:46:13Z</time>
      </trkpt>
      <trkpt lat="45.80988" lon="5.84997">
        <ele>241.3</ele>
        <time>2011-04-21T21:46:13Z</time>
      </trkpt>
      <trkpt lat="45.80989" lon="5.84994">
        <ele>241.2</ele>
        <time>2011-04-21T21:46:13Z</time>
      </trkpt>
      <trkpt lat="45.80986" lon="5.84994">
        <ele>241.3</ele>
        <time>2011-04-21T21:46:13Z</time>
      </trkpt>
      <trkpt lat="45.80986" lon="5.84991">
        <ele>241.2</ele>
        <time>2011-04-21T21:46:13Z</time>
      </trkpt>
      <trkpt lat="45.80984" lon="5.8499">
        <ele>241.2</ele>
        <time>2011-04-21T21:46:13Z</time>
      </trkpt>
      <trkpt lat="45.80984" lon="5.84987">
        <ele>241.1</ele>
        <time>2011-04-21T21:46:13Z</time>
      </trkpt>
      <trkpt lat="45.80982" lon="5.84987">
        <ele>241.2</ele>
        <time>2011-04-21T21:46:13Z</time>
      </trkpt>
      <trkpt lat="45.80982" lon="5.84984">
        <ele>241.1</ele>
        <time>2011-04-21T21:46:13Z</time>
      </trkpt>
      <trkpt lat="45.8098" lon="5.84984">
        <ele>241.1</ele>
        <time>2011-04-21T21:46:13Z</time>
      </trkpt>
      <trkpt lat="45.80978" lon="5.84984">
        <ele>241.2</ele>
        <time>2011-04-21T21:46:13Z</time>
      </trkpt>
      <trkpt lat="45.80975" lon="5.84983">
        <ele>241.3</ele>
        <time>2011-04-21T21:46:13Z</time>
      </trkpt>
      <trkpt lat="45.80973" lon="5.84983">
        <ele>241.4</ele>
        <time>2011-04-21T21:46:13Z</time>
      </trkpt>
      <trkpt lat="45.80973" lon="5.8498">
        <ele>241.2</ele>
        <time>2011-04-21T21:46:13Z</time>
      </trkpt>
      <trkpt lat="45.80971" lon="5.8498">
        <ele>241.3</ele>
        <time>2011-04-21T21:46:13Z</time>
      </trkpt>
      <trkpt lat="45.80969" lon="5.84977">
        <ele>241.1</ele>
        <time>2011-04-21T21:46:13Z</time>
      </trkpt>
      <trkpt lat="45.80967" lon="5.84976">
        <ele>241</ele>
        <time>2011-04-21T21:46:13Z</time>
      </trkpt>
      <trkpt lat="45.80967" lon="5.84973">
        <ele>240.9</ele>
        <time>2011-04-21T21:46:13Z</time>
      </trkpt>
      <trkpt lat="45.80964" lon="5.84973">
        <ele>240.8</ele>
        <time>2011-04-21T21:46:13Z</time>
      </trkpt>
      <trkpt lat="45.80965" lon="5.8497">
        <ele>240.5</ele>
        <time>2011-04-21T21:46:13Z</time>
      </trkpt>
      <trkpt lat="45.80962" lon="5.8497">
        <ele>240.4</ele>
        <time>2011-04-21T21:46:13Z</time>
      </trkpt>
      <trkpt lat="45.80962" lon="5.84967">
        <ele>240</ele>
        <time>2011-04-21T21:46:13Z</time>
      </trkpt>
      <trkpt lat="45.8096" lon="5.84966">
        <ele>239.9</ele>
        <time>2011-04-21T21:46:13Z</time>
      </trkpt>
      <trkpt lat="45.80958" lon="5.84963">
        <ele>239.5</ele>
        <time>2011-04-21T21:46:13Z</time>
      </trkpt>
      <trkpt lat="45.80958" lon="5.8496">
        <ele>239.1</ele>
        <time>2011-04-21T21:46:13Z</time>
      </trkpt>
      <trkpt lat="45.80956" lon="5.8496">
        <ele>239.1</ele>
        <time>2011-04-21T21:46:13Z</time>
      </trkpt>
      <trkpt lat="45.80954" lon="5.8496">
        <ele>239</ele>
        <time>2011-04-21T21:46:13Z</time>
      </trkpt>
      <trkpt lat="45.80954" lon="5.84956">
        <ele>238.6</ele>
        <time>2011-04-21T21:46:13Z</time>
      </trkpt>
      <trkpt lat="45.80951" lon="5.84956">
        <ele>238.5</ele>
        <time>2011-04-21T21:46:13Z</time>
      </trkpt>
      <trkpt lat="45.80949" lon="5.84956">
        <ele>238.4</ele>
        <time>2011-04-21T21:46:13Z</time>
      </trkpt>
      <trkpt lat="45.80947" lon="5.84953">
        <ele>238</ele>
        <time>2011-04-21T21:46:13Z</time>
      </trkpt>
      <trkpt lat="45.80945" lon="5.84953">
        <ele>237.9</ele>
        <time>2011-04-21T21:46:13Z</time>
      </trkpt>
      <trkpt lat="45.8094" lon="5.84952">
        <ele>237.8</ele>
        <time>2011-04-21T21:46:13Z</time>
      </trkpt>
      <trkpt lat="45.80938" lon="5.84949">
        <ele>237.4</ele>
        <time>2011-04-21T21:46:13Z</time>
      </trkpt>
      <trkpt lat="45.80936" lon="5.84949">
        <ele>237.4</ele>
        <time>2011-04-21T21:46:13Z</time>
      </trkpt>
      <trkpt lat="45.80934" lon="5.84945">
        <ele>237.1</ele>
        <time>2011-04-21T21:46:13Z</time>
      </trkpt>
      <trkpt lat="45.80929" lon="5.84945">
        <ele>237.1</ele>
        <time>2011-04-21T21:46:13Z</time>
      </trkpt>
      <trkpt lat="45.80927" lon="5.84945">
        <ele>237</ele>
        <time>2011-04-21T21:46:13Z</time>
      </trkpt>
      <trkpt lat="45.80925" lon="5.84945">
        <ele>237</ele>
        <time>2011-04-21T21:46:13Z</time>
      </trkpt>
      <trkpt lat="45.80923" lon="5.84945">
        <ele>237</ele>
        <time>2011-04-21T21:46:13Z</time>
      </trkpt>
      <trkpt lat="45.8092" lon="5.84945">
        <ele>237</ele>
        <time>2011-04-21T21:46:13Z</time>
      </trkpt>
      <trkpt lat="45.80916" lon="5.84944">
        <ele>237</ele>
        <time>2011-04-21T21:46:13Z</time>
      </trkpt>
      <trkpt lat="45.80914" lon="5.84944">
        <ele>237</ele>
        <time>2011-04-21T21:46:13Z</time>
      </trkpt>
      <trkpt lat="45.80911" lon="5.84944">
        <ele>237</ele>
        <time>2011-04-21T21:46:13Z</time>
      </trkpt>
      <trkpt lat="45.80909" lon="5.84944">
        <ele>237</ele>
        <time>2011-04-21T21:46:13Z</time>
      </trkpt>
      <trkpt lat="45.80907" lon="5.84944">
        <ele>237</ele>
        <time>2011-04-21T21:46:13Z</time>
      </trkpt>
      <trkpt lat="45.80905" lon="5.84944">
        <ele>237</ele>
        <time>2011-04-21T21:46:13Z</time>
      </trkpt>
      <trkpt lat="45.80902" lon="5.84943">
        <ele>237</ele>
        <time>2011-04-21T21:46:13Z</time>
      </trkpt>
      <trkpt lat="45.809" lon="5.8494">
        <ele>236.8</ele>
        <time>2011-04-21T21:46:13Z</time>
      </trkpt>
      <trkpt lat="45.80898" lon="5.8494">
        <ele>236.8</ele>
        <time>2011-04-21T21:46:13Z</time>
      </trkpt>
      <trkpt lat="45.80896" lon="5.8494">
        <ele>236.8</ele>
        <time>2011-04-21T21:46:13Z</time>
      </trkpt>
      <trkpt lat="45.80894" lon="5.84936">
        <ele>236.7</ele>
        <time>2011-04-21T21:46:13Z</time>
      </trkpt>
      <trkpt lat="45.80891" lon="5.84936">
        <ele>236.7</ele>
        <time>2011-04-21T21:46:13Z</time>
      </trkpt>
      <trkpt lat="45.80889" lon="5.84936">
        <ele>236.7</ele>
        <time>2011-04-21T21:46:13Z</time>
      </trkpt>
      <trkpt lat="45.80887" lon="5.84936">
        <ele>236.7</ele>
        <time>2011-04-21T21:46:13Z</time>
      </trkpt>
      <trkpt lat="45.80882" lon="5.84936">
        <ele>236.6</ele>
        <time>2011-04-21T21:46:13Z</time>
      </trkpt>
      <trkpt lat="45.80882" lon="5.84932">
        <ele>236.5</ele>
        <time>2011-04-21T21:46:13Z</time>
      </trkpt>
      <trkpt lat="45.8088" lon="5.84932">
        <ele>236.4</ele>
        <time>2011-04-21T21:46:13Z</time>
      </trkpt>
      <trkpt lat="45.80878" lon="5.84932">
        <ele>236.4</ele>
        <time>2011-04-21T21:46:13Z</time>
      </trkpt>
      <trkpt lat="45.80876" lon="5.84932">
        <ele>236.3</ele>
        <time>2011-04-21T21:46:13Z</time>
      </trkpt>
      <trkpt lat="45.80873" lon="5.84932">
        <ele>236.3</ele>
        <time>2011-04-21T21:46:13Z</time>
      </trkpt>
      <trkpt lat="45.80871" lon="5.84929">
        <ele>236.1</ele>
        <time>2011-04-21T21:46:13Z</time>
      </trkpt>
      <trkpt lat="45.80869" lon="5.84928">
        <ele>236</ele>
        <time>2011-04-21T21:46:13Z</time>
      </trkpt>
      <trkpt lat="45.80867" lon="5.84928">
        <ele>235.9</ele>
        <time>2011-04-21T21:46:13Z</time>
      </trkpt>
      <trkpt lat="45.80867" lon="5.84925">
        <ele>235.7</ele>
        <time>2011-04-21T21:46:13Z</time>
      </trkpt>
      <trkpt lat="45.80865" lon="5.84925">
        <ele>235.7</ele>
        <time>2011-04-21T21:46:13Z</time>
      </trkpt>
      <trkpt lat="45.80862" lon="5.84925">
        <ele>235.6</ele>
        <time>2011-04-21T21:46:13Z</time>
      </trkpt>
      <trkpt lat="45.8086" lon="5.84925">
        <ele>235.5</ele>
        <time>2011-04-21T21:46:13Z</time>
      </trkpt>
      <trkpt lat="45.80858" lon="5.84924">
        <ele>235.4</ele>
        <time>2011-04-21T21:46:13Z</time>
      </trkpt>
      <trkpt lat="45.80858" lon="5.84921">
        <ele>235.2</ele>
        <time>2011-04-21T21:46:13Z</time>
      </trkpt>
      <trkpt lat="45.80856" lon="5.84921">
        <ele>235.1</ele>
        <time>2011-04-21T21:46:13Z</time>
      </trkpt>
      <trkpt lat="45.80856" lon="5.84918">
        <ele>234.9</ele>
        <time>2011-04-21T21:46:13Z</time>
      </trkpt>
      <trkpt lat="45.80854" lon="5.84918">
        <ele>234.8</ele>
        <time>2011-04-21T21:46:13Z</time>
      </trkpt>
      <trkpt lat="45.80851" lon="5.84914">
        <ele>234.7</ele>
        <time>2011-04-21T21:46:13Z</time>
      </trkpt>
      <trkpt lat="45.80849" lon="5.84914">
        <ele>234.6</ele>
        <time>2011-04-21T21:46:13Z</time>
      </trkpt>
      <trkpt lat="45.80847" lon="5.84911">
        <ele>234.5</ele>
        <time>2011-04-21T21:46:13Z</time>
      </trkpt>
      <trkpt lat="45.80843" lon="5.84907">
        <ele>234.3</ele>
        <time>2011-04-21T21:46:13Z</time>
      </trkpt>
      <trkpt lat="45.8084" lon="5.84904">
        <ele>234.3</ele>
        <time>2011-04-21T21:46:13Z</time>
      </trkpt>
      <trkpt lat="45.80838" lon="5.84904">
        <ele>234.2</ele>
        <time>2011-04-21T21:46:13Z</time>
      </trkpt>
      <trkpt lat="45.80838" lon="5.84901">
        <ele>234.2</ele>
        <time>2011-04-21T21:46:13Z</time>
      </trkpt>
      <trkpt lat="45.80836" lon="5.84897">
        <ele>234.1</ele>
        <time>2011-04-21T21:46:13Z</time>
      </trkpt>
      <trkpt lat="45.80836" lon="5.84894">
        <ele>234.1</ele>
        <time>2011-04-21T21:46:13Z</time>
      </trkpt>
      <trkpt lat="45.80834" lon="5.84894">
        <ele>234</ele>
        <time>2011-04-21T21:46:13Z</time>
      </trkpt>
      <trkpt lat="45.80834" lon="5.84891">
        <ele>234</ele>
        <time>2011-04-21T21:46:13Z</time>
      </trkpt>
      <trkpt lat="45.80832" lon="5.84891">
        <ele>233.9</ele>
        <time>2011-04-21T21:46:13Z</time>
      </trkpt>
      <trkpt lat="45.80832" lon="5.84887">
        <ele>233.9</ele>
        <time>2011-04-21T21:46:13Z</time>
      </trkpt>
      <trkpt lat="45.8083" lon="5.84884">
        <ele>233.7</ele>
        <time>2011-04-21T21:46:13Z</time>
      </trkpt>
      <trkpt lat="45.8083" lon="5.84881">
        <ele>233.6</ele>
        <time>2011-04-21T21:46:13Z</time>
      </trkpt>
      <trkpt lat="45.80828" lon="5.84877">
        <ele>233.5</ele>
        <time>2011-04-21T21:46:13Z</time>
      </trkpt>
      <trkpt lat="45.80826" lon="5.84877">
        <ele>233.4</ele>
        <time>2011-04-21T21:46:13Z</time>
      </trkpt>
      <trkpt lat="45.80826" lon="5.84874">
        <ele>233.3</ele>
        <time>2011-04-21T21:46:13Z</time>
      </trkpt>
      <trkpt lat="45.80824" lon="5.84871">
        <ele>233.2</ele>
        <time>2011-04-21T21:46:13Z</time>
      </trkpt>
      <trkpt lat="45.80821" lon="5.84867">
        <ele>233.1</ele>
        <time>2011-04-21T21:46:13Z</time>
      </trkpt>
      <trkpt lat="45.80821" lon="5.84864">
        <ele>233.1</ele>
        <time>2011-04-21T21:46:13Z</time>
      </trkpt>
      <trkpt lat="45.80819" lon="5.84864">
        <ele>233.1</ele>
        <time>2011-04-21T21:46:13Z</time>
      </trkpt>
      <trkpt lat="45.80817" lon="5.84864">
        <ele>233</ele>
        <time>2011-04-21T21:46:13Z</time>
      </trkpt>
      <trkpt lat="45.80817" lon="5.84861">
        <ele>233</ele>
        <time>2011-04-21T21:46:13Z</time>
      </trkpt>
      <trkpt lat="45.80815" lon="5.84857">
        <ele>233</ele>
        <time>2011-04-21T21:46:13Z</time>
      </trkpt>
      <trkpt lat="45.8081" lon="5.84857">
        <ele>233</ele>
        <time>2011-04-21T21:46:13Z</time>
      </trkpt>
      <trkpt lat="45.80811" lon="5.84854">
        <ele>233</ele>
        <time>2011-04-21T21:46:13Z</time>
      </trkpt>
      <trkpt lat="45.80808" lon="5.8485">
        <ele>233</ele>
        <time>2011-04-21T21:46:13Z</time>
      </trkpt>
      <trkpt lat="45.80806" lon="5.8485">
        <ele>233</ele>
        <time>2011-04-21T21:46:13Z</time>
      </trkpt>
      <trkpt lat="45.80806" lon="5.84847">
        <ele>233</ele>
        <time>2011-04-21T21:46:13Z</time>
      </trkpt>
      <trkpt lat="45.80804" lon="5.84844">
        <ele>233</ele>
        <time>2011-04-21T21:46:13Z</time>
      </trkpt>
      <trkpt lat="45.80802" lon="5.84844">
        <ele>233</ele>
        <time>2011-04-21T21:46:13Z</time>
      </trkpt>
      <trkpt lat="45.808" lon="5.84843">
        <ele>233</ele>
        <time>2011-04-21T21:46:13Z</time>
      </trkpt>
      <trkpt lat="45.80797" lon="5.8484">
        <ele>233</ele>
        <time>2011-04-21T21:46:13Z</time>
      </trkpt>
      <trkpt lat="45.80795" lon="5.8484">
        <ele>233</ele>
        <time>2011-04-21T21:46:13Z</time>
      </trkpt>
      <trkpt lat="45.80793" lon="5.8484">
        <ele>233</ele>
        <time>2011-04-21T21:46:13Z</time>
      </trkpt>
      <trkpt lat="45.80791" lon="5.84836">
        <ele>233</ele>
        <time>2011-04-21T21:46:13Z</time>
      </trkpt>
      <trkpt lat="45.80789" lon="5.84836">
        <ele>233</ele>
        <time>2011-04-21T21:46:13Z</time>
      </trkpt>
      <trkpt lat="45.80786" lon="5.84836">
        <ele>233</ele>
        <time>2011-04-21T21:46:13Z</time>
      </trkpt>
      <trkpt lat="45.80784" lon="5.84836">
        <ele>233</ele>
        <time>2011-04-21T21:46:13Z</time>
      </trkpt>
      <trkpt lat="45.80784" lon="5.84833">
        <ele>233</ele>
        <time>2011-04-21T21:46:13Z</time>
      </trkpt>
      <trkpt lat="45.80782" lon="5.84833">
        <ele>233</ele>
        <time>2011-04-21T21:46:13Z</time>
      </trkpt>
      <trkpt lat="45.8078" lon="5.84833">
        <ele>233</ele>
        <time>2011-04-21T21:46:13Z</time>
      </trkpt>
      <trkpt lat="45.80777" lon="5.84832">
        <ele>233</ele>
        <time>2011-04-21T21:46:13Z</time>
      </trkpt>
      <trkpt lat="45.80778" lon="5.84829">
        <ele>232.8</ele>
        <time>2011-04-21T21:46:13Z</time>
      </trkpt>
      <trkpt lat="45.80775" lon="5.84829">
        <ele>232.8</ele>
        <time>2011-04-21T21:46:13Z</time>
      </trkpt>
      <trkpt lat="45.80775" lon="5.84826">
        <ele>232.7</ele>
        <time>2011-04-21T21:46:13Z</time>
      </trkpt>
      <trkpt lat="45.80773" lon="5.84826">
        <ele>232.6</ele>
        <time>2011-04-21T21:46:13Z</time>
      </trkpt>
      <trkpt lat="45.80771" lon="5.84826">
        <ele>232.6</ele>
        <time>2011-04-21T21:46:13Z</time>
      </trkpt>
      <trkpt lat="45.80771" lon="5.84822">
        <ele>232.6</ele>
        <time>2011-04-21T21:46:13Z</time>
      </trkpt>
      <trkpt lat="45.80769" lon="5.84822">
        <ele>232.5</ele>
        <time>2011-04-21T21:46:13Z</time>
      </trkpt>
      <trkpt lat="45.80766" lon="5.84822">
        <ele>232.5</ele>
        <time>2011-04-21T21:46:13Z</time>
      </trkpt>
      <trkpt lat="45.80767" lon="5.84819">
        <ele>232.5</ele>
        <time>2011-04-21T21:46:13Z</time>
      </trkpt>
      <trkpt lat="45.80764" lon="5.84815">
        <ele>232.5</ele>
        <time>2011-04-21T21:46:13Z</time>
      </trkpt>
      <trkpt lat="45.80765" lon="5.84812">
        <ele>232.5</ele>
        <time>2011-04-21T21:46:13Z</time>
      </trkpt>
      <trkpt lat="45.80762" lon="5.84812">
        <ele>232.5</ele>
        <time>2011-04-21T21:46:13Z</time>
      </trkpt>
      <trkpt lat="45.8076" lon="5.84809">
        <ele>232.6</ele>
        <time>2011-04-21T21:46:13Z</time>
      </trkpt>
      <trkpt lat="45.8076" lon="5.84806">
        <ele>232.6</ele>
        <time>2011-04-21T21:46:13Z</time>
      </trkpt>
      <trkpt lat="45.80758" lon="5.84802">
        <ele>232.6</ele>
        <time>2011-04-21T21:46:13Z</time>
      </trkpt>
      <trkpt lat="45.80758" lon="5.84799">
        <ele>232.5</ele>
        <time>2011-04-21T21:46:13Z</time>
      </trkpt>
      <trkpt lat="45.80756" lon="5.84799">
        <ele>232.6</ele>
        <time>2011-04-21T21:46:13Z</time>
      </trkpt>
      <trkpt lat="45.80756" lon="5.84796">
        <ele>232.5</ele>
        <time>2011-04-21T21:46:13Z</time>
      </trkpt>
      <trkpt lat="45.80754" lon="5.84792">
        <ele>232.4</ele>
        <time>2011-04-21T21:46:13Z</time>
      </trkpt>
      <trkpt lat="45.80752" lon="5.84789">
        <ele>232.4</ele>
        <time>2011-04-21T21:46:13Z</time>
      </trkpt>
      <trkpt lat="45.8075" lon="5.84789">
        <ele>232.4</ele>
        <time>2011-04-21T21:46:13Z</time>
      </trkpt>
      <trkpt lat="45.80747" lon="5.84785">
        <ele>232.3</ele>
        <time>2011-04-21T21:46:13Z</time>
      </trkpt>
      <trkpt lat="45.80747" lon="5.84782">
        <ele>232.2</ele>
        <time>2011-04-21T21:46:13Z</time>
      </trkpt>
      <trkpt lat="45.80743" lon="5.84782">
        <ele>232.3</ele>
        <time>2011-04-21T21:46:13Z</time>
      </trkpt>
      <trkpt lat="45.80743" lon="5.84779">
        <ele>232.3</ele>
        <time>2011-04-21T21:46:13Z</time>
      </trkpt>
      <trkpt lat="45.80739" lon="5.84778">
        <ele>232.4</ele>
        <time>2011-04-21T21:46:13Z</time>
      </trkpt>
      <trkpt lat="45.80736" lon="5.84775">
        <ele>232.5</ele>
        <time>2011-04-21T21:46:13Z</time>
      </trkpt>
      <trkpt lat="45.80734" lon="5.84772">
        <ele>232.6</ele>
        <time>2011-04-21T21:46:13Z</time>
      </trkpt>
      <trkpt lat="45.80732" lon="5.84772">
        <ele>232.6</ele>
        <time>2011-04-21T21:46:13Z</time>
      </trkpt>
      <trkpt lat="45.8073" lon="5.84768">
        <ele>232.7</ele>
        <time>2011-04-21T21:46:13Z</time>
      </trkpt>
      <trkpt lat="45.80728" lon="5.84765">
        <ele>232.8</ele>
        <time>2011-04-21T21:46:13Z</time>
      </trkpt>
      <trkpt lat="45.80723" lon="5.84765">
        <ele>233</ele>
        <time>2011-04-21T21:46:13Z</time>
      </trkpt>
      <trkpt lat="45.80723" lon="5.84761">
        <ele>233</ele>
        <time>2011-04-21T21:46:13Z</time>
      </trkpt>
      <trkpt lat="45.80721" lon="5.84761">
        <ele>233</ele>
        <time>2011-04-21T21:46:13Z</time>
      </trkpt>
      <trkpt lat="45.80719" lon="5.84761">
        <ele>233</ele>
        <time>2011-04-21T21:46:13Z</time>
      </trkpt>
      <trkpt lat="45.80719" lon="5.84758">
        <ele>233</ele>
        <time>2011-04-21T21:46:13Z</time>
      </trkpt>
      <trkpt lat="45.80717" lon="5.84754">
        <ele>233</ele>
        <time>2011-04-21T21:46:13Z</time>
      </trkpt>
      <trkpt lat="45.80715" lon="5.84751">
        <ele>233</ele>
        <time>2011-04-21T21:46:13Z</time>
      </trkpt>
      <trkpt lat="45.8071" lon="5.84748">
        <ele>233</ele>
        <time>2011-04-21T21:46:13Z</time>
      </trkpt>
      <trkpt lat="45.80706" lon="5.84741">
        <ele>233.2</ele>
        <time>2011-04-21T21:46:13Z</time>
      </trkpt>
      <trkpt lat="45.80704" lon="5.84738">
        <ele>233.3</ele>
        <time>2011-04-21T21:46:13Z</time>
      </trkpt>
      <trkpt lat="45.80697" lon="5.84731">
        <ele>233.6</ele>
        <time>2011-04-21T21:46:13Z</time>
      </trkpt>
      <trkpt lat="45.80695" lon="5.84731">
        <ele>233.7</ele>
        <time>2011-04-21T21:46:13Z</time>
      </trkpt>
      <trkpt lat="45.80693" lon="5.84727">
        <ele>233.8</ele>
        <time>2011-04-21T21:46:13Z</time>
      </trkpt>
      <trkpt lat="45.80691" lon="5.84724">
        <ele>233.9</ele>
        <time>2011-04-21T21:46:13Z</time>
      </trkpt>
      <trkpt lat="45.80689" lon="5.8472">
        <ele>233.9</ele>
        <time>2011-04-21T21:46:13Z</time>
      </trkpt>
      <trkpt lat="45.80686" lon="5.8472">
        <ele>234</ele>
        <time>2011-04-21T21:46:13Z</time>
      </trkpt>
      <trkpt lat="45.80682" lon="5.84717">
        <ele>233.9</ele>
        <time>2011-04-21T21:46:13Z</time>
      </trkpt>
      <trkpt lat="45.80682" lon="5.84714">
        <ele>233.8</ele>
        <time>2011-04-21T21:46:13Z</time>
      </trkpt>
      <trkpt lat="45.8068" lon="5.84713">
        <ele>233.9</ele>
        <time>2011-04-21T21:46:13Z</time>
      </trkpt>
      <trkpt lat="45.80678" lon="5.84713">
        <ele>233.9</ele>
        <time>2011-04-21T21:46:13Z</time>
      </trkpt>
      <trkpt lat="45.80675" lon="5.8471">
        <ele>233.9</ele>
        <time>2011-04-21T21:46:13Z</time>
      </trkpt>
      <trkpt lat="45.80676" lon="5.84707">
        <ele>233.8</ele>
        <time>2011-04-21T21:46:13Z</time>
      </trkpt>
      <trkpt lat="45.80673" lon="5.84707">
        <ele>233.9</ele>
        <time>2011-04-21T21:46:13Z</time>
      </trkpt>
      <trkpt lat="45.80673" lon="5.84703">
        <ele>233.8</ele>
        <time>2011-04-21T21:46:13Z</time>
      </trkpt>
      <trkpt lat="45.80671" lon="5.84703">
        <ele>233.9</ele>
        <time>2011-04-21T21:46:13Z</time>
      </trkpt>
      <trkpt lat="45.80671" lon="5.847">
        <ele>233.9</ele>
        <time>2011-04-21T21:46:13Z</time>
      </trkpt>
      <trkpt lat="45.80638" lon="5.84682">
        <ele>234.5</ele>
        <time>2011-04-21T21:46:13Z</time>
      </trkpt>
      <trkpt lat="45.80588" lon="5.8463">
        <ele>238.6</ele>
        <time>2011-04-21T21:46:13Z</time>
      </trkpt>
      <trkpt lat="45.80586" lon="5.8463">
        <ele>238.6</ele>
        <time>2011-04-21T21:46:13Z</time>
      </trkpt>
      <trkpt lat="45.80545" lon="5.84573">
        <ele>244</ele>
        <time>2011-04-21T21:46:13Z</time>
      </trkpt>
      <trkpt lat="45.8054" lon="5.84569">
        <ele>244.3</ele>
        <time>2011-04-21T21:46:13Z</time>
      </trkpt>
      <trkpt lat="45.80505" lon="5.84557">
        <ele>245.7</ele>
        <time>2011-04-21T21:46:13Z</time>
      </trkpt>
      <trkpt lat="45.80458" lon="5.84548">
        <ele>245.8</ele>
        <time>2011-04-21T21:46:13Z</time>
      </trkpt>
      <trkpt lat="45.80455" lon="5.84548">
        <ele>245.8</ele>
        <time>2011-04-21T21:46:13Z</time>
      </trkpt>
      <trkpt lat="45.80453" lon="5.84548">
        <ele>245.7</ele>
        <time>2011-04-21T21:46:13Z</time>
      </trkpt>
      <trkpt lat="45.80434" lon="5.84521">
        <ele>243.8</ele>
        <time>2011-04-21T21:46:13Z</time>
      </trkpt>
      <trkpt lat="45.80429" lon="5.8452">
        <ele>243.7</ele>
        <time>2011-04-21T21:46:13Z</time>
      </trkpt>
      <trkpt lat="45.80366" lon="5.84468">
        <ele>239.2</ele>
        <time>2011-04-21T21:46:13Z</time>
      </trkpt>
      <trkpt lat="45.8029" lon="5.84434">
        <ele>238.7</ele>
        <time>2011-04-21T21:46:13Z</time>
      </trkpt>
      <trkpt lat="45.80254" lon="5.84432">
        <ele>238.7</ele>
        <time>2011-04-21T21:46:13Z</time>
      </trkpt>
      <trkpt lat="45.80205" lon="5.84429">
        <ele>239.9</ele>
        <time>2011-04-21T21:46:13Z</time>
      </trkpt>
      <trkpt lat="45.80164" lon="5.84426">
        <ele>241.8</ele>
        <time>2011-04-21T21:46:13Z</time>
      </trkpt>
      <trkpt lat="45.80162" lon="5.84426">
        <ele>241.9</ele>
        <time>2011-04-21T21:46:13Z</time>
      </trkpt>
      <trkpt lat="45.8016" lon="5.84426">
        <ele>242</ele>
        <time>2011-04-21T21:46:13Z</time>
      </trkpt>
      <trkpt lat="45.80122" lon="5.84423">
        <ele>244.1</ele>
        <time>2011-04-21T21:46:13Z</time>
      </trkpt>
      <trkpt lat="45.80119" lon="5.84423">
        <ele>244.3</ele>
        <time>2011-04-21T21:46:13Z</time>
      </trkpt>
      <trkpt lat="45.80086" lon="5.84421">
        <ele>245.4</ele>
        <time>2011-04-21T21:46:13Z</time>
      </trkpt>
      <trkpt lat="45.80083" lon="5.84421">
        <ele>245.5</ele>
        <time>2011-04-21T21:46:13Z</time>
      </trkpt>
      <trkpt lat="45.80066" lon="5.84388">
        <ele>243.4</ele>
        <time>2011-04-21T21:46:13Z</time>
      </trkpt>
      <trkpt lat="45.80066" lon="5.84385">
        <ele>243.5</ele>
        <time>2011-04-21T21:46:13Z</time>
      </trkpt>
      <trkpt lat="45.80067" lon="5.84381">
        <ele>243.6</ele>
        <time>2011-04-21T21:46:13Z</time>
      </trkpt>
      <trkpt lat="45.80067" lon="5.84378">
        <ele>243.6</ele>
        <time>2011-04-21T21:46:13Z</time>
      </trkpt>
      <trkpt lat="45.80067" lon="5.84375">
        <ele>243.7</ele>
        <time>2011-04-21T21:46:13Z</time>
      </trkpt>
      <trkpt lat="45.80067" lon="5.84372">
        <ele>243.8</ele>
        <time>2011-04-21T21:46:13Z</time>
      </trkpt>
      <trkpt lat="45.80067" lon="5.84369">
        <ele>243.8</ele>
        <time>2011-04-21T21:46:13Z</time>
      </trkpt>
      <trkpt lat="45.80067" lon="5.84365">
        <ele>243.9</ele>
        <time>2011-04-21T21:46:13Z</time>
      </trkpt>
      <trkpt lat="45.80069" lon="5.84362">
        <ele>244</ele>
        <time>2011-04-21T21:46:13Z</time>
      </trkpt>
      <trkpt lat="45.8007" lon="5.84359">
        <ele>244.5</ele>
        <time>2011-04-21T21:46:13Z</time>
      </trkpt>
      <trkpt lat="45.80072" lon="5.84356">
        <ele>245</ele>
        <time>2011-04-21T21:46:13Z</time>
      </trkpt>
      <trkpt lat="45.80072" lon="5.8435">
        <ele>246.3</ele>
        <time>2011-04-21T21:46:13Z</time>
      </trkpt>
      <trkpt lat="45.80075" lon="5.84343">
        <ele>247.2</ele>
        <time>2011-04-21T21:46:13Z</time>
      </trkpt>
      <trkpt lat="45.80075" lon="5.84337">
        <ele>248.3</ele>
        <time>2011-04-21T21:46:13Z</time>
      </trkpt>
      <trkpt lat="45.80077" lon="5.84334">
        <ele>248.3</ele>
        <time>2011-04-21T21:46:13Z</time>
      </trkpt>
      <trkpt lat="45.80077" lon="5.84327">
        <ele>249.2</ele>
        <time>2011-04-21T21:46:13Z</time>
      </trkpt>
      <trkpt lat="45.80077" lon="5.84321">
        <ele>250</ele>
        <time>2011-04-21T21:46:13Z</time>
      </trkpt>
      <trkpt lat="45.80078" lon="5.84318">
        <ele>250.4</ele>
        <time>2011-04-21T21:46:13Z</time>
      </trkpt>
      <trkpt lat="45.80078" lon="5.84314">
        <ele>250.8</ele>
        <time>2011-04-21T21:46:13Z</time>
      </trkpt>
      <trkpt lat="45.80078" lon="5.84311">
        <ele>251.2</ele>
        <time>2011-04-21T21:46:13Z</time>
      </trkpt>
      <trkpt lat="45.8008" lon="5.84311">
        <ele>250.5</ele>
        <time>2011-04-21T21:46:13Z</time>
      </trkpt>
      <trkpt lat="45.80082" lon="5.84312">
        <ele>249.7</ele>
        <time>2011-04-21T21:46:13Z</time>
      </trkpt>
      <trkpt lat="45.80082" lon="5.84308">
        <ele>250</ele>
        <time>2011-04-21T21:46:13Z</time>
      </trkpt>
      <trkpt lat="45.80085" lon="5.84308">
        <ele>249.5</ele>
        <time>2011-04-21T21:46:13Z</time>
      </trkpt>
      <trkpt lat="45.80087" lon="5.84309">
        <ele>249.3</ele>
        <time>2011-04-21T21:46:13Z</time>
      </trkpt>
      <trkpt lat="45.8011" lon="5.84284">
        <ele>253.9</ele>
        <time>2011-04-21T21:46:13Z</time>
      </trkpt>
      <trkpt lat="45.8011" lon="5.84281">
        <ele>255</ele>
        <time>2011-04-21T21:46:13Z</time>
      </trkpt>
      <trkpt lat="45.8011" lon="5.84278">
        <ele>256</ele>
        <time>2011-04-21T21:46:13Z</time>
      </trkpt>
      <trkpt lat="45.80113" lon="5.84278">
        <ele>255.6</ele>
        <time>2011-04-21T21:46:13Z</time>
      </trkpt>
      <trkpt lat="45.80113" lon="5.84275">
        <ele>255.9</ele>
        <time>2011-04-21T21:46:13Z</time>
      </trkpt>
      <trkpt lat="45.80113" lon="5.84252">
        <ele>257.4</ele>
        <time>2011-04-21T21:46:13Z</time>
      </trkpt>
      <trkpt lat="45.80116" lon="5.84249">
        <ele>257.1</ele>
        <time>2011-04-21T21:46:13Z</time>
      </trkpt>
      <trkpt lat="45.80116" lon="5.84246">
        <ele>257</ele>
        <time>2011-04-21T21:46:13Z</time>
      </trkpt>
      <trkpt lat="45.80116" lon="5.84243">
        <ele>256.8</ele>
        <time>2011-04-21T21:46:13Z</time>
      </trkpt>
      <trkpt lat="45.80118" lon="5.84243">
        <ele>256.5</ele>
        <time>2011-04-21T21:46:13Z</time>
      </trkpt>
      <trkpt lat="45.80118" lon="5.8424">
        <ele>256.4</ele>
        <time>2011-04-21T21:46:13Z</time>
      </trkpt>
      <trkpt lat="45.80118" lon="5.84237">
        <ele>256.2</ele>
        <time>2011-04-21T21:46:13Z</time>
      </trkpt>
      <trkpt lat="45.80121" lon="5.84234">
        <ele>255.9</ele>
        <time>2011-04-21T21:46:13Z</time>
      </trkpt>
      <trkpt lat="45.80123" lon="5.84234">
        <ele>255.7</ele>
        <time>2011-04-21T21:46:13Z</time>
      </trkpt>
      <trkpt lat="45.80123" lon="5.8423">
        <ele>255.7</ele>
        <time>2011-04-21T21:46:13Z</time>
      </trkpt>
      <trkpt lat="45.80123" lon="5.84221">
        <ele>255.6</ele>
        <time>2011-04-21T21:46:13Z</time>
      </trkpt>
      <trkpt lat="45.80123" lon="5.84218">
        <ele>255.7</ele>
        <time>2011-04-21T21:46:13Z</time>
      </trkpt>
      <trkpt lat="45.80124" lon="5.84214">
        <ele>255.8</ele>
        <time>2011-04-21T21:46:13Z</time>
      </trkpt>
      <trkpt lat="45.80124" lon="5.84211">
        <ele>255.9</ele>
        <time>2011-04-21T21:46:13Z</time>
      </trkpt>
      <trkpt lat="45.80124" lon="5.84208">
        <ele>256</ele>
        <time>2011-04-21T21:46:13Z</time>
      </trkpt>
      <trkpt lat="45.80124" lon="5.84205">
        <ele>256.1</ele>
        <time>2011-04-21T21:46:13Z</time>
      </trkpt>
      <trkpt lat="45.80124" lon="5.84202">
        <ele>256.2</ele>
        <time>2011-04-21T21:46:13Z</time>
      </trkpt>
      <trkpt lat="45.80128" lon="5.84202">
        <ele>256.5</ele>
        <time>2011-04-21T21:46:13Z</time>
      </trkpt>
      <trkpt lat="45.80129" lon="5.84199">
        <ele>256.7</ele>
        <time>2011-04-21T21:46:13Z</time>
      </trkpt>
      <trkpt lat="45.80131" lon="5.84196">
        <ele>257.1</ele>
        <time>2011-04-21T21:46:13Z</time>
      </trkpt>
      <trkpt lat="45.80133" lon="5.84192">
        <ele>257.3</ele>
        <time>2011-04-21T21:46:13Z</time>
      </trkpt>
      <trkpt lat="45.80133" lon="5.84189">
        <ele>257.1</ele>
        <time>2011-04-21T21:46:13Z</time>
      </trkpt>
      <trkpt lat="45.80136" lon="5.84189">
        <ele>257.3</ele>
        <time>2011-04-21T21:46:13Z</time>
      </trkpt>
      <trkpt lat="45.80138" lon="5.84186">
        <ele>257.3</ele>
        <time>2011-04-21T21:46:13Z</time>
      </trkpt>
      <trkpt lat="45.80138" lon="5.84183">
        <ele>257.1</ele>
        <time>2011-04-21T21:46:13Z</time>
      </trkpt>
      <trkpt lat="45.8014" lon="5.84183">
        <ele>257.2</ele>
        <time>2011-04-21T21:46:13Z</time>
      </trkpt>
      <trkpt lat="45.80143" lon="5.8418">
        <ele>257</ele>
        <time>2011-04-21T21:46:13Z</time>
      </trkpt>
      <trkpt lat="45.80143" lon="5.84177">
        <ele>256.8</ele>
        <time>2011-04-21T21:46:13Z</time>
      </trkpt>
      <trkpt lat="45.80145" lon="5.84174">
        <ele>256.6</ele>
        <time>2011-04-21T21:46:13Z</time>
      </trkpt>
      <trkpt lat="45.80145" lon="5.84171">
        <ele>256.3</ele>
        <time>2011-04-21T21:46:13Z</time>
      </trkpt>
      <trkpt lat="45.80147" lon="5.84171">
        <ele>256.3</ele>
        <time>2011-04-21T21:46:13Z</time>
      </trkpt>
      <trkpt lat="45.80148" lon="5.84168">
        <ele>256.1</ele>
        <time>2011-04-21T21:46:13Z</time>
      </trkpt>
      <trkpt lat="45.8015" lon="5.84168">
        <ele>256.1</ele>
        <time>2011-04-21T21:46:13Z</time>
      </trkpt>
      <trkpt lat="45.8015" lon="5.84165">
        <ele>255.9</ele>
        <time>2011-04-21T21:46:13Z</time>
      </trkpt>
      <trkpt lat="45.8015" lon="5.84161">
        <ele>255.7</ele>
        <time>2011-04-21T21:46:13Z</time>
      </trkpt>
      <trkpt lat="45.80152" lon="5.84161">
        <ele>255.6</ele>
        <time>2011-04-21T21:46:13Z</time>
      </trkpt>
      <trkpt lat="45.80152" lon="5.84158">
        <ele>255.4</ele>
        <time>2011-04-21T21:46:13Z</time>
      </trkpt>
      <trkpt lat="45.80152" lon="5.84155">
        <ele>255.2</ele>
        <time>2011-04-21T21:46:13Z</time>
      </trkpt>
      <trkpt lat="45.80155" lon="5.84155">
        <ele>255.1</ele>
        <time>2011-04-21T21:46:13Z</time>
      </trkpt>
      <trkpt lat="45.80155" lon="5.84152">
        <ele>254.9</ele>
        <time>2011-04-21T21:46:13Z</time>
      </trkpt>
      <trkpt lat="45.80155" lon="5.84149">
        <ele>254.6</ele>
        <time>2011-04-21T21:46:13Z</time>
      </trkpt>
      <trkpt lat="45.80155" lon="5.84146">
        <ele>254.4</ele>
        <time>2011-04-21T21:46:13Z</time>
      </trkpt>
      <trkpt lat="45.80155" lon="5.84142">
        <ele>254.1</ele>
        <time>2011-04-21T21:46:13Z</time>
      </trkpt>
      <trkpt lat="45.80155" lon="5.84139">
        <ele>253.8</ele>
        <time>2011-04-21T21:46:13Z</time>
      </trkpt>
      <trkpt lat="45.80155" lon="5.84136">
        <ele>253.8</ele>
        <time>2011-04-21T21:46:13Z</time>
      </trkpt>
      <trkpt lat="45.80155" lon="5.84133">
        <ele>253.9</ele>
        <time>2011-04-21T21:46:13Z</time>
      </trkpt>
      <trkpt lat="45.80158" lon="5.8413">
        <ele>253.6</ele>
        <time>2011-04-21T21:46:13Z</time>
      </trkpt>
      <trkpt lat="45.80158" lon="5.84126">
        <ele>253.6</ele>
        <time>2011-04-21T21:46:13Z</time>
      </trkpt>
      <trkpt lat="45.8016" lon="5.84127">
        <ele>253.3</ele>
        <time>2011-04-21T21:46:13Z</time>
      </trkpt>
      <trkpt lat="45.8016" lon="5.84123">
        <ele>253.3</ele>
        <time>2011-04-21T21:46:13Z</time>
      </trkpt>
      <trkpt lat="45.80162" lon="5.84124">
        <ele>253</ele>
        <time>2011-04-21T21:46:13Z</time>
      </trkpt>
      <trkpt lat="45.80163" lon="5.8412">
        <ele>252.9</ele>
        <time>2011-04-21T21:46:13Z</time>
      </trkpt>
      <trkpt lat="45.80165" lon="5.84117">
        <ele>252.5</ele>
        <time>2011-04-21T21:46:13Z</time>
      </trkpt>
      <trkpt lat="45.80167" lon="5.84117">
        <ele>252.1</ele>
        <time>2011-04-21T21:46:13Z</time>
      </trkpt>
      <trkpt lat="45.80167" lon="5.84114">
        <ele>252</ele>
        <time>2011-04-21T21:46:13Z</time>
      </trkpt>
      <trkpt lat="45.80169" lon="5.84114">
        <ele>251.6</ele>
        <time>2011-04-21T21:46:13Z</time>
      </trkpt>
      <trkpt lat="45.8017" lon="5.84111">
        <ele>251.5</ele>
        <time>2011-04-21T21:46:13Z</time>
      </trkpt>
      <trkpt lat="45.80172" lon="5.84111">
        <ele>251.1</ele>
        <time>2011-04-21T21:46:13Z</time>
      </trkpt>
      <trkpt lat="45.80172" lon="5.84108">
        <ele>251.2</ele>
        <time>2011-04-21T21:46:13Z</time>
      </trkpt>
      <trkpt lat="45.80174" lon="5.84105">
        <ele>251</ele>
        <time>2011-04-21T21:46:13Z</time>
      </trkpt>
      <trkpt lat="45.80176" lon="5.84105">
        <ele>250.5</ele>
        <time>2011-04-21T21:46:13Z</time>
      </trkpt>
      <trkpt lat="45.80224" lon="5.84021">
        <ele>243.4</ele>
        <time>2011-04-21T21:46:13Z</time>
      </trkpt>
      <trkpt lat="45.80275" lon="5.8397">
        <ele>240.2</ele>
        <time>2011-04-21T21:46:13Z</time>
      </trkpt>
      <trkpt lat="45.80275" lon="5.83967">
        <ele>240.1</ele>
        <time>2011-04-21T21:46:13Z</time>
      </trkpt>
      <trkpt lat="45.80275" lon="5.83963">
        <ele>240.1</ele>
        <time>2011-04-21T21:46:13Z</time>
      </trkpt>
      <trkpt lat="45.80316" lon="5.83898">
        <ele>241.3</ele>
        <time>2011-04-21T21:46:13Z</time>
      </trkpt>
      <trkpt lat="45.80341" lon="5.83877">
        <ele>243</ele>
        <time>2011-04-21T21:46:13Z</time>
      </trkpt>
      <trkpt lat="45.80348" lon="5.8381">
        <ele>243.1</ele>
        <time>2011-04-21T21:46:13Z</time>
      </trkpt>
      <trkpt lat="45.80348" lon="5.83807">
        <ele>243</ele>
        <time>2011-04-21T21:46:13Z</time>
      </trkpt>
      <trkpt lat="45.80348" lon="5.83804">
        <ele>243</ele>
        <time>2011-04-21T21:46:13Z</time>
      </trkpt>
      <trkpt lat="45.80351" lon="5.83772">
        <ele>244.1</ele>
        <time>2011-04-21T21:46:13Z</time>
      </trkpt>
      <trkpt lat="45.80354" lon="5.83769">
        <ele>244.4</ele>
        <time>2011-04-21T21:46:13Z</time>
      </trkpt>
      <trkpt lat="45.80354" lon="5.83766">
        <ele>244.4</ele>
        <time>2011-04-21T21:46:13Z</time>
      </trkpt>
      <trkpt lat="45.80356" lon="5.83762">
        <ele>244.7</ele>
        <time>2011-04-21T21:46:13Z</time>
      </trkpt>
      <trkpt lat="45.80375" lon="5.83738">
        <ele>246.6</ele>
        <time>2011-04-21T21:46:13Z</time>
      </trkpt>
      <trkpt lat="45.80377" lon="5.83738">
        <ele>246.8</ele>
        <time>2011-04-21T21:46:13Z</time>
      </trkpt>
      <trkpt lat="45.80379" lon="5.83738">
        <ele>246.9</ele>
        <time>2011-04-21T21:46:13Z</time>
      </trkpt>
      <trkpt lat="45.8042" lon="5.83731">
        <ele>247.3</ele>
        <time>2011-04-21T21:46:13Z</time>
      </trkpt>
      <trkpt lat="45.80465" lon="5.8365">
        <ele>251.8</ele>
        <time>2011-04-21T21:46:13Z</time>
      </trkpt>
      <trkpt lat="45.80502" lon="5.83572">
        <ele>260.6</ele>
        <time>2011-04-21T21:46:13Z</time>
      </trkpt>
      <trkpt lat="45.80525" lon="5.83538">
        <ele>262.4</ele>
        <time>2011-04-21T21:46:13Z</time>
      </trkpt>
      <trkpt lat="45.80534" lon="5.83478">
        <ele>257.4</ele>
        <time>2011-04-21T21:46:13Z</time>
      </trkpt>
      <trkpt lat="45.80558" lon="5.83437">
        <ele>251.8</ele>
        <time>2011-04-21T21:46:13Z</time>
      </trkpt>
      <trkpt lat="45.80574" lon="5.834">
        <ele>250</ele>
        <time>2011-04-21T21:46:13Z</time>
      </trkpt>
      <trkpt lat="45.80563" lon="5.83344">
        <ele>248.2</ele>
        <time>2011-04-21T21:46:13Z</time>
      </trkpt>
      <trkpt lat="45.8056" lon="5.83299">
        <ele>248.8</ele>
        <time>2011-04-21T21:46:13Z</time>
      </trkpt>
      <trkpt lat="45.80562" lon="5.83299">
        <ele>249.5</ele>
        <time>2011-04-21T21:46:13Z</time>
      </trkpt>
      <trkpt lat="45.80562" lon="5.83296">
        <ele>250</ele>
        <time>2011-04-21T21:46:13Z</time>
      </trkpt>
      <trkpt lat="45.80562" lon="5.83232">
        <ele>253.5</ele>
        <time>2011-04-21T21:46:13Z</time>
      </trkpt>
      <trkpt lat="45.80583" lon="5.8321">
        <ele>257.6</ele>
        <time>2011-04-21T21:46:13Z</time>
      </trkpt>
      <trkpt lat="45.80583" lon="5.83207">
        <ele>257.3</ele>
        <time>2011-04-21T21:46:13Z</time>
      </trkpt>
      <trkpt lat="45.80585" lon="5.83207">
        <ele>257.9</ele>
        <time>2011-04-21T21:46:13Z</time>
      </trkpt>
      <trkpt lat="45.80587" lon="5.83207">
        <ele>258.6</ele>
        <time>2011-04-21T21:46:13Z</time>
      </trkpt>
      <trkpt lat="45.8059" lon="5.83204">
        <ele>258.8</ele>
        <time>2011-04-21T21:46:13Z</time>
      </trkpt>
      <trkpt lat="45.80592" lon="5.83201">
        <ele>258.9</ele>
        <time>2011-04-21T21:46:13Z</time>
      </trkpt>
      <trkpt lat="45.80592" lon="5.83198">
        <ele>258.3</ele>
        <time>2011-04-21T21:46:13Z</time>
      </trkpt>
      <trkpt lat="45.80594" lon="5.83198">
        <ele>258.8</ele>
        <time>2011-04-21T21:46:13Z</time>
      </trkpt>
      <trkpt lat="45.80597" lon="5.83195">
        <ele>258.6</ele>
        <time>2011-04-21T21:46:13Z</time>
      </trkpt>
      <trkpt lat="45.8064" lon="5.83188">
        <ele>264.2</ele>
        <time>2011-04-21T21:46:13Z</time>
      </trkpt>
      <trkpt lat="45.80648" lon="5.83134">
        <ele>268.2</ele>
        <time>2011-04-21T21:46:13Z</time>
      </trkpt>
      <trkpt lat="45.80648" lon="5.83131">
        <ele>268.2</ele>
        <time>2011-04-21T21:46:13Z</time>
      </trkpt>
      <trkpt lat="45.80648" lon="5.83128">
        <ele>268.2</ele>
        <time>2011-04-21T21:46:13Z</time>
      </trkpt>
      <trkpt lat="45.80648" lon="5.83124">
        <ele>268.2</ele>
        <time>2011-04-21T21:46:13Z</time>
      </trkpt>
      <trkpt lat="45.80661" lon="5.8307">
        <ele>266.4</ele>
        <time>2011-04-21T21:46:13Z</time>
      </trkpt>
      <trkpt lat="45.80681" lon="5.83014">
        <ele>264.3</ele>
        <time>2011-04-21T21:46:13Z</time>
      </trkpt>
      <trkpt lat="45.80681" lon="5.83011">
        <ele>264</ele>
        <time>2011-04-21T21:46:13Z</time>
      </trkpt>
      <trkpt lat="45.80716" lon="5.82968">
        <ele>261.1</ele>
        <time>2011-04-21T21:46:13Z</time>
      </trkpt>
      <trkpt lat="45.80755" lon="5.82951">
        <ele>260.4</ele>
        <time>2011-04-21T21:46:13Z</time>
      </trkpt>
      <trkpt lat="45.80757" lon="5.82951">
        <ele>260.1</ele>
        <time>2011-04-21T21:46:13Z</time>
      </trkpt>
      <trkpt lat="45.8076" lon="5.82951">
        <ele>259.9</ele>
        <time>2011-04-21T21:46:13Z</time>
      </trkpt>
      <trkpt lat="45.80762" lon="5.82951">
        <ele>259.6</ele>
        <time>2011-04-21T21:46:13Z</time>
      </trkpt>
      <trkpt lat="45.80764" lon="5.82951">
        <ele>259.4</ele>
        <time>2011-04-21T21:46:13Z</time>
      </trkpt>
      <trkpt lat="45.80796" lon="5.82944">
        <ele>251.3</ele>
        <time>2011-04-21T21:46:13Z</time>
      </trkpt>
      <trkpt lat="45.80839" lon="5.82924">
        <ele>240.1</ele>
        <time>2011-04-21T21:46:13Z</time>
      </trkpt>
      <trkpt lat="45.80865" lon="5.82903">
        <ele>233.4</ele>
        <time>2011-04-21T21:46:13Z</time>
      </trkpt>
      <trkpt lat="45.80865" lon="5.829">
        <ele>233.3</ele>
        <time>2011-04-21T21:46:13Z</time>
      </trkpt>
      <trkpt lat="45.8086" lon="5.82842">
        <ele>233</ele>
        <time>2011-04-21T21:46:13Z</time>
      </trkpt>
      <trkpt lat="45.8086" lon="5.82761">
        <ele>233.3</ele>
        <time>2011-04-21T21:46:13Z</time>
      </trkpt>
      <trkpt lat="45.80848" lon="5.82702">
        <ele>232.5</ele>
        <time>2011-04-21T21:46:13Z</time>
      </trkpt>
      <trkpt lat="45.80823" lon="5.82637">
        <ele>232.4</ele>
        <time>2011-04-21T21:46:13Z</time>
      </trkpt>
      <trkpt lat="45.80802" lon="5.82603">
        <ele>232.6</ele>
        <time>2011-04-21T21:46:13Z</time>
      </trkpt>
      <trkpt lat="45.808" lon="5.82603">
        <ele>232.6</ele>
        <time>2011-04-21T21:46:13Z</time>
      </trkpt>
      <trkpt lat="45.808" lon="5.826">
        <ele>232.5</ele>
        <time>2011-04-21T21:46:13Z</time>
      </trkpt>
      <trkpt lat="45.80777" lon="5.8255">
        <ele>233</ele>
        <time>2011-04-21T21:46:13Z</time>
      </trkpt>
      <trkpt lat="45.80774" lon="5.82546">
        <ele>233</ele>
        <time>2011-04-21T21:46:13Z</time>
      </trkpt>
      <trkpt lat="45.80774" lon="5.82543">
        <ele>232.9</ele>
        <time>2011-04-21T21:46:13Z</time>
      </trkpt>
      <trkpt lat="45.80732" lon="5.82463">
        <ele>233.3</ele>
        <time>2011-04-21T21:46:13Z</time>
      </trkpt>
      <trkpt lat="45.80689" lon="5.82393">
        <ele>233.1</ele>
        <time>2011-04-21T21:46:13Z</time>
      </trkpt>
      <trkpt lat="45.80673" lon="5.82337">
        <ele>232.8</ele>
        <time>2011-04-21T21:46:13Z</time>
      </trkpt>
      <trkpt lat="45.80673" lon="5.82331">
        <ele>232.8</ele>
        <time>2011-04-21T21:46:13Z</time>
      </trkpt>
      <trkpt lat="45.80673" lon="5.82328">
        <ele>232.8</ele>
        <time>2011-04-21T21:46:13Z</time>
      </trkpt>
      <trkpt lat="45.80673" lon="5.82321">
        <ele>232.8</ele>
        <time>2011-04-21T21:46:13Z</time>
      </trkpt>
      <trkpt lat="45.80671" lon="5.82318">
        <ele>232.8</ele>
        <time>2011-04-21T21:46:13Z</time>
      </trkpt>
      <trkpt lat="45.80671" lon="5.82315">
        <ele>232.8</ele>
        <time>2011-04-21T21:46:13Z</time>
      </trkpt>
      <trkpt lat="45.80671" lon="5.82311">
        <ele>232.8</ele>
        <time>2011-04-21T21:46:13Z</time>
      </trkpt>
      <trkpt lat="45.80649" lon="5.82168">
        <ele>232.6</ele>
        <time>2011-04-21T21:46:13Z</time>
      </trkpt>
      <trkpt lat="45.80632" lon="5.82058">
        <ele>233</ele>
        <time>2011-04-21T21:46:13Z</time>
      </trkpt>
      <trkpt lat="45.80619" lon="5.81964">
        <ele>233.9</ele>
        <time>2011-04-21T21:46:13Z</time>
      </trkpt>
      <trkpt lat="45.80603" lon="5.81911">
        <ele>235.9</ele>
        <time>2011-04-21T21:46:13Z</time>
      </trkpt>
      <trkpt lat="45.80581" lon="5.81881">
        <ele>236.2</ele>
        <time>2011-04-21T21:46:13Z</time>
      </trkpt>
      <trkpt lat="45.80579" lon="5.81877">
        <ele>235.4</ele>
        <time>2011-04-21T21:46:13Z</time>
      </trkpt>
      <trkpt lat="45.80538" lon="5.81833">
        <ele>235</ele>
        <time>2011-04-21T21:46:13Z</time>
      </trkpt>
      <trkpt lat="45.80518" lon="5.81806">
        <ele>235.6</ele>
        <time>2011-04-21T21:46:13Z</time>
      </trkpt>
      <trkpt lat="45.80516" lon="5.81796">
        <ele>235.4</ele>
        <time>2011-04-21T21:46:13Z</time>
      </trkpt>
      <trkpt lat="45.80516" lon="5.81793">
        <ele>235.3</ele>
        <time>2011-04-21T21:46:13Z</time>
      </trkpt>
      <trkpt lat="45.80516" lon="5.8179">
        <ele>235.3</ele>
        <time>2011-04-21T21:46:13Z</time>
      </trkpt>
      <trkpt lat="45.80514" lon="5.8179">
        <ele>235.2</ele>
        <time>2011-04-21T21:46:13Z</time>
      </trkpt>
      <trkpt lat="45.80512" lon="5.81786">
        <ele>235.1</ele>
        <time>2011-04-21T21:46:13Z</time>
      </trkpt>
      <trkpt lat="45.8051" lon="5.8178">
        <ele>235</ele>
        <time>2011-04-21T21:46:13Z</time>
      </trkpt>
      <trkpt lat="45.80508" lon="5.81779">
        <ele>235</ele>
        <time>2011-04-21T21:46:13Z</time>
      </trkpt>
      <trkpt lat="45.80508" lon="5.81776">
        <ele>235</ele>
        <time>2011-04-21T21:46:13Z</time>
      </trkpt>
      <trkpt lat="45.80508" lon="5.81773">
        <ele>235</ele>
        <time>2011-04-21T21:46:13Z</time>
      </trkpt>
      <trkpt lat="45.80508" lon="5.8177">
        <ele>235</ele>
        <time>2011-04-21T21:46:13Z</time>
      </trkpt>
      <trkpt lat="45.80506" lon="5.81766">
        <ele>235</ele>
        <time>2011-04-21T21:46:13Z</time>
      </trkpt>
      <trkpt lat="45.80506" lon="5.8177">
        <ele>235</ele>
        <time>2011-04-21T21:46:13Z</time>
      </trkpt>
    </trkseg>
  </trk>
</gpx>